<?xml version="1.0" encoding="UTF-8" standalone="no" ?>
<gpx xmlns="http://www.topografix.com/GPX/1/1" xmlns:xsi="http://www.w3.org/2001/XMLSchema-instance" xsi:schemaLocation="http://www.topografix.com/GPX/1/1 http://www.topografix.com/GPX/1/1/gpx.xsd" version="1.1" creator="VisuGPX - https://www.visugpx.com">
  <metadata>
    <name>2023 01 29 mont des acrays</name>
    <desc><![CDATA[2023 01 29 mont des acrays
sortie GEMSA]]></desc>
  </metadata>
  <trk>
    <name><![CDATA[2023 01 29 mont des acrays]]></name>
    <desc><![CDATA[comment ...]]></desc>
    <extensions>
      <line xmlns="http://www.topografix.com/GPX/gpx_style/0/2">
        <color>0000FF</color>
        <width>4</width>
      </line>
    </extensions>
    <trkseg>
      <trkpt lat="45.67859" lon="6.57817">
        <ele>1246</ele>
        <time>2023-01-29T08:31:18Z</time>
      </trkpt>
      <trkpt lat="45.67859" lon="6.57817">
        <ele>1246</ele>
        <time>2023-01-29T08:31:19Z</time>
      </trkpt>
      <trkpt lat="45.67858" lon="6.57819">
        <ele>1246</ele>
        <time>2023-01-29T08:31:45Z</time>
      </trkpt>
      <trkpt lat="45.67856" lon="6.5782">
        <ele>1246</ele>
        <time>2023-01-29T08:31:48Z</time>
      </trkpt>
      <trkpt lat="45.6786" lon="6.57824">
        <ele>1246</ele>
        <time>2023-01-29T08:32:21Z</time>
      </trkpt>
      <trkpt lat="45.67859" lon="6.57825">
        <ele>1246</ele>
        <time>2023-01-29T08:32:38Z</time>
      </trkpt>
      <trkpt lat="45.67859" lon="6.57827">
        <ele>1245</ele>
        <time>2023-01-29T08:33:07Z</time>
      </trkpt>
      <trkpt lat="45.67861" lon="6.57826">
        <ele>1247</ele>
        <time>2023-01-29T08:33:59Z</time>
      </trkpt>
      <trkpt lat="45.67859" lon="6.57823">
        <ele>1249</ele>
        <time>2023-01-29T08:34:43Z</time>
      </trkpt>
      <trkpt lat="45.67856" lon="6.57824">
        <ele>1247</ele>
        <time>2023-01-29T08:35:15Z</time>
      </trkpt>
      <trkpt lat="45.67855" lon="6.57821">
        <ele>1247</ele>
        <time>2023-01-29T08:36:07Z</time>
      </trkpt>
      <trkpt lat="45.67853" lon="6.57819">
        <ele>1248</ele>
        <time>2023-01-29T08:36:09Z</time>
      </trkpt>
      <trkpt lat="45.67847" lon="6.57818">
        <ele>1249</ele>
        <time>2023-01-29T08:36:14Z</time>
      </trkpt>
      <trkpt lat="45.67844" lon="6.57816">
        <ele>1250</ele>
        <time>2023-01-29T08:36:17Z</time>
      </trkpt>
      <trkpt lat="45.67842" lon="6.57816">
        <ele>1250</ele>
        <time>2023-01-29T08:36:19Z</time>
      </trkpt>
      <trkpt lat="45.67837" lon="6.57814">
        <ele>1250</ele>
        <time>2023-01-29T08:36:23Z</time>
      </trkpt>
      <trkpt lat="45.67834" lon="6.57814">
        <ele>1250</ele>
        <time>2023-01-29T08:36:26Z</time>
      </trkpt>
      <trkpt lat="45.67824" lon="6.57812">
        <ele>1251</ele>
        <time>2023-01-29T08:36:35Z</time>
      </trkpt>
      <trkpt lat="45.67813" lon="6.57812">
        <ele>1252</ele>
        <time>2023-01-29T08:36:45Z</time>
      </trkpt>
      <trkpt lat="45.67809" lon="6.57813">
        <ele>1252</ele>
        <time>2023-01-29T08:36:49Z</time>
      </trkpt>
      <trkpt lat="45.67805" lon="6.57812">
        <ele>1252</ele>
        <time>2023-01-29T08:36:53Z</time>
      </trkpt>
      <trkpt lat="45.67799" lon="6.57809">
        <ele>1253</ele>
        <time>2023-01-29T08:36:59Z</time>
      </trkpt>
      <trkpt lat="45.67793" lon="6.57807">
        <ele>1255</ele>
        <time>2023-01-29T08:37:04Z</time>
      </trkpt>
      <trkpt lat="45.67787" lon="6.57806">
        <ele>1255</ele>
        <time>2023-01-29T08:37:09Z</time>
      </trkpt>
      <trkpt lat="45.67765" lon="6.57805">
        <ele>1257</ele>
        <time>2023-01-29T08:37:30Z</time>
      </trkpt>
      <trkpt lat="45.67759" lon="6.57805">
        <ele>1256</ele>
        <time>2023-01-29T08:37:36Z</time>
      </trkpt>
      <trkpt lat="45.67754" lon="6.57804">
        <ele>1257</ele>
        <time>2023-01-29T08:37:41Z</time>
      </trkpt>
      <trkpt lat="45.67752" lon="6.57805">
        <ele>1257</ele>
        <time>2023-01-29T08:37:43Z</time>
      </trkpt>
      <trkpt lat="45.67747" lon="6.57805">
        <ele>1258</ele>
        <time>2023-01-29T08:37:48Z</time>
      </trkpt>
      <trkpt lat="45.67734" lon="6.57807">
        <ele>1259</ele>
        <time>2023-01-29T08:38:00Z</time>
      </trkpt>
      <trkpt lat="45.67724" lon="6.57807">
        <ele>1261</ele>
        <time>2023-01-29T08:38:11Z</time>
      </trkpt>
      <trkpt lat="45.67719" lon="6.57807">
        <ele>1261</ele>
        <time>2023-01-29T08:38:15Z</time>
      </trkpt>
      <trkpt lat="45.67692" lon="6.57808">
        <ele>1264</ele>
        <time>2023-01-29T08:38:38Z</time>
      </trkpt>
      <trkpt lat="45.67687" lon="6.5781">
        <ele>1265</ele>
        <time>2023-01-29T08:38:43Z</time>
      </trkpt>
      <trkpt lat="45.67678" lon="6.5781">
        <ele>1264</ele>
        <time>2023-01-29T08:38:50Z</time>
      </trkpt>
      <trkpt lat="45.6767" lon="6.57814">
        <ele>1266</ele>
        <time>2023-01-29T08:38:59Z</time>
      </trkpt>
      <trkpt lat="45.67661" lon="6.57818">
        <ele>1266</ele>
        <time>2023-01-29T08:39:07Z</time>
      </trkpt>
      <trkpt lat="45.67641" lon="6.57822">
        <ele>1268</ele>
        <time>2023-01-29T08:39:26Z</time>
      </trkpt>
      <trkpt lat="45.67639" lon="6.57824">
        <ele>1269</ele>
        <time>2023-01-29T08:39:28Z</time>
      </trkpt>
      <trkpt lat="45.67637" lon="6.57824">
        <ele>1268</ele>
        <time>2023-01-29T08:39:30Z</time>
      </trkpt>
      <trkpt lat="45.6763" lon="6.57827">
        <ele>1269</ele>
        <time>2023-01-29T08:39:36Z</time>
      </trkpt>
      <trkpt lat="45.67628" lon="6.57829">
        <ele>1269</ele>
        <time>2023-01-29T08:39:38Z</time>
      </trkpt>
      <trkpt lat="45.67626" lon="6.57831">
        <ele>1269</ele>
        <time>2023-01-29T08:39:41Z</time>
      </trkpt>
      <trkpt lat="45.67623" lon="6.57831">
        <ele>1269</ele>
        <time>2023-01-29T08:39:43Z</time>
      </trkpt>
      <trkpt lat="45.67621" lon="6.57832">
        <ele>1269</ele>
        <time>2023-01-29T08:39:45Z</time>
      </trkpt>
      <trkpt lat="45.67618" lon="6.57834">
        <ele>1269</ele>
        <time>2023-01-29T08:39:48Z</time>
      </trkpt>
      <trkpt lat="45.67616" lon="6.57835">
        <ele>1269</ele>
        <time>2023-01-29T08:39:50Z</time>
      </trkpt>
      <trkpt lat="45.67608" lon="6.57835">
        <ele>1270</ele>
        <time>2023-01-29T08:39:57Z</time>
      </trkpt>
      <trkpt lat="45.67606" lon="6.57836">
        <ele>1270</ele>
        <time>2023-01-29T08:39:59Z</time>
      </trkpt>
      <trkpt lat="45.67602" lon="6.57838">
        <ele>1272</ele>
        <time>2023-01-29T08:40:03Z</time>
      </trkpt>
      <trkpt lat="45.67581" lon="6.57839">
        <ele>1275</ele>
        <time>2023-01-29T08:40:22Z</time>
      </trkpt>
      <trkpt lat="45.67579" lon="6.57838">
        <ele>1275</ele>
        <time>2023-01-29T08:40:24Z</time>
      </trkpt>
      <trkpt lat="45.67574" lon="6.57841">
        <ele>1277</ele>
        <time>2023-01-29T08:40:32Z</time>
      </trkpt>
      <trkpt lat="45.67545" lon="6.5785">
        <ele>1280</ele>
        <time>2023-01-29T08:40:58Z</time>
      </trkpt>
      <trkpt lat="45.6754" lon="6.57851">
        <ele>1280</ele>
        <time>2023-01-29T08:41:02Z</time>
      </trkpt>
      <trkpt lat="45.67524" lon="6.57861">
        <ele>1284</ele>
        <time>2023-01-29T08:41:17Z</time>
      </trkpt>
      <trkpt lat="45.6751" lon="6.57875">
        <ele>1286</ele>
        <time>2023-01-29T08:41:36Z</time>
      </trkpt>
      <trkpt lat="45.67507" lon="6.57877">
        <ele>1286</ele>
        <time>2023-01-29T08:41:38Z</time>
      </trkpt>
      <trkpt lat="45.67505" lon="6.57878">
        <ele>1287</ele>
        <time>2023-01-29T08:41:41Z</time>
      </trkpt>
      <trkpt lat="45.67502" lon="6.57877">
        <ele>1288</ele>
        <time>2023-01-29T08:41:43Z</time>
      </trkpt>
      <trkpt lat="45.67497" lon="6.5788">
        <ele>1288</ele>
        <time>2023-01-29T08:41:49Z</time>
      </trkpt>
      <trkpt lat="45.67494" lon="6.57881">
        <ele>1288</ele>
        <time>2023-01-29T08:41:52Z</time>
      </trkpt>
      <trkpt lat="45.67488" lon="6.57884">
        <ele>1289</ele>
        <time>2023-01-29T08:41:58Z</time>
      </trkpt>
      <trkpt lat="45.67483" lon="6.5789">
        <ele>1289</ele>
        <time>2023-01-29T08:42:05Z</time>
      </trkpt>
      <trkpt lat="45.67478" lon="6.57891">
        <ele>1290</ele>
        <time>2023-01-29T08:42:09Z</time>
      </trkpt>
      <trkpt lat="45.67472" lon="6.57894">
        <ele>1291</ele>
        <time>2023-01-29T08:42:15Z</time>
      </trkpt>
      <trkpt lat="45.67469" lon="6.57898">
        <ele>1292</ele>
        <time>2023-01-29T08:42:22Z</time>
      </trkpt>
      <trkpt lat="45.67443" lon="6.57913">
        <ele>1294</ele>
        <time>2023-01-29T08:42:52Z</time>
      </trkpt>
      <trkpt lat="45.6744" lon="6.57915">
        <ele>1295</ele>
        <time>2023-01-29T08:42:54Z</time>
      </trkpt>
      <trkpt lat="45.67428" lon="6.57923">
        <ele>1295</ele>
        <time>2023-01-29T08:43:05Z</time>
      </trkpt>
      <trkpt lat="45.67416" lon="6.57927">
        <ele>1296</ele>
        <time>2023-01-29T08:43:15Z</time>
      </trkpt>
      <trkpt lat="45.67413" lon="6.57928">
        <ele>1296</ele>
        <time>2023-01-29T08:43:18Z</time>
      </trkpt>
      <trkpt lat="45.67405" lon="6.57927">
        <ele>1297</ele>
        <time>2023-01-29T08:43:26Z</time>
      </trkpt>
      <trkpt lat="45.674" lon="6.57928">
        <ele>1297</ele>
        <time>2023-01-29T08:43:30Z</time>
      </trkpt>
      <trkpt lat="45.67397" lon="6.57928">
        <ele>1298</ele>
        <time>2023-01-29T08:43:32Z</time>
      </trkpt>
      <trkpt lat="45.67392" lon="6.57929">
        <ele>1298</ele>
        <time>2023-01-29T08:43:37Z</time>
      </trkpt>
      <trkpt lat="45.6739" lon="6.57931">
        <ele>1299</ele>
        <time>2023-01-29T08:43:39Z</time>
      </trkpt>
      <trkpt lat="45.6738" lon="6.57935">
        <ele>1300</ele>
        <time>2023-01-29T08:43:48Z</time>
      </trkpt>
      <trkpt lat="45.6737" lon="6.57942">
        <ele>1303</ele>
        <time>2023-01-29T08:43:58Z</time>
      </trkpt>
      <trkpt lat="45.67367" lon="6.57942">
        <ele>1302</ele>
        <time>2023-01-29T08:44:02Z</time>
      </trkpt>
      <trkpt lat="45.6736" lon="6.57945">
        <ele>1303</ele>
        <time>2023-01-29T08:44:08Z</time>
      </trkpt>
      <trkpt lat="45.67332" lon="6.57957">
        <ele>1306</ele>
        <time>2023-01-29T08:44:36Z</time>
      </trkpt>
      <trkpt lat="45.67326" lon="6.57961">
        <ele>1308</ele>
        <time>2023-01-29T08:44:42Z</time>
      </trkpt>
      <trkpt lat="45.67317" lon="6.57962">
        <ele>1310</ele>
        <time>2023-01-29T08:44:50Z</time>
      </trkpt>
      <trkpt lat="45.67315" lon="6.57963">
        <ele>1310</ele>
        <time>2023-01-29T08:44:52Z</time>
      </trkpt>
      <trkpt lat="45.67312" lon="6.57965">
        <ele>1310</ele>
        <time>2023-01-29T08:44:55Z</time>
      </trkpt>
      <trkpt lat="45.67307" lon="6.57962">
        <ele>1311</ele>
        <time>2023-01-29T08:45:01Z</time>
      </trkpt>
      <trkpt lat="45.67306" lon="6.5796">
        <ele>1316</ele>
        <time>2023-01-29T08:45:30Z</time>
      </trkpt>
      <trkpt lat="45.67305" lon="6.5796">
        <ele>1316</ele>
        <time>2023-01-29T08:45:42Z</time>
      </trkpt>
      <trkpt lat="45.67303" lon="6.57962">
        <ele>1316</ele>
        <time>2023-01-29T08:45:46Z</time>
      </trkpt>
      <trkpt lat="45.67301" lon="6.57962">
        <ele>1314</ele>
        <time>2023-01-29T08:46:54Z</time>
      </trkpt>
      <trkpt lat="45.67299" lon="6.57963">
        <ele>1315</ele>
        <time>2023-01-29T08:46:58Z</time>
      </trkpt>
      <trkpt lat="45.67295" lon="6.57964">
        <ele>1314</ele>
        <time>2023-01-29T08:47:05Z</time>
      </trkpt>
      <trkpt lat="45.6729" lon="6.57968">
        <ele>1314</ele>
        <time>2023-01-29T08:47:11Z</time>
      </trkpt>
      <trkpt lat="45.67288" lon="6.5797">
        <ele>1314</ele>
        <time>2023-01-29T08:47:15Z</time>
      </trkpt>
      <trkpt lat="45.67287" lon="6.57972">
        <ele>1314</ele>
        <time>2023-01-29T08:47:38Z</time>
      </trkpt>
      <trkpt lat="45.67289" lon="6.57974">
        <ele>1316</ele>
        <time>2023-01-29T08:51:31Z</time>
      </trkpt>
      <trkpt lat="45.6729" lon="6.57973">
        <ele>1321</ele>
        <time>2023-01-29T08:53:30Z</time>
      </trkpt>
      <trkpt lat="45.67287" lon="6.57972">
        <ele>1320</ele>
        <time>2023-01-29T08:53:43Z</time>
      </trkpt>
      <trkpt lat="45.67285" lon="6.5797">
        <ele>1320</ele>
        <time>2023-01-29T08:53:49Z</time>
      </trkpt>
      <trkpt lat="45.67282" lon="6.57971">
        <ele>1319</ele>
        <time>2023-01-29T08:54:01Z</time>
      </trkpt>
      <trkpt lat="45.67277" lon="6.5797">
        <ele>1319</ele>
        <time>2023-01-29T08:54:08Z</time>
      </trkpt>
      <trkpt lat="45.67275" lon="6.5797">
        <ele>1319</ele>
        <time>2023-01-29T08:54:32Z</time>
      </trkpt>
      <trkpt lat="45.67273" lon="6.57967">
        <ele>1320</ele>
        <time>2023-01-29T08:54:35Z</time>
      </trkpt>
      <trkpt lat="45.67267" lon="6.57967">
        <ele>1321</ele>
        <time>2023-01-29T08:54:42Z</time>
      </trkpt>
      <trkpt lat="45.67264" lon="6.57967">
        <ele>1321</ele>
        <time>2023-01-29T08:54:45Z</time>
      </trkpt>
      <trkpt lat="45.67261" lon="6.57967">
        <ele>1321</ele>
        <time>2023-01-29T08:54:49Z</time>
      </trkpt>
      <trkpt lat="45.67258" lon="6.57969">
        <ele>1321</ele>
        <time>2023-01-29T08:54:51Z</time>
      </trkpt>
      <trkpt lat="45.67249" lon="6.57966">
        <ele>1323</ele>
        <time>2023-01-29T08:55:06Z</time>
      </trkpt>
      <trkpt lat="45.67242" lon="6.57958">
        <ele>1328</ele>
        <time>2023-01-29T08:55:19Z</time>
      </trkpt>
      <trkpt lat="45.67236" lon="6.57955">
        <ele>1329</ele>
        <time>2023-01-29T08:55:25Z</time>
      </trkpt>
      <trkpt lat="45.67234" lon="6.57952">
        <ele>1328</ele>
        <time>2023-01-29T08:55:29Z</time>
      </trkpt>
      <trkpt lat="45.67231" lon="6.57951">
        <ele>1329</ele>
        <time>2023-01-29T08:55:35Z</time>
      </trkpt>
      <trkpt lat="45.67229" lon="6.57948">
        <ele>1330</ele>
        <time>2023-01-29T08:55:39Z</time>
      </trkpt>
      <trkpt lat="45.67227" lon="6.57945">
        <ele>1332</ele>
        <time>2023-01-29T08:55:43Z</time>
      </trkpt>
      <trkpt lat="45.67217" lon="6.5793">
        <ele>1333</ele>
        <time>2023-01-29T08:56:03Z</time>
      </trkpt>
      <trkpt lat="45.67216" lon="6.57926">
        <ele>1334</ele>
        <time>2023-01-29T08:56:07Z</time>
      </trkpt>
      <trkpt lat="45.67213" lon="6.57923">
        <ele>1334</ele>
        <time>2023-01-29T08:56:11Z</time>
      </trkpt>
      <trkpt lat="45.67196" lon="6.57897">
        <ele>1336</ele>
        <time>2023-01-29T08:56:42Z</time>
      </trkpt>
      <trkpt lat="45.67175" lon="6.57876">
        <ele>1337</ele>
        <time>2023-01-29T08:57:12Z</time>
      </trkpt>
      <trkpt lat="45.6717" lon="6.57869">
        <ele>1339</ele>
        <time>2023-01-29T08:57:19Z</time>
      </trkpt>
      <trkpt lat="45.67153" lon="6.57843">
        <ele>1343</ele>
        <time>2023-01-29T08:57:51Z</time>
      </trkpt>
      <trkpt lat="45.67147" lon="6.57831">
        <ele>1347</ele>
        <time>2023-01-29T08:58:04Z</time>
      </trkpt>
      <trkpt lat="45.67125" lon="6.57809">
        <ele>1347</ele>
        <time>2023-01-29T08:58:32Z</time>
      </trkpt>
      <trkpt lat="45.67115" lon="6.57803">
        <ele>1348</ele>
        <time>2023-01-29T08:58:44Z</time>
      </trkpt>
      <trkpt lat="45.67112" lon="6.57803">
        <ele>1349</ele>
        <time>2023-01-29T08:58:47Z</time>
      </trkpt>
      <trkpt lat="45.67099" lon="6.57802">
        <ele>1349</ele>
        <time>2023-01-29T08:59:03Z</time>
      </trkpt>
      <trkpt lat="45.67097" lon="6.57803">
        <ele>1349</ele>
        <time>2023-01-29T08:59:07Z</time>
      </trkpt>
      <trkpt lat="45.67094" lon="6.57803">
        <ele>1350</ele>
        <time>2023-01-29T08:59:10Z</time>
      </trkpt>
      <trkpt lat="45.67091" lon="6.57802">
        <ele>1350</ele>
        <time>2023-01-29T08:59:14Z</time>
      </trkpt>
      <trkpt lat="45.67088" lon="6.57802">
        <ele>1349</ele>
        <time>2023-01-29T08:59:18Z</time>
      </trkpt>
      <trkpt lat="45.67082" lon="6.57805">
        <ele>1350</ele>
        <time>2023-01-29T08:59:24Z</time>
      </trkpt>
      <trkpt lat="45.67075" lon="6.57804">
        <ele>1351</ele>
        <time>2023-01-29T08:59:33Z</time>
      </trkpt>
      <trkpt lat="45.67072" lon="6.57806">
        <ele>1351</ele>
        <time>2023-01-29T08:59:37Z</time>
      </trkpt>
      <trkpt lat="45.67069" lon="6.57806">
        <ele>1350</ele>
        <time>2023-01-29T08:59:40Z</time>
      </trkpt>
      <trkpt lat="45.67066" lon="6.57805">
        <ele>1350</ele>
        <time>2023-01-29T08:59:44Z</time>
      </trkpt>
      <trkpt lat="45.6706" lon="6.57806">
        <ele>1351</ele>
        <time>2023-01-29T08:59:51Z</time>
      </trkpt>
      <trkpt lat="45.67057" lon="6.57804">
        <ele>1352</ele>
        <time>2023-01-29T08:59:55Z</time>
      </trkpt>
      <trkpt lat="45.67045" lon="6.57804">
        <ele>1353</ele>
        <time>2023-01-29T09:00:10Z</time>
      </trkpt>
      <trkpt lat="45.67043" lon="6.57802">
        <ele>1353</ele>
        <time>2023-01-29T09:00:13Z</time>
      </trkpt>
      <trkpt lat="45.6704" lon="6.57801">
        <ele>1354</ele>
        <time>2023-01-29T09:00:16Z</time>
      </trkpt>
      <trkpt lat="45.67037" lon="6.57799">
        <ele>1355</ele>
        <time>2023-01-29T09:00:24Z</time>
      </trkpt>
      <trkpt lat="45.67035" lon="6.578">
        <ele>1356</ele>
        <time>2023-01-29T09:00:27Z</time>
      </trkpt>
      <trkpt lat="45.6703" lon="6.57796">
        <ele>1357</ele>
        <time>2023-01-29T09:00:34Z</time>
      </trkpt>
      <trkpt lat="45.67027" lon="6.57797">
        <ele>1356</ele>
        <time>2023-01-29T09:00:37Z</time>
      </trkpt>
      <trkpt lat="45.67024" lon="6.57798">
        <ele>1357</ele>
        <time>2023-01-29T09:00:41Z</time>
      </trkpt>
      <trkpt lat="45.67018" lon="6.57796">
        <ele>1357</ele>
        <time>2023-01-29T09:00:47Z</time>
      </trkpt>
      <trkpt lat="45.66988" lon="6.57794">
        <ele>1359</ele>
        <time>2023-01-29T09:01:18Z</time>
      </trkpt>
      <trkpt lat="45.66964" lon="6.57799">
        <ele>1357</ele>
        <time>2023-01-29T09:01:42Z</time>
      </trkpt>
      <trkpt lat="45.6696" lon="6.57801">
        <ele>1358</ele>
        <time>2023-01-29T09:01:46Z</time>
      </trkpt>
      <trkpt lat="45.66954" lon="6.57802">
        <ele>1359</ele>
        <time>2023-01-29T09:01:52Z</time>
      </trkpt>
      <trkpt lat="45.66951" lon="6.57803">
        <ele>1360</ele>
        <time>2023-01-29T09:01:55Z</time>
      </trkpt>
      <trkpt lat="45.66947" lon="6.57804">
        <ele>1359</ele>
        <time>2023-01-29T09:01:59Z</time>
      </trkpt>
      <trkpt lat="45.66935" lon="6.5781">
        <ele>1359</ele>
        <time>2023-01-29T09:02:12Z</time>
      </trkpt>
      <trkpt lat="45.66933" lon="6.57811">
        <ele>1359</ele>
        <time>2023-01-29T09:02:14Z</time>
      </trkpt>
      <trkpt lat="45.66906" lon="6.57814">
        <ele>1362</ele>
        <time>2023-01-29T09:02:41Z</time>
      </trkpt>
      <trkpt lat="45.66896" lon="6.57816">
        <ele>1366</ele>
        <time>2023-01-29T09:02:51Z</time>
      </trkpt>
      <trkpt lat="45.66882" lon="6.57819">
        <ele>1371</ele>
        <time>2023-01-29T09:03:05Z</time>
      </trkpt>
      <trkpt lat="45.66848" lon="6.57814">
        <ele>1380</ele>
        <time>2023-01-29T09:03:36Z</time>
      </trkpt>
      <trkpt lat="45.66845" lon="6.57814">
        <ele>1380</ele>
        <time>2023-01-29T09:03:39Z</time>
      </trkpt>
      <trkpt lat="45.66842" lon="6.57814">
        <ele>1381</ele>
        <time>2023-01-29T09:03:42Z</time>
      </trkpt>
      <trkpt lat="45.66835" lon="6.57813">
        <ele>1382</ele>
        <time>2023-01-29T09:03:49Z</time>
      </trkpt>
      <trkpt lat="45.66822" lon="6.57806">
        <ele>1381</ele>
        <time>2023-01-29T09:04:00Z</time>
      </trkpt>
      <trkpt lat="45.66813" lon="6.57802">
        <ele>1381</ele>
        <time>2023-01-29T09:04:08Z</time>
      </trkpt>
      <trkpt lat="45.66808" lon="6.57798">
        <ele>1382</ele>
        <time>2023-01-29T09:04:14Z</time>
      </trkpt>
      <trkpt lat="45.66796" lon="6.57801">
        <ele>1383</ele>
        <time>2023-01-29T09:04:26Z</time>
      </trkpt>
      <trkpt lat="45.66791" lon="6.57801">
        <ele>1382</ele>
        <time>2023-01-29T09:04:30Z</time>
      </trkpt>
      <trkpt lat="45.66786" lon="6.57806">
        <ele>1382</ele>
        <time>2023-01-29T09:04:36Z</time>
      </trkpt>
      <trkpt lat="45.66784" lon="6.57808">
        <ele>1382</ele>
        <time>2023-01-29T09:04:39Z</time>
      </trkpt>
      <trkpt lat="45.66775" lon="6.57818">
        <ele>1378</ele>
        <time>2023-01-29T09:04:50Z</time>
      </trkpt>
      <trkpt lat="45.66745" lon="6.57826">
        <ele>1381</ele>
        <time>2023-01-29T09:05:16Z</time>
      </trkpt>
      <trkpt lat="45.66742" lon="6.57826">
        <ele>1382</ele>
        <time>2023-01-29T09:05:19Z</time>
      </trkpt>
      <trkpt lat="45.66731" lon="6.57831">
        <ele>1384</ele>
        <time>2023-01-29T09:05:30Z</time>
      </trkpt>
      <trkpt lat="45.66725" lon="6.57834">
        <ele>1384</ele>
        <time>2023-01-29T09:05:36Z</time>
      </trkpt>
      <trkpt lat="45.66722" lon="6.57835">
        <ele>1384</ele>
        <time>2023-01-29T09:05:39Z</time>
      </trkpt>
      <trkpt lat="45.66719" lon="6.57838">
        <ele>1383</ele>
        <time>2023-01-29T09:05:42Z</time>
      </trkpt>
      <trkpt lat="45.66691" lon="6.57844">
        <ele>1384</ele>
        <time>2023-01-29T09:06:06Z</time>
      </trkpt>
      <trkpt lat="45.66689" lon="6.57845">
        <ele>1384</ele>
        <time>2023-01-29T09:06:08Z</time>
      </trkpt>
      <trkpt lat="45.66685" lon="6.57845">
        <ele>1384</ele>
        <time>2023-01-29T09:06:11Z</time>
      </trkpt>
      <trkpt lat="45.66682" lon="6.57847">
        <ele>1384</ele>
        <time>2023-01-29T09:06:14Z</time>
      </trkpt>
      <trkpt lat="45.66676" lon="6.57848">
        <ele>1386</ele>
        <time>2023-01-29T09:06:19Z</time>
      </trkpt>
      <trkpt lat="45.66673" lon="6.57851">
        <ele>1386</ele>
        <time>2023-01-29T09:06:22Z</time>
      </trkpt>
      <trkpt lat="45.66666" lon="6.57854">
        <ele>1387</ele>
        <time>2023-01-29T09:06:29Z</time>
      </trkpt>
      <trkpt lat="45.66656" lon="6.57858">
        <ele>1390</ele>
        <time>2023-01-29T09:06:40Z</time>
      </trkpt>
      <trkpt lat="45.6665" lon="6.57858">
        <ele>1391</ele>
        <time>2023-01-29T09:06:45Z</time>
      </trkpt>
      <trkpt lat="45.66646" lon="6.57858">
        <ele>1391</ele>
        <time>2023-01-29T09:06:48Z</time>
      </trkpt>
      <trkpt lat="45.66637" lon="6.57859">
        <ele>1394</ele>
        <time>2023-01-29T09:06:57Z</time>
      </trkpt>
      <trkpt lat="45.66634" lon="6.5786">
        <ele>1395</ele>
        <time>2023-01-29T09:06:59Z</time>
      </trkpt>
      <trkpt lat="45.6663" lon="6.5786">
        <ele>1395</ele>
        <time>2023-01-29T09:07:02Z</time>
      </trkpt>
      <trkpt lat="45.66627" lon="6.57862">
        <ele>1396</ele>
        <time>2023-01-29T09:07:05Z</time>
      </trkpt>
      <trkpt lat="45.66621" lon="6.57864">
        <ele>1396</ele>
        <time>2023-01-29T09:07:10Z</time>
      </trkpt>
      <trkpt lat="45.66618" lon="6.57868">
        <ele>1397</ele>
        <time>2023-01-29T09:07:13Z</time>
      </trkpt>
      <trkpt lat="45.66616" lon="6.57869">
        <ele>1397</ele>
        <time>2023-01-29T09:07:15Z</time>
      </trkpt>
      <trkpt lat="45.66601" lon="6.57872">
        <ele>1397</ele>
        <time>2023-01-29T09:07:27Z</time>
      </trkpt>
      <trkpt lat="45.66593" lon="6.57876">
        <ele>1398</ele>
        <time>2023-01-29T09:07:35Z</time>
      </trkpt>
      <trkpt lat="45.66576" lon="6.57883">
        <ele>1400</ele>
        <time>2023-01-29T09:07:51Z</time>
      </trkpt>
      <trkpt lat="45.66573" lon="6.57887">
        <ele>1401</ele>
        <time>2023-01-29T09:07:55Z</time>
      </trkpt>
      <trkpt lat="45.6657" lon="6.57887">
        <ele>1401</ele>
        <time>2023-01-29T09:07:57Z</time>
      </trkpt>
      <trkpt lat="45.66564" lon="6.57892">
        <ele>1401</ele>
        <time>2023-01-29T09:08:03Z</time>
      </trkpt>
      <trkpt lat="45.66532" lon="6.57903">
        <ele>1405</ele>
        <time>2023-01-29T09:08:33Z</time>
      </trkpt>
      <trkpt lat="45.66529" lon="6.57903">
        <ele>1405</ele>
        <time>2023-01-29T09:08:36Z</time>
      </trkpt>
      <trkpt lat="45.66521" lon="6.57904">
        <ele>1406</ele>
        <time>2023-01-29T09:08:43Z</time>
      </trkpt>
      <trkpt lat="45.66509" lon="6.57904">
        <ele>1408</ele>
        <time>2023-01-29T09:08:55Z</time>
      </trkpt>
      <trkpt lat="45.66503" lon="6.57905">
        <ele>1408</ele>
        <time>2023-01-29T09:09:01Z</time>
      </trkpt>
      <trkpt lat="45.66501" lon="6.57907">
        <ele>1408</ele>
        <time>2023-01-29T09:09:03Z</time>
      </trkpt>
      <trkpt lat="45.66471" lon="6.57921">
        <ele>1410</ele>
        <time>2023-01-29T09:09:32Z</time>
      </trkpt>
      <trkpt lat="45.66465" lon="6.57926">
        <ele>1410</ele>
        <time>2023-01-29T09:09:38Z</time>
      </trkpt>
      <trkpt lat="45.66463" lon="6.57926">
        <ele>1410</ele>
        <time>2023-01-29T09:09:40Z</time>
      </trkpt>
      <trkpt lat="45.66461" lon="6.57927">
        <ele>1410</ele>
        <time>2023-01-29T09:09:42Z</time>
      </trkpt>
      <trkpt lat="45.66453" lon="6.57928">
        <ele>1409</ele>
        <time>2023-01-29T09:09:49Z</time>
      </trkpt>
      <trkpt lat="45.6645" lon="6.57927">
        <ele>1409</ele>
        <time>2023-01-29T09:09:53Z</time>
      </trkpt>
      <trkpt lat="45.66448" lon="6.57925">
        <ele>1409</ele>
        <time>2023-01-29T09:11:39Z</time>
      </trkpt>
      <trkpt lat="45.66435" lon="6.57921">
        <ele>1411</ele>
        <time>2023-01-29T09:11:54Z</time>
      </trkpt>
      <trkpt lat="45.66429" lon="6.57921">
        <ele>1413</ele>
        <time>2023-01-29T09:12:00Z</time>
      </trkpt>
      <trkpt lat="45.664" lon="6.57913">
        <ele>1415</ele>
        <time>2023-01-29T09:12:26Z</time>
      </trkpt>
      <trkpt lat="45.66397" lon="6.57914">
        <ele>1416</ele>
        <time>2023-01-29T09:12:29Z</time>
      </trkpt>
      <trkpt lat="45.66393" lon="6.57914">
        <ele>1416</ele>
        <time>2023-01-29T09:12:32Z</time>
      </trkpt>
      <trkpt lat="45.66367" lon="6.57912">
        <ele>1418</ele>
        <time>2023-01-29T09:12:55Z</time>
      </trkpt>
      <trkpt lat="45.66362" lon="6.57909">
        <ele>1419</ele>
        <time>2023-01-29T09:12:59Z</time>
      </trkpt>
      <trkpt lat="45.66359" lon="6.57911">
        <ele>1419</ele>
        <time>2023-01-29T09:13:02Z</time>
      </trkpt>
      <trkpt lat="45.66356" lon="6.57911">
        <ele>1419</ele>
        <time>2023-01-29T09:13:05Z</time>
      </trkpt>
      <trkpt lat="45.66341" lon="6.57905">
        <ele>1418</ele>
        <time>2023-01-29T09:13:18Z</time>
      </trkpt>
      <trkpt lat="45.66338" lon="6.57902">
        <ele>1419</ele>
        <time>2023-01-29T09:13:21Z</time>
      </trkpt>
      <trkpt lat="45.66331" lon="6.57899">
        <ele>1420</ele>
        <time>2023-01-29T09:13:27Z</time>
      </trkpt>
      <trkpt lat="45.66318" lon="6.57897">
        <ele>1422</ele>
        <time>2023-01-29T09:13:40Z</time>
      </trkpt>
      <trkpt lat="45.66312" lon="6.57898">
        <ele>1423</ele>
        <time>2023-01-29T09:13:48Z</time>
      </trkpt>
      <trkpt lat="45.66302" lon="6.5789">
        <ele>1423</ele>
        <time>2023-01-29T09:13:57Z</time>
      </trkpt>
      <trkpt lat="45.663" lon="6.57888">
        <ele>1423</ele>
        <time>2023-01-29T09:13:59Z</time>
      </trkpt>
      <trkpt lat="45.66287" lon="6.57875">
        <ele>1424</ele>
        <time>2023-01-29T09:14:13Z</time>
      </trkpt>
      <trkpt lat="45.66254" lon="6.57857">
        <ele>1428</ele>
        <time>2023-01-29T09:14:44Z</time>
      </trkpt>
      <trkpt lat="45.66253" lon="6.57855">
        <ele>1427</ele>
        <time>2023-01-29T09:14:46Z</time>
      </trkpt>
      <trkpt lat="45.6625" lon="6.57854">
        <ele>1427</ele>
        <time>2023-01-29T09:14:48Z</time>
      </trkpt>
      <trkpt lat="45.66248" lon="6.57853">
        <ele>1428</ele>
        <time>2023-01-29T09:14:51Z</time>
      </trkpt>
      <trkpt lat="45.66245" lon="6.57853">
        <ele>1428</ele>
        <time>2023-01-29T09:14:53Z</time>
      </trkpt>
      <trkpt lat="45.66243" lon="6.57852">
        <ele>1428</ele>
        <time>2023-01-29T09:14:56Z</time>
      </trkpt>
      <trkpt lat="45.6624" lon="6.57851">
        <ele>1429</ele>
        <time>2023-01-29T09:14:59Z</time>
      </trkpt>
      <trkpt lat="45.66237" lon="6.57851">
        <ele>1430</ele>
        <time>2023-01-29T09:15:02Z</time>
      </trkpt>
      <trkpt lat="45.66235" lon="6.5785">
        <ele>1430</ele>
        <time>2023-01-29T09:15:04Z</time>
      </trkpt>
      <trkpt lat="45.66226" lon="6.5785">
        <ele>1431</ele>
        <time>2023-01-29T09:15:11Z</time>
      </trkpt>
      <trkpt lat="45.66207" lon="6.57855">
        <ele>1431</ele>
        <time>2023-01-29T09:15:29Z</time>
      </trkpt>
      <trkpt lat="45.66205" lon="6.57858">
        <ele>1432</ele>
        <time>2023-01-29T09:15:32Z</time>
      </trkpt>
      <trkpt lat="45.66196" lon="6.57864">
        <ele>1433</ele>
        <time>2023-01-29T09:15:42Z</time>
      </trkpt>
      <trkpt lat="45.66173" lon="6.57874">
        <ele>1437</ele>
        <time>2023-01-29T09:16:05Z</time>
      </trkpt>
      <trkpt lat="45.66166" lon="6.57874">
        <ele>1439</ele>
        <time>2023-01-29T09:16:11Z</time>
      </trkpt>
      <trkpt lat="45.6616" lon="6.57872">
        <ele>1439</ele>
        <time>2023-01-29T09:16:17Z</time>
      </trkpt>
      <trkpt lat="45.66157" lon="6.57872">
        <ele>1439</ele>
        <time>2023-01-29T09:16:20Z</time>
      </trkpt>
      <trkpt lat="45.66155" lon="6.5787">
        <ele>1439</ele>
        <time>2023-01-29T09:16:23Z</time>
      </trkpt>
      <trkpt lat="45.66148" lon="6.57868">
        <ele>1438</ele>
        <time>2023-01-29T09:16:30Z</time>
      </trkpt>
      <trkpt lat="45.66145" lon="6.57866">
        <ele>1439</ele>
        <time>2023-01-29T09:16:34Z</time>
      </trkpt>
      <trkpt lat="45.66142" lon="6.57865">
        <ele>1440</ele>
        <time>2023-01-29T09:16:37Z</time>
      </trkpt>
      <trkpt lat="45.66139" lon="6.57863">
        <ele>1442</ele>
        <time>2023-01-29T09:16:42Z</time>
      </trkpt>
      <trkpt lat="45.66137" lon="6.57862">
        <ele>1442</ele>
        <time>2023-01-29T09:16:45Z</time>
      </trkpt>
      <trkpt lat="45.66112" lon="6.57841">
        <ele>1441</ele>
        <time>2023-01-29T09:17:17Z</time>
      </trkpt>
      <trkpt lat="45.66108" lon="6.57836">
        <ele>1441</ele>
        <time>2023-01-29T09:17:25Z</time>
      </trkpt>
      <trkpt lat="45.66097" lon="6.57824">
        <ele>1441</ele>
        <time>2023-01-29T09:17:39Z</time>
      </trkpt>
      <trkpt lat="45.66094" lon="6.57821">
        <ele>1441</ele>
        <time>2023-01-29T09:17:41Z</time>
      </trkpt>
      <trkpt lat="45.66089" lon="6.57812">
        <ele>1441</ele>
        <time>2023-01-29T09:17:46Z</time>
      </trkpt>
      <trkpt lat="45.66085" lon="6.57809">
        <ele>1441</ele>
        <time>2023-01-29T09:17:49Z</time>
      </trkpt>
      <trkpt lat="45.66075" lon="6.57799">
        <ele>1439</ele>
        <time>2023-01-29T09:18:00Z</time>
      </trkpt>
      <trkpt lat="45.66069" lon="6.57795">
        <ele>1439</ele>
        <time>2023-01-29T09:18:05Z</time>
      </trkpt>
      <trkpt lat="45.66066" lon="6.57795">
        <ele>1438</ele>
        <time>2023-01-29T09:18:08Z</time>
      </trkpt>
      <trkpt lat="45.66064" lon="6.57793">
        <ele>1438</ele>
        <time>2023-01-29T09:18:11Z</time>
      </trkpt>
      <trkpt lat="45.66058" lon="6.57791">
        <ele>1438</ele>
        <time>2023-01-29T09:18:16Z</time>
      </trkpt>
      <trkpt lat="45.66038" lon="6.57798">
        <ele>1441</ele>
        <time>2023-01-29T09:18:36Z</time>
      </trkpt>
      <trkpt lat="45.66035" lon="6.578">
        <ele>1442</ele>
        <time>2023-01-29T09:18:39Z</time>
      </trkpt>
      <trkpt lat="45.66029" lon="6.57801">
        <ele>1442</ele>
        <time>2023-01-29T09:18:45Z</time>
      </trkpt>
      <trkpt lat="45.66026" lon="6.57802">
        <ele>1442</ele>
        <time>2023-01-29T09:18:48Z</time>
      </trkpt>
      <trkpt lat="45.66024" lon="6.57804">
        <ele>1443</ele>
        <time>2023-01-29T09:18:51Z</time>
      </trkpt>
      <trkpt lat="45.66013" lon="6.57804">
        <ele>1444</ele>
        <time>2023-01-29T09:19:00Z</time>
      </trkpt>
      <trkpt lat="45.66008" lon="6.57808">
        <ele>1445</ele>
        <time>2023-01-29T09:19:05Z</time>
      </trkpt>
      <trkpt lat="45.66005" lon="6.5781">
        <ele>1446</ele>
        <time>2023-01-29T09:19:08Z</time>
      </trkpt>
      <trkpt lat="45.66004" lon="6.57813">
        <ele>1447</ele>
        <time>2023-01-29T09:19:11Z</time>
      </trkpt>
      <trkpt lat="45.66002" lon="6.57813">
        <ele>1448</ele>
        <time>2023-01-29T09:19:14Z</time>
      </trkpt>
      <trkpt lat="45.66" lon="6.57814">
        <ele>1450</ele>
        <time>2023-01-29T09:19:17Z</time>
      </trkpt>
      <trkpt lat="45.65997" lon="6.57818">
        <ele>1450</ele>
        <time>2023-01-29T09:19:22Z</time>
      </trkpt>
      <trkpt lat="45.65994" lon="6.57818">
        <ele>1450</ele>
        <time>2023-01-29T09:19:27Z</time>
      </trkpt>
      <trkpt lat="45.65986" lon="6.57854">
        <ele>1450</ele>
        <time>2023-01-29T09:19:58Z</time>
      </trkpt>
      <trkpt lat="45.65979" lon="6.57873">
        <ele>1453</ele>
        <time>2023-01-29T09:20:13Z</time>
      </trkpt>
      <trkpt lat="45.65976" lon="6.57879">
        <ele>1454</ele>
        <time>2023-01-29T09:20:18Z</time>
      </trkpt>
      <trkpt lat="45.6597" lon="6.57885">
        <ele>1456</ele>
        <time>2023-01-29T09:20:25Z</time>
      </trkpt>
      <trkpt lat="45.65934" lon="6.57895">
        <ele>1448</ele>
        <time>2023-01-29T09:20:55Z</time>
      </trkpt>
      <trkpt lat="45.65912" lon="6.57895">
        <ele>1449</ele>
        <time>2023-01-29T09:21:15Z</time>
      </trkpt>
      <trkpt lat="45.65905" lon="6.57895">
        <ele>1449</ele>
        <time>2023-01-29T09:21:21Z</time>
      </trkpt>
      <trkpt lat="45.65886" lon="6.57899">
        <ele>1449</ele>
        <time>2023-01-29T09:21:40Z</time>
      </trkpt>
      <trkpt lat="45.65876" lon="6.57905">
        <ele>1455</ele>
        <time>2023-01-29T09:21:54Z</time>
      </trkpt>
      <trkpt lat="45.65872" lon="6.57912">
        <ele>1458</ele>
        <time>2023-01-29T09:22:02Z</time>
      </trkpt>
      <trkpt lat="45.65869" lon="6.57912">
        <ele>1460</ele>
        <time>2023-01-29T09:22:05Z</time>
      </trkpt>
      <trkpt lat="45.65857" lon="6.57925">
        <ele>1460</ele>
        <time>2023-01-29T09:22:23Z</time>
      </trkpt>
      <trkpt lat="45.65855" lon="6.57927">
        <ele>1460</ele>
        <time>2023-01-29T09:22:27Z</time>
      </trkpt>
      <trkpt lat="45.6585" lon="6.57933">
        <ele>1461</ele>
        <time>2023-01-29T09:22:38Z</time>
      </trkpt>
      <trkpt lat="45.65847" lon="6.57942">
        <ele>1464</ele>
        <time>2023-01-29T09:22:48Z</time>
      </trkpt>
      <trkpt lat="45.65845" lon="6.57943">
        <ele>1464</ele>
        <time>2023-01-29T09:22:50Z</time>
      </trkpt>
      <trkpt lat="45.65841" lon="6.57945">
        <ele>1465</ele>
        <time>2023-01-29T09:22:55Z</time>
      </trkpt>
      <trkpt lat="45.65838" lon="6.57946">
        <ele>1465</ele>
        <time>2023-01-29T09:22:58Z</time>
      </trkpt>
      <trkpt lat="45.65836" lon="6.57946">
        <ele>1464</ele>
        <time>2023-01-29T09:23:01Z</time>
      </trkpt>
      <trkpt lat="45.65834" lon="6.57949">
        <ele>1464</ele>
        <time>2023-01-29T09:23:05Z</time>
      </trkpt>
      <trkpt lat="45.6583" lon="6.5795">
        <ele>1463</ele>
        <time>2023-01-29T09:23:09Z</time>
      </trkpt>
      <trkpt lat="45.65827" lon="6.5795">
        <ele>1463</ele>
        <time>2023-01-29T09:23:12Z</time>
      </trkpt>
      <trkpt lat="45.65824" lon="6.57949">
        <ele>1464</ele>
        <time>2023-01-29T09:23:17Z</time>
      </trkpt>
      <trkpt lat="45.65821" lon="6.57948">
        <ele>1464</ele>
        <time>2023-01-29T09:23:26Z</time>
      </trkpt>
      <trkpt lat="45.65819" lon="6.5795">
        <ele>1462</ele>
        <time>2023-01-29T09:23:30Z</time>
      </trkpt>
      <trkpt lat="45.65816" lon="6.57955">
        <ele>1464</ele>
        <time>2023-01-29T09:23:36Z</time>
      </trkpt>
      <trkpt lat="45.65814" lon="6.57956">
        <ele>1465</ele>
        <time>2023-01-29T09:23:39Z</time>
      </trkpt>
      <trkpt lat="45.65806" lon="6.57958">
        <ele>1468</ele>
        <time>2023-01-29T09:23:50Z</time>
      </trkpt>
      <trkpt lat="45.65804" lon="6.57957">
        <ele>1468</ele>
        <time>2023-01-29T09:23:54Z</time>
      </trkpt>
      <trkpt lat="45.65801" lon="6.57958">
        <ele>1468</ele>
        <time>2023-01-29T09:23:58Z</time>
      </trkpt>
      <trkpt lat="45.65794" lon="6.57959">
        <ele>1468</ele>
        <time>2023-01-29T09:24:10Z</time>
      </trkpt>
      <trkpt lat="45.65787" lon="6.57956">
        <ele>1470</ele>
        <time>2023-01-29T09:24:22Z</time>
      </trkpt>
      <trkpt lat="45.65784" lon="6.57954">
        <ele>1470</ele>
        <time>2023-01-29T09:24:26Z</time>
      </trkpt>
      <trkpt lat="45.65782" lon="6.57954">
        <ele>1470</ele>
        <time>2023-01-29T09:24:29Z</time>
      </trkpt>
      <trkpt lat="45.65779" lon="6.57952">
        <ele>1471</ele>
        <time>2023-01-29T09:24:33Z</time>
      </trkpt>
      <trkpt lat="45.65778" lon="6.57954">
        <ele>1471</ele>
        <time>2023-01-29T09:24:37Z</time>
      </trkpt>
      <trkpt lat="45.65777" lon="6.57959">
        <ele>1474</ele>
        <time>2023-01-29T09:25:11Z</time>
      </trkpt>
      <trkpt lat="45.65776" lon="6.57962">
        <ele>1480</ele>
        <time>2023-01-29T09:27:09Z</time>
      </trkpt>
      <trkpt lat="45.65777" lon="6.57965">
        <ele>1482</ele>
        <time>2023-01-29T09:27:14Z</time>
      </trkpt>
      <trkpt lat="45.65778" lon="6.57969">
        <ele>1483</ele>
        <time>2023-01-29T09:27:18Z</time>
      </trkpt>
      <trkpt lat="45.65778" lon="6.57976">
        <ele>1486</ele>
        <time>2023-01-29T09:27:27Z</time>
      </trkpt>
      <trkpt lat="45.65778" lon="6.57979">
        <ele>1486</ele>
        <time>2023-01-29T09:27:31Z</time>
      </trkpt>
      <trkpt lat="45.65769" lon="6.57976">
        <ele>1483</ele>
        <time>2023-01-29T09:27:51Z</time>
      </trkpt>
      <trkpt lat="45.65766" lon="6.57976">
        <ele>1483</ele>
        <time>2023-01-29T09:27:55Z</time>
      </trkpt>
      <trkpt lat="45.65764" lon="6.57974">
        <ele>1483</ele>
        <time>2023-01-29T09:27:59Z</time>
      </trkpt>
      <trkpt lat="45.65754" lon="6.57974">
        <ele>1485</ele>
        <time>2023-01-29T09:28:13Z</time>
      </trkpt>
      <trkpt lat="45.65749" lon="6.57973">
        <ele>1485</ele>
        <time>2023-01-29T09:28:20Z</time>
      </trkpt>
      <trkpt lat="45.65746" lon="6.57973">
        <ele>1484</ele>
        <time>2023-01-29T09:28:23Z</time>
      </trkpt>
      <trkpt lat="45.65743" lon="6.57973">
        <ele>1484</ele>
        <time>2023-01-29T09:28:27Z</time>
      </trkpt>
      <trkpt lat="45.65741" lon="6.57972">
        <ele>1484</ele>
        <time>2023-01-29T09:28:30Z</time>
      </trkpt>
      <trkpt lat="45.65738" lon="6.57973">
        <ele>1484</ele>
        <time>2023-01-29T09:28:33Z</time>
      </trkpt>
      <trkpt lat="45.65736" lon="6.57974">
        <ele>1484</ele>
        <time>2023-01-29T09:28:36Z</time>
      </trkpt>
      <trkpt lat="45.65726" lon="6.57974">
        <ele>1486</ele>
        <time>2023-01-29T09:28:51Z</time>
      </trkpt>
      <trkpt lat="45.65723" lon="6.57974">
        <ele>1487</ele>
        <time>2023-01-29T09:28:54Z</time>
      </trkpt>
      <trkpt lat="45.65721" lon="6.57976">
        <ele>1488</ele>
        <time>2023-01-29T09:28:57Z</time>
      </trkpt>
      <trkpt lat="45.6572" lon="6.57978">
        <ele>1489</ele>
        <time>2023-01-29T09:29:00Z</time>
      </trkpt>
      <trkpt lat="45.65718" lon="6.57981">
        <ele>1489</ele>
        <time>2023-01-29T09:29:03Z</time>
      </trkpt>
      <trkpt lat="45.65715" lon="6.57982">
        <ele>1491</ele>
        <time>2023-01-29T09:29:08Z</time>
      </trkpt>
      <trkpt lat="45.65713" lon="6.57981">
        <ele>1492</ele>
        <time>2023-01-29T09:29:12Z</time>
      </trkpt>
      <trkpt lat="45.65705" lon="6.57979">
        <ele>1491</ele>
        <time>2023-01-29T09:29:24Z</time>
      </trkpt>
      <trkpt lat="45.657" lon="6.57977">
        <ele>1491</ele>
        <time>2023-01-29T09:29:30Z</time>
      </trkpt>
      <trkpt lat="45.65698" lon="6.57978">
        <ele>1491</ele>
        <time>2023-01-29T09:29:33Z</time>
      </trkpt>
      <trkpt lat="45.65695" lon="6.57977">
        <ele>1490</ele>
        <time>2023-01-29T09:29:38Z</time>
      </trkpt>
      <trkpt lat="45.65693" lon="6.57976">
        <ele>1491</ele>
        <time>2023-01-29T09:29:42Z</time>
      </trkpt>
      <trkpt lat="45.65691" lon="6.57975">
        <ele>1492</ele>
        <time>2023-01-29T09:29:46Z</time>
      </trkpt>
      <trkpt lat="45.65689" lon="6.57975">
        <ele>1492</ele>
        <time>2023-01-29T09:29:49Z</time>
      </trkpt>
      <trkpt lat="45.65686" lon="6.57975">
        <ele>1493</ele>
        <time>2023-01-29T09:29:54Z</time>
      </trkpt>
      <trkpt lat="45.6568" lon="6.57974">
        <ele>1493</ele>
        <time>2023-01-29T09:30:01Z</time>
      </trkpt>
      <trkpt lat="45.65677" lon="6.57974">
        <ele>1493</ele>
        <time>2023-01-29T09:30:05Z</time>
      </trkpt>
      <trkpt lat="45.65674" lon="6.57971">
        <ele>1494</ele>
        <time>2023-01-29T09:30:10Z</time>
      </trkpt>
      <trkpt lat="45.65672" lon="6.57971">
        <ele>1495</ele>
        <time>2023-01-29T09:30:13Z</time>
      </trkpt>
      <trkpt lat="45.6567" lon="6.57972">
        <ele>1496</ele>
        <time>2023-01-29T09:30:16Z</time>
      </trkpt>
      <trkpt lat="45.65668" lon="6.57971">
        <ele>1496</ele>
        <time>2023-01-29T09:30:19Z</time>
      </trkpt>
      <trkpt lat="45.65655" lon="6.57974">
        <ele>1502</ele>
        <time>2023-01-29T09:30:36Z</time>
      </trkpt>
      <trkpt lat="45.65653" lon="6.57977">
        <ele>1504</ele>
        <time>2023-01-29T09:30:39Z</time>
      </trkpt>
      <trkpt lat="45.65644" lon="6.57982">
        <ele>1507</ele>
        <time>2023-01-29T09:30:53Z</time>
      </trkpt>
      <trkpt lat="45.65634" lon="6.57988">
        <ele>1509</ele>
        <time>2023-01-29T09:31:07Z</time>
      </trkpt>
      <trkpt lat="45.65632" lon="6.57989">
        <ele>1510</ele>
        <time>2023-01-29T09:31:10Z</time>
      </trkpt>
      <trkpt lat="45.65629" lon="6.5799">
        <ele>1511</ele>
        <time>2023-01-29T09:31:14Z</time>
      </trkpt>
      <trkpt lat="45.65628" lon="6.57992">
        <ele>1511</ele>
        <time>2023-01-29T09:31:17Z</time>
      </trkpt>
      <trkpt lat="45.65627" lon="6.57995">
        <ele>1513</ele>
        <time>2023-01-29T09:31:22Z</time>
      </trkpt>
      <trkpt lat="45.6563" lon="6.58002">
        <ele>1513</ele>
        <time>2023-01-29T09:31:30Z</time>
      </trkpt>
      <trkpt lat="45.65632" lon="6.58008">
        <ele>1513</ele>
        <time>2023-01-29T09:31:38Z</time>
      </trkpt>
      <trkpt lat="45.65633" lon="6.5801">
        <ele>1514</ele>
        <time>2023-01-29T09:31:41Z</time>
      </trkpt>
      <trkpt lat="45.65642" lon="6.58021">
        <ele>1516</ele>
        <time>2023-01-29T09:31:57Z</time>
      </trkpt>
      <trkpt lat="45.65648" lon="6.58033">
        <ele>1518</ele>
        <time>2023-01-29T09:32:12Z</time>
      </trkpt>
      <trkpt lat="45.65648" lon="6.58036">
        <ele>1521</ele>
        <time>2023-01-29T09:32:15Z</time>
      </trkpt>
      <trkpt lat="45.65647" lon="6.58038">
        <ele>1522</ele>
        <time>2023-01-29T09:32:20Z</time>
      </trkpt>
      <trkpt lat="45.65644" lon="6.58039">
        <ele>1526</ele>
        <time>2023-01-29T09:32:24Z</time>
      </trkpt>
      <trkpt lat="45.65641" lon="6.58039">
        <ele>1527</ele>
        <time>2023-01-29T09:32:28Z</time>
      </trkpt>
      <trkpt lat="45.65639" lon="6.5804">
        <ele>1527</ele>
        <time>2023-01-29T09:32:31Z</time>
      </trkpt>
      <trkpt lat="45.65638" lon="6.58041">
        <ele>1528</ele>
        <time>2023-01-29T09:32:34Z</time>
      </trkpt>
      <trkpt lat="45.65636" lon="6.58042">
        <ele>1529</ele>
        <time>2023-01-29T09:32:36Z</time>
      </trkpt>
      <trkpt lat="45.65635" lon="6.58045">
        <ele>1530</ele>
        <time>2023-01-29T09:32:39Z</time>
      </trkpt>
      <trkpt lat="45.65636" lon="6.58047">
        <ele>1530</ele>
        <time>2023-01-29T09:32:46Z</time>
      </trkpt>
      <trkpt lat="45.65638" lon="6.58049">
        <ele>1530</ele>
        <time>2023-01-29T09:32:49Z</time>
      </trkpt>
      <trkpt lat="45.65637" lon="6.58052">
        <ele>1530</ele>
        <time>2023-01-29T09:32:51Z</time>
      </trkpt>
      <trkpt lat="45.65636" lon="6.58052">
        <ele>1530</ele>
        <time>2023-01-29T09:32:53Z</time>
      </trkpt>
      <trkpt lat="45.65634" lon="6.58054">
        <ele>1531</ele>
        <time>2023-01-29T09:32:55Z</time>
      </trkpt>
      <trkpt lat="45.65631" lon="6.58054">
        <ele>1530</ele>
        <time>2023-01-29T09:33:00Z</time>
      </trkpt>
      <trkpt lat="45.65623" lon="6.58052">
        <ele>1531</ele>
        <time>2023-01-29T09:33:08Z</time>
      </trkpt>
      <trkpt lat="45.65622" lon="6.58051">
        <ele>1531</ele>
        <time>2023-01-29T09:33:11Z</time>
      </trkpt>
      <trkpt lat="45.65614" lon="6.58052">
        <ele>1532</ele>
        <time>2023-01-29T09:33:20Z</time>
      </trkpt>
      <trkpt lat="45.65612" lon="6.58053">
        <ele>1533</ele>
        <time>2023-01-29T09:33:23Z</time>
      </trkpt>
      <trkpt lat="45.65607" lon="6.58051">
        <ele>1532</ele>
        <time>2023-01-29T09:33:32Z</time>
      </trkpt>
      <trkpt lat="45.65603" lon="6.58047">
        <ele>1531</ele>
        <time>2023-01-29T09:33:38Z</time>
      </trkpt>
      <trkpt lat="45.65601" lon="6.58048">
        <ele>1532</ele>
        <time>2023-01-29T09:33:41Z</time>
      </trkpt>
      <trkpt lat="45.656" lon="6.5805">
        <ele>1535</ele>
        <time>2023-01-29T09:33:44Z</time>
      </trkpt>
      <trkpt lat="45.65597" lon="6.58052">
        <ele>1536</ele>
        <time>2023-01-29T09:33:48Z</time>
      </trkpt>
      <trkpt lat="45.65594" lon="6.58052">
        <ele>1537</ele>
        <time>2023-01-29T09:33:50Z</time>
      </trkpt>
      <trkpt lat="45.65584" lon="6.5805">
        <ele>1536</ele>
        <time>2023-01-29T09:33:57Z</time>
      </trkpt>
      <trkpt lat="45.65578" lon="6.58049">
        <ele>1535</ele>
        <time>2023-01-29T09:34:03Z</time>
      </trkpt>
      <trkpt lat="45.65577" lon="6.58046">
        <ele>1535</ele>
        <time>2023-01-29T09:34:06Z</time>
      </trkpt>
      <trkpt lat="45.65572" lon="6.58044">
        <ele>1534</ele>
        <time>2023-01-29T09:34:11Z</time>
      </trkpt>
      <trkpt lat="45.65563" lon="6.58037">
        <ele>1535</ele>
        <time>2023-01-29T09:34:24Z</time>
      </trkpt>
      <trkpt lat="45.6556" lon="6.58036">
        <ele>1536</ele>
        <time>2023-01-29T09:34:28Z</time>
      </trkpt>
      <trkpt lat="45.65556" lon="6.58037">
        <ele>1536</ele>
        <time>2023-01-29T09:34:31Z</time>
      </trkpt>
      <trkpt lat="45.65545" lon="6.58033">
        <ele>1538</ele>
        <time>2023-01-29T09:34:44Z</time>
      </trkpt>
      <trkpt lat="45.6553" lon="6.58032">
        <ele>1542</ele>
        <time>2023-01-29T09:35:02Z</time>
      </trkpt>
      <trkpt lat="45.65524" lon="6.58029">
        <ele>1543</ele>
        <time>2023-01-29T09:35:09Z</time>
      </trkpt>
      <trkpt lat="45.65515" lon="6.58027">
        <ele>1543</ele>
        <time>2023-01-29T09:35:18Z</time>
      </trkpt>
      <trkpt lat="45.65489" lon="6.58025">
        <ele>1551</ele>
        <time>2023-01-29T09:35:42Z</time>
      </trkpt>
      <trkpt lat="45.65483" lon="6.58026">
        <ele>1552</ele>
        <time>2023-01-29T09:35:48Z</time>
      </trkpt>
      <trkpt lat="45.65476" lon="6.58025">
        <ele>1552</ele>
        <time>2023-01-29T09:35:54Z</time>
      </trkpt>
      <trkpt lat="45.65464" lon="6.58022">
        <ele>1553</ele>
        <time>2023-01-29T09:36:06Z</time>
      </trkpt>
      <trkpt lat="45.65456" lon="6.58019">
        <ele>1554</ele>
        <time>2023-01-29T09:36:15Z</time>
      </trkpt>
      <trkpt lat="45.65451" lon="6.58018">
        <ele>1554</ele>
        <time>2023-01-29T09:36:20Z</time>
      </trkpt>
      <trkpt lat="45.65426" lon="6.58011">
        <ele>1557</ele>
        <time>2023-01-29T09:36:45Z</time>
      </trkpt>
      <trkpt lat="45.65417" lon="6.58007">
        <ele>1557</ele>
        <time>2023-01-29T09:36:54Z</time>
      </trkpt>
      <trkpt lat="45.65404" lon="6.57999">
        <ele>1558</ele>
        <time>2023-01-29T09:37:11Z</time>
      </trkpt>
      <trkpt lat="45.65398" lon="6.57998">
        <ele>1559</ele>
        <time>2023-01-29T09:37:17Z</time>
      </trkpt>
      <trkpt lat="45.65395" lon="6.57999">
        <ele>1559</ele>
        <time>2023-01-29T09:37:20Z</time>
      </trkpt>
      <trkpt lat="45.6538" lon="6.57997">
        <ele>1561</ele>
        <time>2023-01-29T09:37:34Z</time>
      </trkpt>
      <trkpt lat="45.65377" lon="6.57997">
        <ele>1561</ele>
        <time>2023-01-29T09:37:37Z</time>
      </trkpt>
      <trkpt lat="45.65374" lon="6.57997">
        <ele>1561</ele>
        <time>2023-01-29T09:37:40Z</time>
      </trkpt>
      <trkpt lat="45.65371" lon="6.57996">
        <ele>1562</ele>
        <time>2023-01-29T09:37:43Z</time>
      </trkpt>
      <trkpt lat="45.65356" lon="6.57999">
        <ele>1564</ele>
        <time>2023-01-29T09:37:57Z</time>
      </trkpt>
      <trkpt lat="45.65352" lon="6.57999">
        <ele>1564</ele>
        <time>2023-01-29T09:38:00Z</time>
      </trkpt>
      <trkpt lat="45.65342" lon="6.57999">
        <ele>1563</ele>
        <time>2023-01-29T09:38:11Z</time>
      </trkpt>
      <trkpt lat="45.65339" lon="6.57996">
        <ele>1562</ele>
        <time>2023-01-29T09:38:14Z</time>
      </trkpt>
      <trkpt lat="45.65329" lon="6.57994">
        <ele>1562</ele>
        <time>2023-01-29T09:38:24Z</time>
      </trkpt>
      <trkpt lat="45.6532" lon="6.57994">
        <ele>1562</ele>
        <time>2023-01-29T09:38:33Z</time>
      </trkpt>
      <trkpt lat="45.65308" lon="6.58">
        <ele>1563</ele>
        <time>2023-01-29T09:38:45Z</time>
      </trkpt>
      <trkpt lat="45.65303" lon="6.58006">
        <ele>1564</ele>
        <time>2023-01-29T09:38:51Z</time>
      </trkpt>
      <trkpt lat="45.653" lon="6.58006">
        <ele>1563</ele>
        <time>2023-01-29T09:38:54Z</time>
      </trkpt>
      <trkpt lat="45.65294" lon="6.58011">
        <ele>1564</ele>
        <time>2023-01-29T09:39:01Z</time>
      </trkpt>
      <trkpt lat="45.65288" lon="6.58013">
        <ele>1565</ele>
        <time>2023-01-29T09:39:07Z</time>
      </trkpt>
      <trkpt lat="45.65285" lon="6.58015">
        <ele>1566</ele>
        <time>2023-01-29T09:39:10Z</time>
      </trkpt>
      <trkpt lat="45.65274" lon="6.58016">
        <ele>1568</ele>
        <time>2023-01-29T09:39:22Z</time>
      </trkpt>
      <trkpt lat="45.6526" lon="6.58021">
        <ele>1569</ele>
        <time>2023-01-29T09:39:35Z</time>
      </trkpt>
      <trkpt lat="45.65258" lon="6.58022">
        <ele>1568</ele>
        <time>2023-01-29T09:39:38Z</time>
      </trkpt>
      <trkpt lat="45.65255" lon="6.58024">
        <ele>1568</ele>
        <time>2023-01-29T09:39:41Z</time>
      </trkpt>
      <trkpt lat="45.65242" lon="6.58035">
        <ele>1570</ele>
        <time>2023-01-29T09:39:56Z</time>
      </trkpt>
      <trkpt lat="45.65239" lon="6.58037">
        <ele>1569</ele>
        <time>2023-01-29T09:40:00Z</time>
      </trkpt>
      <trkpt lat="45.65236" lon="6.58038">
        <ele>1569</ele>
        <time>2023-01-29T09:40:02Z</time>
      </trkpt>
      <trkpt lat="45.65231" lon="6.58043">
        <ele>1568</ele>
        <time>2023-01-29T09:40:08Z</time>
      </trkpt>
      <trkpt lat="45.65229" lon="6.58046">
        <ele>1568</ele>
        <time>2023-01-29T09:40:11Z</time>
      </trkpt>
      <trkpt lat="45.65223" lon="6.58051">
        <ele>1569</ele>
        <time>2023-01-29T09:40:17Z</time>
      </trkpt>
      <trkpt lat="45.65221" lon="6.58051">
        <ele>1569</ele>
        <time>2023-01-29T09:40:19Z</time>
      </trkpt>
      <trkpt lat="45.65213" lon="6.58056">
        <ele>1571</ele>
        <time>2023-01-29T09:40:29Z</time>
      </trkpt>
      <trkpt lat="45.6521" lon="6.58058">
        <ele>1572</ele>
        <time>2023-01-29T09:40:33Z</time>
      </trkpt>
      <trkpt lat="45.65208" lon="6.58059">
        <ele>1573</ele>
        <time>2023-01-29T09:40:36Z</time>
      </trkpt>
      <trkpt lat="45.652" lon="6.58067">
        <ele>1575</ele>
        <time>2023-01-29T09:40:46Z</time>
      </trkpt>
      <trkpt lat="45.65197" lon="6.58068">
        <ele>1575</ele>
        <time>2023-01-29T09:40:49Z</time>
      </trkpt>
      <trkpt lat="45.65195" lon="6.5807">
        <ele>1575</ele>
        <time>2023-01-29T09:40:52Z</time>
      </trkpt>
      <trkpt lat="45.65192" lon="6.58072">
        <ele>1575</ele>
        <time>2023-01-29T09:40:55Z</time>
      </trkpt>
      <trkpt lat="45.65187" lon="6.58076">
        <ele>1577</ele>
        <time>2023-01-29T09:41:01Z</time>
      </trkpt>
      <trkpt lat="45.65184" lon="6.58077">
        <ele>1578</ele>
        <time>2023-01-29T09:41:04Z</time>
      </trkpt>
      <trkpt lat="45.65178" lon="6.58082">
        <ele>1578</ele>
        <time>2023-01-29T09:41:10Z</time>
      </trkpt>
      <trkpt lat="45.65167" lon="6.5809">
        <ele>1578</ele>
        <time>2023-01-29T09:41:23Z</time>
      </trkpt>
      <trkpt lat="45.65164" lon="6.58092">
        <ele>1579</ele>
        <time>2023-01-29T09:41:26Z</time>
      </trkpt>
      <trkpt lat="45.65162" lon="6.58094">
        <ele>1579</ele>
        <time>2023-01-29T09:41:29Z</time>
      </trkpt>
      <trkpt lat="45.65154" lon="6.58095">
        <ele>1579</ele>
        <time>2023-01-29T09:41:36Z</time>
      </trkpt>
      <trkpt lat="45.65132" lon="6.58092">
        <ele>1583</ele>
        <time>2023-01-29T09:41:57Z</time>
      </trkpt>
      <trkpt lat="45.65129" lon="6.58093">
        <ele>1583</ele>
        <time>2023-01-29T09:42:00Z</time>
      </trkpt>
      <trkpt lat="45.65123" lon="6.58094">
        <ele>1585</ele>
        <time>2023-01-29T09:42:06Z</time>
      </trkpt>
      <trkpt lat="45.65121" lon="6.58094">
        <ele>1586</ele>
        <time>2023-01-29T09:42:08Z</time>
      </trkpt>
      <trkpt lat="45.65118" lon="6.58095">
        <ele>1586</ele>
        <time>2023-01-29T09:42:11Z</time>
      </trkpt>
      <trkpt lat="45.65114" lon="6.58097">
        <ele>1586</ele>
        <time>2023-01-29T09:42:15Z</time>
      </trkpt>
      <trkpt lat="45.65109" lon="6.58099">
        <ele>1587</ele>
        <time>2023-01-29T09:42:19Z</time>
      </trkpt>
      <trkpt lat="45.65107" lon="6.58099">
        <ele>1587</ele>
        <time>2023-01-29T09:42:21Z</time>
      </trkpt>
      <trkpt lat="45.65105" lon="6.581">
        <ele>1588</ele>
        <time>2023-01-29T09:42:25Z</time>
      </trkpt>
      <trkpt lat="45.65103" lon="6.58098">
        <ele>1588</ele>
        <time>2023-01-29T09:47:33Z</time>
      </trkpt>
      <trkpt lat="45.65099" lon="6.58101">
        <ele>1585</ele>
        <time>2023-01-29T09:47:39Z</time>
      </trkpt>
      <trkpt lat="45.65099" lon="6.58103">
        <ele>1586</ele>
        <time>2023-01-29T09:48:05Z</time>
      </trkpt>
      <trkpt lat="45.65101" lon="6.58101">
        <ele>1585</ele>
        <time>2023-01-29T09:48:16Z</time>
      </trkpt>
      <trkpt lat="45.65102" lon="6.58099">
        <ele>1586</ele>
        <time>2023-01-29T09:49:14Z</time>
      </trkpt>
      <trkpt lat="45.65103" lon="6.58097">
        <ele>1586</ele>
        <time>2023-01-29T09:49:16Z</time>
      </trkpt>
      <trkpt lat="45.65103" lon="6.58099">
        <ele>1586</ele>
        <time>2023-01-29T09:50:01Z</time>
      </trkpt>
      <trkpt lat="45.65105" lon="6.58099">
        <ele>1587</ele>
        <time>2023-01-29T09:52:08Z</time>
      </trkpt>
      <trkpt lat="45.65107" lon="6.58099">
        <ele>1587</ele>
        <time>2023-01-29T09:52:34Z</time>
      </trkpt>
      <trkpt lat="45.65109" lon="6.58101">
        <ele>1588</ele>
        <time>2023-01-29T09:52:38Z</time>
      </trkpt>
      <trkpt lat="45.65111" lon="6.581">
        <ele>1588</ele>
        <time>2023-01-29T09:52:42Z</time>
      </trkpt>
      <trkpt lat="45.65114" lon="6.581">
        <ele>1588</ele>
        <time>2023-01-29T09:52:44Z</time>
      </trkpt>
      <trkpt lat="45.65121" lon="6.58104">
        <ele>1586</ele>
        <time>2023-01-29T09:52:51Z</time>
      </trkpt>
      <trkpt lat="45.65123" lon="6.58106">
        <ele>1585</ele>
        <time>2023-01-29T09:52:53Z</time>
      </trkpt>
      <trkpt lat="45.65126" lon="6.58111">
        <ele>1584</ele>
        <time>2023-01-29T09:53:00Z</time>
      </trkpt>
      <trkpt lat="45.65128" lon="6.58114">
        <ele>1584</ele>
        <time>2023-01-29T09:53:03Z</time>
      </trkpt>
      <trkpt lat="45.65134" lon="6.58124">
        <ele>1586</ele>
        <time>2023-01-29T09:53:12Z</time>
      </trkpt>
      <trkpt lat="45.6514" lon="6.58145">
        <ele>1586</ele>
        <time>2023-01-29T09:53:32Z</time>
      </trkpt>
      <trkpt lat="45.6514" lon="6.58148">
        <ele>1585</ele>
        <time>2023-01-29T09:53:46Z</time>
      </trkpt>
      <trkpt lat="45.65142" lon="6.58161">
        <ele>1587</ele>
        <time>2023-01-29T09:53:56Z</time>
      </trkpt>
      <trkpt lat="45.65143" lon="6.58204">
        <ele>1592</ele>
        <time>2023-01-29T09:54:26Z</time>
      </trkpt>
      <trkpt lat="45.65157" lon="6.58239">
        <ele>1591</ele>
        <time>2023-01-29T09:54:56Z</time>
      </trkpt>
      <trkpt lat="45.6516" lon="6.58251">
        <ele>1593</ele>
        <time>2023-01-29T09:55:05Z</time>
      </trkpt>
      <trkpt lat="45.65163" lon="6.58296">
        <ele>1597</ele>
        <time>2023-01-29T09:55:37Z</time>
      </trkpt>
      <trkpt lat="45.65169" lon="6.58324">
        <ele>1597</ele>
        <time>2023-01-29T09:55:57Z</time>
      </trkpt>
      <trkpt lat="45.65171" lon="6.58348">
        <ele>1598</ele>
        <time>2023-01-29T09:56:13Z</time>
      </trkpt>
      <trkpt lat="45.6517" lon="6.58353">
        <ele>1598</ele>
        <time>2023-01-29T09:56:17Z</time>
      </trkpt>
      <trkpt lat="45.65171" lon="6.58357">
        <ele>1598</ele>
        <time>2023-01-29T09:56:20Z</time>
      </trkpt>
      <trkpt lat="45.65166" lon="6.58401">
        <ele>1603</ele>
        <time>2023-01-29T09:56:51Z</time>
      </trkpt>
      <trkpt lat="45.65164" lon="6.58416">
        <ele>1604</ele>
        <time>2023-01-29T09:57:02Z</time>
      </trkpt>
      <trkpt lat="45.65153" lon="6.58451">
        <ele>1607</ele>
        <time>2023-01-29T09:57:29Z</time>
      </trkpt>
      <trkpt lat="45.65136" lon="6.5848">
        <ele>1610</ele>
        <time>2023-01-29T09:57:54Z</time>
      </trkpt>
      <trkpt lat="45.65134" lon="6.58484">
        <ele>1610</ele>
        <time>2023-01-29T09:57:57Z</time>
      </trkpt>
      <trkpt lat="45.65127" lon="6.58497">
        <ele>1612</ele>
        <time>2023-01-29T09:58:07Z</time>
      </trkpt>
      <trkpt lat="45.65124" lon="6.585">
        <ele>1612</ele>
        <time>2023-01-29T09:58:10Z</time>
      </trkpt>
      <trkpt lat="45.65106" lon="6.58526">
        <ele>1615</ele>
        <time>2023-01-29T09:58:36Z</time>
      </trkpt>
      <trkpt lat="45.65104" lon="6.58531">
        <ele>1615</ele>
        <time>2023-01-29T09:58:39Z</time>
      </trkpt>
      <trkpt lat="45.65102" lon="6.58538">
        <ele>1618</ele>
        <time>2023-01-29T09:58:44Z</time>
      </trkpt>
      <trkpt lat="45.651" lon="6.58544">
        <ele>1620</ele>
        <time>2023-01-29T09:58:49Z</time>
      </trkpt>
      <trkpt lat="45.65099" lon="6.58548">
        <ele>1620</ele>
        <time>2023-01-29T09:58:52Z</time>
      </trkpt>
      <trkpt lat="45.65096" lon="6.5859">
        <ele>1618</ele>
        <time>2023-01-29T09:59:21Z</time>
      </trkpt>
      <trkpt lat="45.65095" lon="6.58596">
        <ele>1618</ele>
        <time>2023-01-29T09:59:25Z</time>
      </trkpt>
      <trkpt lat="45.65095" lon="6.58622">
        <ele>1617</ele>
        <time>2023-01-29T09:59:39Z</time>
      </trkpt>
      <trkpt lat="45.65092" lon="6.58624">
        <ele>1616</ele>
        <time>2023-01-29T09:59:42Z</time>
      </trkpt>
      <trkpt lat="45.65087" lon="6.58627">
        <ele>1617</ele>
        <time>2023-01-29T09:59:46Z</time>
      </trkpt>
      <trkpt lat="45.65077" lon="6.58626">
        <ele>1616</ele>
        <time>2023-01-29T09:59:58Z</time>
      </trkpt>
      <trkpt lat="45.65047" lon="6.5861">
        <ele>1620</ele>
        <time>2023-01-29T10:00:28Z</time>
      </trkpt>
      <trkpt lat="45.6504" lon="6.58606">
        <ele>1621</ele>
        <time>2023-01-29T10:00:35Z</time>
      </trkpt>
      <trkpt lat="45.65028" lon="6.58601">
        <ele>1622</ele>
        <time>2023-01-29T10:00:48Z</time>
      </trkpt>
      <trkpt lat="45.65025" lon="6.58599">
        <ele>1622</ele>
        <time>2023-01-29T10:00:52Z</time>
      </trkpt>
      <trkpt lat="45.65017" lon="6.58599">
        <ele>1623</ele>
        <time>2023-01-29T10:00:59Z</time>
      </trkpt>
      <trkpt lat="45.65015" lon="6.586">
        <ele>1623</ele>
        <time>2023-01-29T10:01:02Z</time>
      </trkpt>
      <trkpt lat="45.65012" lon="6.58601">
        <ele>1624</ele>
        <time>2023-01-29T10:01:06Z</time>
      </trkpt>
      <trkpt lat="45.65003" lon="6.58612">
        <ele>1627</ele>
        <time>2023-01-29T10:01:17Z</time>
      </trkpt>
      <trkpt lat="45.65001" lon="6.58616">
        <ele>1628</ele>
        <time>2023-01-29T10:01:21Z</time>
      </trkpt>
      <trkpt lat="45.64998" lon="6.58625">
        <ele>1628</ele>
        <time>2023-01-29T10:01:27Z</time>
      </trkpt>
      <trkpt lat="45.64997" lon="6.58629">
        <ele>1628</ele>
        <time>2023-01-29T10:01:30Z</time>
      </trkpt>
      <trkpt lat="45.64996" lon="6.58633">
        <ele>1629</ele>
        <time>2023-01-29T10:01:33Z</time>
      </trkpt>
      <trkpt lat="45.64993" lon="6.58652">
        <ele>1629</ele>
        <time>2023-01-29T10:01:46Z</time>
      </trkpt>
      <trkpt lat="45.64981" lon="6.58676">
        <ele>1629</ele>
        <time>2023-01-29T10:02:05Z</time>
      </trkpt>
      <trkpt lat="45.64979" lon="6.58678">
        <ele>1629</ele>
        <time>2023-01-29T10:02:08Z</time>
      </trkpt>
      <trkpt lat="45.64976" lon="6.58682">
        <ele>1630</ele>
        <time>2023-01-29T10:02:12Z</time>
      </trkpt>
      <trkpt lat="45.64975" lon="6.58685">
        <ele>1630</ele>
        <time>2023-01-29T10:02:15Z</time>
      </trkpt>
      <trkpt lat="45.64973" lon="6.58689">
        <ele>1632</ele>
        <time>2023-01-29T10:02:18Z</time>
      </trkpt>
      <trkpt lat="45.6496" lon="6.58706">
        <ele>1634</ele>
        <time>2023-01-29T10:02:37Z</time>
      </trkpt>
      <trkpt lat="45.64954" lon="6.58717">
        <ele>1634</ele>
        <time>2023-01-29T10:02:47Z</time>
      </trkpt>
      <trkpt lat="45.64941" lon="6.58731">
        <ele>1634</ele>
        <time>2023-01-29T10:03:00Z</time>
      </trkpt>
      <trkpt lat="45.64915" lon="6.58736">
        <ele>1640</ele>
        <time>2023-01-29T10:03:25Z</time>
      </trkpt>
      <trkpt lat="45.64912" lon="6.58737">
        <ele>1641</ele>
        <time>2023-01-29T10:03:30Z</time>
      </trkpt>
      <trkpt lat="45.64909" lon="6.58738">
        <ele>1642</ele>
        <time>2023-01-29T10:03:35Z</time>
      </trkpt>
      <trkpt lat="45.6488" lon="6.58735">
        <ele>1641</ele>
        <time>2023-01-29T10:04:03Z</time>
      </trkpt>
      <trkpt lat="45.64877" lon="6.58733">
        <ele>1642</ele>
        <time>2023-01-29T10:04:06Z</time>
      </trkpt>
      <trkpt lat="45.64864" lon="6.58732">
        <ele>1642</ele>
        <time>2023-01-29T10:04:18Z</time>
      </trkpt>
      <trkpt lat="45.64862" lon="6.58729">
        <ele>1643</ele>
        <time>2023-01-29T10:04:24Z</time>
      </trkpt>
      <trkpt lat="45.64855" lon="6.58723">
        <ele>1644</ele>
        <time>2023-01-29T10:04:32Z</time>
      </trkpt>
      <trkpt lat="45.64846" lon="6.58718">
        <ele>1645</ele>
        <time>2023-01-29T10:04:41Z</time>
      </trkpt>
      <trkpt lat="45.64842" lon="6.58717">
        <ele>1645</ele>
        <time>2023-01-29T10:04:45Z</time>
      </trkpt>
      <trkpt lat="45.64839" lon="6.58714">
        <ele>1646</ele>
        <time>2023-01-29T10:04:49Z</time>
      </trkpt>
      <trkpt lat="45.64835" lon="6.58714">
        <ele>1647</ele>
        <time>2023-01-29T10:04:53Z</time>
      </trkpt>
      <trkpt lat="45.64832" lon="6.58712">
        <ele>1647</ele>
        <time>2023-01-29T10:04:56Z</time>
      </trkpt>
      <trkpt lat="45.64827" lon="6.5871">
        <ele>1647</ele>
        <time>2023-01-29T10:05:02Z</time>
      </trkpt>
      <trkpt lat="45.64823" lon="6.58706">
        <ele>1648</ele>
        <time>2023-01-29T10:05:08Z</time>
      </trkpt>
      <trkpt lat="45.6482" lon="6.58705">
        <ele>1648</ele>
        <time>2023-01-29T10:05:12Z</time>
      </trkpt>
      <trkpt lat="45.64816" lon="6.58701">
        <ele>1649</ele>
        <time>2023-01-29T10:05:16Z</time>
      </trkpt>
      <trkpt lat="45.64809" lon="6.58695">
        <ele>1649</ele>
        <time>2023-01-29T10:05:24Z</time>
      </trkpt>
      <trkpt lat="45.64806" lon="6.58693">
        <ele>1650</ele>
        <time>2023-01-29T10:05:28Z</time>
      </trkpt>
      <trkpt lat="45.64803" lon="6.58692">
        <ele>1650</ele>
        <time>2023-01-29T10:05:32Z</time>
      </trkpt>
      <trkpt lat="45.64797" lon="6.58688">
        <ele>1651</ele>
        <time>2023-01-29T10:05:38Z</time>
      </trkpt>
      <trkpt lat="45.64788" lon="6.58682">
        <ele>1652</ele>
        <time>2023-01-29T10:05:47Z</time>
      </trkpt>
      <trkpt lat="45.64778" lon="6.58678">
        <ele>1654</ele>
        <time>2023-01-29T10:05:58Z</time>
      </trkpt>
      <trkpt lat="45.64766" lon="6.58667">
        <ele>1656</ele>
        <time>2023-01-29T10:06:11Z</time>
      </trkpt>
      <trkpt lat="45.64746" lon="6.5865">
        <ele>1661</ele>
        <time>2023-01-29T10:06:32Z</time>
      </trkpt>
      <trkpt lat="45.64743" lon="6.58649">
        <ele>1661</ele>
        <time>2023-01-29T10:06:35Z</time>
      </trkpt>
      <trkpt lat="45.64738" lon="6.58644">
        <ele>1661</ele>
        <time>2023-01-29T10:06:41Z</time>
      </trkpt>
      <trkpt lat="45.64732" lon="6.5864">
        <ele>1663</ele>
        <time>2023-01-29T10:06:47Z</time>
      </trkpt>
      <trkpt lat="45.64729" lon="6.58639">
        <ele>1664</ele>
        <time>2023-01-29T10:06:50Z</time>
      </trkpt>
      <trkpt lat="45.64712" lon="6.5863">
        <ele>1667</ele>
        <time>2023-01-29T10:07:11Z</time>
      </trkpt>
      <trkpt lat="45.64703" lon="6.58624">
        <ele>1669</ele>
        <time>2023-01-29T10:07:22Z</time>
      </trkpt>
      <trkpt lat="45.64682" lon="6.58622">
        <ele>1671</ele>
        <time>2023-01-29T10:07:44Z</time>
      </trkpt>
      <trkpt lat="45.64671" lon="6.58616">
        <ele>1673</ele>
        <time>2023-01-29T10:08:51Z</time>
      </trkpt>
      <trkpt lat="45.64667" lon="6.58608">
        <ele>1676</ele>
        <time>2023-01-29T10:08:58Z</time>
      </trkpt>
      <trkpt lat="45.64667" lon="6.58604">
        <ele>1676</ele>
        <time>2023-01-29T10:09:02Z</time>
      </trkpt>
      <trkpt lat="45.64658" lon="6.58588">
        <ele>1674</ele>
        <time>2023-01-29T10:09:14Z</time>
      </trkpt>
      <trkpt lat="45.64657" lon="6.58584">
        <ele>1674</ele>
        <time>2023-01-29T10:09:18Z</time>
      </trkpt>
      <trkpt lat="45.64655" lon="6.58583">
        <ele>1674</ele>
        <time>2023-01-29T10:09:20Z</time>
      </trkpt>
      <trkpt lat="45.64654" lon="6.5858">
        <ele>1674</ele>
        <time>2023-01-29T10:09:22Z</time>
      </trkpt>
      <trkpt lat="45.64648" lon="6.58574">
        <ele>1671</ele>
        <time>2023-01-29T10:09:29Z</time>
      </trkpt>
      <trkpt lat="45.64647" lon="6.5857">
        <ele>1670</ele>
        <time>2023-01-29T10:09:32Z</time>
      </trkpt>
      <trkpt lat="45.64645" lon="6.58568">
        <ele>1670</ele>
        <time>2023-01-29T10:09:34Z</time>
      </trkpt>
      <trkpt lat="45.64643" lon="6.58567">
        <ele>1670</ele>
        <time>2023-01-29T10:09:36Z</time>
      </trkpt>
      <trkpt lat="45.64635" lon="6.58556">
        <ele>1670</ele>
        <time>2023-01-29T10:09:46Z</time>
      </trkpt>
      <trkpt lat="45.6463" lon="6.58551">
        <ele>1671</ele>
        <time>2023-01-29T10:09:51Z</time>
      </trkpt>
      <trkpt lat="45.64628" lon="6.58549">
        <ele>1672</ele>
        <time>2023-01-29T10:09:54Z</time>
      </trkpt>
      <trkpt lat="45.64626" lon="6.58546">
        <ele>1672</ele>
        <time>2023-01-29T10:09:57Z</time>
      </trkpt>
      <trkpt lat="45.64612" lon="6.58534">
        <ele>1671</ele>
        <time>2023-01-29T10:10:12Z</time>
      </trkpt>
      <trkpt lat="45.64608" lon="6.58534">
        <ele>1670</ele>
        <time>2023-01-29T10:10:15Z</time>
      </trkpt>
      <trkpt lat="45.64587" lon="6.58525">
        <ele>1669</ele>
        <time>2023-01-29T10:10:35Z</time>
      </trkpt>
      <trkpt lat="45.64568" lon="6.58515">
        <ele>1668</ele>
        <time>2023-01-29T10:10:53Z</time>
      </trkpt>
      <trkpt lat="45.64565" lon="6.58513">
        <ele>1669</ele>
        <time>2023-01-29T10:10:56Z</time>
      </trkpt>
      <trkpt lat="45.64558" lon="6.58505">
        <ele>1668</ele>
        <time>2023-01-29T10:11:02Z</time>
      </trkpt>
      <trkpt lat="45.64555" lon="6.58503">
        <ele>1668</ele>
        <time>2023-01-29T10:11:05Z</time>
      </trkpt>
      <trkpt lat="45.64551" lon="6.58503">
        <ele>1667</ele>
        <time>2023-01-29T10:11:09Z</time>
      </trkpt>
      <trkpt lat="45.64548" lon="6.58502">
        <ele>1667</ele>
        <time>2023-01-29T10:11:13Z</time>
      </trkpt>
      <trkpt lat="45.64544" lon="6.58496">
        <ele>1667</ele>
        <time>2023-01-29T10:11:18Z</time>
      </trkpt>
      <trkpt lat="45.64539" lon="6.58489">
        <ele>1670</ele>
        <time>2023-01-29T10:11:24Z</time>
      </trkpt>
      <trkpt lat="45.64528" lon="6.58477">
        <ele>1675</ele>
        <time>2023-01-29T10:11:37Z</time>
      </trkpt>
      <trkpt lat="45.64525" lon="6.58476">
        <ele>1676</ele>
        <time>2023-01-29T10:11:40Z</time>
      </trkpt>
      <trkpt lat="45.64522" lon="6.58473">
        <ele>1677</ele>
        <time>2023-01-29T10:11:44Z</time>
      </trkpt>
      <trkpt lat="45.6452" lon="6.58472">
        <ele>1677</ele>
        <time>2023-01-29T10:11:46Z</time>
      </trkpt>
      <trkpt lat="45.64518" lon="6.58471">
        <ele>1677</ele>
        <time>2023-01-29T10:11:48Z</time>
      </trkpt>
      <trkpt lat="45.64512" lon="6.58472">
        <ele>1677</ele>
        <time>2023-01-29T10:11:53Z</time>
      </trkpt>
      <trkpt lat="45.6451" lon="6.58471">
        <ele>1677</ele>
        <time>2023-01-29T10:11:55Z</time>
      </trkpt>
      <trkpt lat="45.64508" lon="6.5847">
        <ele>1677</ele>
        <time>2023-01-29T10:11:57Z</time>
      </trkpt>
      <trkpt lat="45.64506" lon="6.5847">
        <ele>1678</ele>
        <time>2023-01-29T10:11:59Z</time>
      </trkpt>
      <trkpt lat="45.64498" lon="6.58472">
        <ele>1680</ele>
        <time>2023-01-29T10:12:08Z</time>
      </trkpt>
      <trkpt lat="45.64496" lon="6.58473">
        <ele>1681</ele>
        <time>2023-01-29T10:12:11Z</time>
      </trkpt>
      <trkpt lat="45.64492" lon="6.58474">
        <ele>1683</ele>
        <time>2023-01-29T10:12:17Z</time>
      </trkpt>
      <trkpt lat="45.64473" lon="6.58482">
        <ele>1685</ele>
        <time>2023-01-29T10:12:40Z</time>
      </trkpt>
      <trkpt lat="45.64471" lon="6.58484">
        <ele>1685</ele>
        <time>2023-01-29T10:12:43Z</time>
      </trkpt>
      <trkpt lat="45.64461" lon="6.58489">
        <ele>1687</ele>
        <time>2023-01-29T10:12:56Z</time>
      </trkpt>
      <trkpt lat="45.6446" lon="6.5849">
        <ele>1688</ele>
        <time>2023-01-29T10:13:02Z</time>
      </trkpt>
      <trkpt lat="45.64459" lon="6.58493">
        <ele>1688</ele>
        <time>2023-01-29T10:13:08Z</time>
      </trkpt>
      <trkpt lat="45.64458" lon="6.58494">
        <ele>1688</ele>
        <time>2023-01-29T10:13:36Z</time>
      </trkpt>
      <trkpt lat="45.6446" lon="6.58496">
        <ele>1687</ele>
        <time>2023-01-29T10:16:56Z</time>
      </trkpt>
      <trkpt lat="45.64462" lon="6.58497">
        <ele>1688</ele>
        <time>2023-01-29T10:17:01Z</time>
      </trkpt>
      <trkpt lat="45.64465" lon="6.58497">
        <ele>1688</ele>
        <time>2023-01-29T10:17:04Z</time>
      </trkpt>
      <trkpt lat="45.64468" lon="6.58495">
        <ele>1687</ele>
        <time>2023-01-29T10:17:08Z</time>
      </trkpt>
      <trkpt lat="45.64485" lon="6.58501">
        <ele>1691</ele>
        <time>2023-01-29T10:17:29Z</time>
      </trkpt>
      <trkpt lat="45.64488" lon="6.58502">
        <ele>1692</ele>
        <time>2023-01-29T10:17:34Z</time>
      </trkpt>
      <trkpt lat="45.64491" lon="6.58503">
        <ele>1692</ele>
        <time>2023-01-29T10:17:38Z</time>
      </trkpt>
      <trkpt lat="45.645" lon="6.58509">
        <ele>1692</ele>
        <time>2023-01-29T10:17:49Z</time>
      </trkpt>
      <trkpt lat="45.64504" lon="6.58514">
        <ele>1691</ele>
        <time>2023-01-29T10:17:55Z</time>
      </trkpt>
      <trkpt lat="45.64523" lon="6.58525">
        <ele>1693</ele>
        <time>2023-01-29T10:18:20Z</time>
      </trkpt>
      <trkpt lat="45.6454" lon="6.58542">
        <ele>1696</ele>
        <time>2023-01-29T10:18:43Z</time>
      </trkpt>
      <trkpt lat="45.64543" lon="6.58548">
        <ele>1696</ele>
        <time>2023-01-29T10:18:49Z</time>
      </trkpt>
      <trkpt lat="45.64547" lon="6.58553">
        <ele>1696</ele>
        <time>2023-01-29T10:18:55Z</time>
      </trkpt>
      <trkpt lat="45.64549" lon="6.58555">
        <ele>1696</ele>
        <time>2023-01-29T10:18:58Z</time>
      </trkpt>
      <trkpt lat="45.64554" lon="6.5856">
        <ele>1696</ele>
        <time>2023-01-29T10:19:04Z</time>
      </trkpt>
      <trkpt lat="45.64565" lon="6.58569">
        <ele>1698</ele>
        <time>2023-01-29T10:19:16Z</time>
      </trkpt>
      <trkpt lat="45.64569" lon="6.58571">
        <ele>1698</ele>
        <time>2023-01-29T10:19:21Z</time>
      </trkpt>
      <trkpt lat="45.64573" lon="6.58571">
        <ele>1699</ele>
        <time>2023-01-29T10:19:26Z</time>
      </trkpt>
      <trkpt lat="45.64575" lon="6.58573">
        <ele>1699</ele>
        <time>2023-01-29T10:19:30Z</time>
      </trkpt>
      <trkpt lat="45.64576" lon="6.58582">
        <ele>1700</ele>
        <time>2023-01-29T10:19:37Z</time>
      </trkpt>
      <trkpt lat="45.64578" lon="6.58584">
        <ele>1701</ele>
        <time>2023-01-29T10:19:40Z</time>
      </trkpt>
      <trkpt lat="45.64581" lon="6.58586">
        <ele>1702</ele>
        <time>2023-01-29T10:19:44Z</time>
      </trkpt>
      <trkpt lat="45.64584" lon="6.5859">
        <ele>1702</ele>
        <time>2023-01-29T10:19:50Z</time>
      </trkpt>
      <trkpt lat="45.64589" lon="6.58596">
        <ele>1705</ele>
        <time>2023-01-29T10:19:58Z</time>
      </trkpt>
      <trkpt lat="45.6459" lon="6.58606">
        <ele>1706</ele>
        <time>2023-01-29T10:20:07Z</time>
      </trkpt>
      <trkpt lat="45.64592" lon="6.58609">
        <ele>1707</ele>
        <time>2023-01-29T10:20:11Z</time>
      </trkpt>
      <trkpt lat="45.64595" lon="6.5862">
        <ele>1709</ele>
        <time>2023-01-29T10:20:23Z</time>
      </trkpt>
      <trkpt lat="45.64596" lon="6.58623">
        <ele>1709</ele>
        <time>2023-01-29T10:20:26Z</time>
      </trkpt>
      <trkpt lat="45.64596" lon="6.58626">
        <ele>1709</ele>
        <time>2023-01-29T10:20:29Z</time>
      </trkpt>
      <trkpt lat="45.64595" lon="6.58629">
        <ele>1710</ele>
        <time>2023-01-29T10:20:34Z</time>
      </trkpt>
      <trkpt lat="45.64596" lon="6.58633">
        <ele>1710</ele>
        <time>2023-01-29T10:20:39Z</time>
      </trkpt>
      <trkpt lat="45.64597" lon="6.58635">
        <ele>1711</ele>
        <time>2023-01-29T10:20:44Z</time>
      </trkpt>
      <trkpt lat="45.64599" lon="6.58637">
        <ele>1711</ele>
        <time>2023-01-29T10:20:50Z</time>
      </trkpt>
      <trkpt lat="45.64608" lon="6.58651">
        <ele>1713</ele>
        <time>2023-01-29T10:21:13Z</time>
      </trkpt>
      <trkpt lat="45.6461" lon="6.58653">
        <ele>1714</ele>
        <time>2023-01-29T10:21:16Z</time>
      </trkpt>
      <trkpt lat="45.64614" lon="6.58658">
        <ele>1716</ele>
        <time>2023-01-29T10:21:24Z</time>
      </trkpt>
      <trkpt lat="45.64621" lon="6.58667">
        <ele>1718</ele>
        <time>2023-01-29T10:21:41Z</time>
      </trkpt>
      <trkpt lat="45.64626" lon="6.58677">
        <ele>1718</ele>
        <time>2023-01-29T10:21:54Z</time>
      </trkpt>
      <trkpt lat="45.64628" lon="6.5868">
        <ele>1720</ele>
        <time>2023-01-29T10:22:00Z</time>
      </trkpt>
      <trkpt lat="45.64626" lon="6.58694">
        <ele>1723</ele>
        <time>2023-01-29T10:22:14Z</time>
      </trkpt>
      <trkpt lat="45.64625" lon="6.58698">
        <ele>1725</ele>
        <time>2023-01-29T10:22:18Z</time>
      </trkpt>
      <trkpt lat="45.64623" lon="6.58705">
        <ele>1727</ele>
        <time>2023-01-29T10:22:25Z</time>
      </trkpt>
      <trkpt lat="45.64622" lon="6.58714">
        <ele>1728</ele>
        <time>2023-01-29T10:22:35Z</time>
      </trkpt>
      <trkpt lat="45.64621" lon="6.58717">
        <ele>1730</ele>
        <time>2023-01-29T10:22:39Z</time>
      </trkpt>
      <trkpt lat="45.64619" lon="6.5872">
        <ele>1730</ele>
        <time>2023-01-29T10:22:43Z</time>
      </trkpt>
      <trkpt lat="45.64613" lon="6.58722">
        <ele>1730</ele>
        <time>2023-01-29T10:22:55Z</time>
      </trkpt>
      <trkpt lat="45.64601" lon="6.58727">
        <ele>1732</ele>
        <time>2023-01-29T10:23:19Z</time>
      </trkpt>
      <trkpt lat="45.64598" lon="6.58728">
        <ele>1733</ele>
        <time>2023-01-29T10:23:23Z</time>
      </trkpt>
      <trkpt lat="45.64596" lon="6.58731">
        <ele>1735</ele>
        <time>2023-01-29T10:23:29Z</time>
      </trkpt>
      <trkpt lat="45.64595" lon="6.58734">
        <ele>1736</ele>
        <time>2023-01-29T10:23:34Z</time>
      </trkpt>
      <trkpt lat="45.64592" lon="6.58735">
        <ele>1737</ele>
        <time>2023-01-29T10:23:38Z</time>
      </trkpt>
      <trkpt lat="45.64593" lon="6.58738">
        <ele>1738</ele>
        <time>2023-01-29T10:23:50Z</time>
      </trkpt>
      <trkpt lat="45.64597" lon="6.58739">
        <ele>1738</ele>
        <time>2023-01-29T10:23:56Z</time>
      </trkpt>
      <trkpt lat="45.646" lon="6.58741">
        <ele>1738</ele>
        <time>2023-01-29T10:24:01Z</time>
      </trkpt>
      <trkpt lat="45.64616" lon="6.58753">
        <ele>1744</ele>
        <time>2023-01-29T10:24:32Z</time>
      </trkpt>
      <trkpt lat="45.6462" lon="6.58758">
        <ele>1744</ele>
        <time>2023-01-29T10:24:41Z</time>
      </trkpt>
      <trkpt lat="45.6462" lon="6.58761">
        <ele>1745</ele>
        <time>2023-01-29T10:24:47Z</time>
      </trkpt>
      <trkpt lat="45.64617" lon="6.58764">
        <ele>1748</ele>
        <time>2023-01-29T10:24:52Z</time>
      </trkpt>
      <trkpt lat="45.64615" lon="6.58767">
        <ele>1748</ele>
        <time>2023-01-29T10:24:56Z</time>
      </trkpt>
      <trkpt lat="45.64614" lon="6.58769">
        <ele>1749</ele>
        <time>2023-01-29T10:25:03Z</time>
      </trkpt>
      <trkpt lat="45.64612" lon="6.58771">
        <ele>1749</ele>
        <time>2023-01-29T10:25:06Z</time>
      </trkpt>
      <trkpt lat="45.64605" lon="6.58784">
        <ele>1753</ele>
        <time>2023-01-29T10:25:25Z</time>
      </trkpt>
      <trkpt lat="45.64603" lon="6.58785">
        <ele>1754</ele>
        <time>2023-01-29T10:25:30Z</time>
      </trkpt>
      <trkpt lat="45.64598" lon="6.58789">
        <ele>1756</ele>
        <time>2023-01-29T10:25:39Z</time>
      </trkpt>
      <trkpt lat="45.64594" lon="6.58797">
        <ele>1758</ele>
        <time>2023-01-29T10:25:52Z</time>
      </trkpt>
      <trkpt lat="45.64592" lon="6.58802">
        <ele>1758</ele>
        <time>2023-01-29T10:25:57Z</time>
      </trkpt>
      <trkpt lat="45.6459" lon="6.58805">
        <ele>1759</ele>
        <time>2023-01-29T10:26:01Z</time>
      </trkpt>
      <trkpt lat="45.64588" lon="6.58808">
        <ele>1760</ele>
        <time>2023-01-29T10:26:06Z</time>
      </trkpt>
      <trkpt lat="45.64585" lon="6.58813">
        <ele>1760</ele>
        <time>2023-01-29T10:26:14Z</time>
      </trkpt>
      <trkpt lat="45.64583" lon="6.58816">
        <ele>1761</ele>
        <time>2023-01-29T10:26:21Z</time>
      </trkpt>
      <trkpt lat="45.64581" lon="6.58819">
        <ele>1761</ele>
        <time>2023-01-29T10:26:26Z</time>
      </trkpt>
      <trkpt lat="45.64579" lon="6.58823">
        <ele>1761</ele>
        <time>2023-01-29T10:26:30Z</time>
      </trkpt>
      <trkpt lat="45.64581" lon="6.58826">
        <ele>1761</ele>
        <time>2023-01-29T10:27:17Z</time>
      </trkpt>
      <trkpt lat="45.64583" lon="6.58828">
        <ele>1760</ele>
        <time>2023-01-29T10:27:20Z</time>
      </trkpt>
      <trkpt lat="45.64585" lon="6.58831">
        <ele>1761</ele>
        <time>2023-01-29T10:27:24Z</time>
      </trkpt>
      <trkpt lat="45.64588" lon="6.58832">
        <ele>1762</ele>
        <time>2023-01-29T10:27:29Z</time>
      </trkpt>
      <trkpt lat="45.64599" lon="6.58838">
        <ele>1763</ele>
        <time>2023-01-29T10:27:47Z</time>
      </trkpt>
      <trkpt lat="45.64601" lon="6.58839">
        <ele>1764</ele>
        <time>2023-01-29T10:27:50Z</time>
      </trkpt>
      <trkpt lat="45.64604" lon="6.58838">
        <ele>1765</ele>
        <time>2023-01-29T10:27:55Z</time>
      </trkpt>
      <trkpt lat="45.64609" lon="6.5884">
        <ele>1768</ele>
        <time>2023-01-29T10:28:04Z</time>
      </trkpt>
      <trkpt lat="45.64617" lon="6.5885">
        <ele>1769</ele>
        <time>2023-01-29T10:28:20Z</time>
      </trkpt>
      <trkpt lat="45.64621" lon="6.58853">
        <ele>1770</ele>
        <time>2023-01-29T10:28:29Z</time>
      </trkpt>
      <trkpt lat="45.64626" lon="6.58854">
        <ele>1772</ele>
        <time>2023-01-29T10:28:37Z</time>
      </trkpt>
      <trkpt lat="45.64631" lon="6.58854">
        <ele>1774</ele>
        <time>2023-01-29T10:28:48Z</time>
      </trkpt>
      <trkpt lat="45.64637" lon="6.58855">
        <ele>1774</ele>
        <time>2023-01-29T10:28:57Z</time>
      </trkpt>
      <trkpt lat="45.64639" lon="6.58856">
        <ele>1775</ele>
        <time>2023-01-29T10:29:03Z</time>
      </trkpt>
      <trkpt lat="45.64644" lon="6.58858">
        <ele>1777</ele>
        <time>2023-01-29T10:29:10Z</time>
      </trkpt>
      <trkpt lat="45.64649" lon="6.58861">
        <ele>1779</ele>
        <time>2023-01-29T10:29:19Z</time>
      </trkpt>
      <trkpt lat="45.64651" lon="6.58861">
        <ele>1780</ele>
        <time>2023-01-29T10:29:24Z</time>
      </trkpt>
      <trkpt lat="45.64654" lon="6.58862">
        <ele>1781</ele>
        <time>2023-01-29T10:29:29Z</time>
      </trkpt>
      <trkpt lat="45.64661" lon="6.58867">
        <ele>1781</ele>
        <time>2023-01-29T10:29:46Z</time>
      </trkpt>
      <trkpt lat="45.64663" lon="6.58871">
        <ele>1780</ele>
        <time>2023-01-29T10:29:50Z</time>
      </trkpt>
      <trkpt lat="45.64663" lon="6.58883">
        <ele>1779</ele>
        <time>2023-01-29T10:30:02Z</time>
      </trkpt>
      <trkpt lat="45.64661" lon="6.5889">
        <ele>1781</ele>
        <time>2023-01-29T10:30:09Z</time>
      </trkpt>
      <trkpt lat="45.6466" lon="6.58893">
        <ele>1783</ele>
        <time>2023-01-29T10:30:12Z</time>
      </trkpt>
      <trkpt lat="45.64656" lon="6.58903">
        <ele>1785</ele>
        <time>2023-01-29T10:30:23Z</time>
      </trkpt>
      <trkpt lat="45.64653" lon="6.58905">
        <ele>1786</ele>
        <time>2023-01-29T10:30:27Z</time>
      </trkpt>
      <trkpt lat="45.64651" lon="6.58905">
        <ele>1787</ele>
        <time>2023-01-29T10:30:30Z</time>
      </trkpt>
      <trkpt lat="45.64648" lon="6.58905">
        <ele>1790</ele>
        <time>2023-01-29T10:30:38Z</time>
      </trkpt>
      <trkpt lat="45.64646" lon="6.58907">
        <ele>1791</ele>
        <time>2023-01-29T10:30:42Z</time>
      </trkpt>
      <trkpt lat="45.64641" lon="6.58913">
        <ele>1794</ele>
        <time>2023-01-29T10:30:53Z</time>
      </trkpt>
      <trkpt lat="45.64636" lon="6.58919">
        <ele>1793</ele>
        <time>2023-01-29T10:31:04Z</time>
      </trkpt>
      <trkpt lat="45.64633" lon="6.58924">
        <ele>1793</ele>
        <time>2023-01-29T10:31:12Z</time>
      </trkpt>
      <trkpt lat="45.64631" lon="6.58926">
        <ele>1793</ele>
        <time>2023-01-29T10:31:16Z</time>
      </trkpt>
      <trkpt lat="45.64628" lon="6.58932">
        <ele>1793</ele>
        <time>2023-01-29T10:31:27Z</time>
      </trkpt>
      <trkpt lat="45.64627" lon="6.58936">
        <ele>1793</ele>
        <time>2023-01-29T10:31:30Z</time>
      </trkpt>
      <trkpt lat="45.64624" lon="6.58939">
        <ele>1793</ele>
        <time>2023-01-29T10:31:38Z</time>
      </trkpt>
      <trkpt lat="45.64623" lon="6.58942">
        <ele>1795</ele>
        <time>2023-01-29T10:31:41Z</time>
      </trkpt>
      <trkpt lat="45.64623" lon="6.58945">
        <ele>1795</ele>
        <time>2023-01-29T10:31:46Z</time>
      </trkpt>
      <trkpt lat="45.64627" lon="6.58956">
        <ele>1797</ele>
        <time>2023-01-29T10:32:00Z</time>
      </trkpt>
      <trkpt lat="45.64629" lon="6.58959">
        <ele>1798</ele>
        <time>2023-01-29T10:32:04Z</time>
      </trkpt>
      <trkpt lat="45.64631" lon="6.58968">
        <ele>1799</ele>
        <time>2023-01-29T10:32:16Z</time>
      </trkpt>
      <trkpt lat="45.64631" lon="6.5897">
        <ele>1799</ele>
        <time>2023-01-29T10:32:19Z</time>
      </trkpt>
      <trkpt lat="45.64632" lon="6.58976">
        <ele>1801</ele>
        <time>2023-01-29T10:32:26Z</time>
      </trkpt>
      <trkpt lat="45.64632" lon="6.58982">
        <ele>1802</ele>
        <time>2023-01-29T10:32:34Z</time>
      </trkpt>
      <trkpt lat="45.64632" lon="6.58985">
        <ele>1802</ele>
        <time>2023-01-29T10:32:37Z</time>
      </trkpt>
      <trkpt lat="45.64634" lon="6.58992">
        <ele>1805</ele>
        <time>2023-01-29T10:32:47Z</time>
      </trkpt>
      <trkpt lat="45.64635" lon="6.58995">
        <ele>1806</ele>
        <time>2023-01-29T10:32:50Z</time>
      </trkpt>
      <trkpt lat="45.6464" lon="6.59006">
        <ele>1808</ele>
        <time>2023-01-29T10:33:09Z</time>
      </trkpt>
      <trkpt lat="45.64639" lon="6.59008">
        <ele>1808</ele>
        <time>2023-01-29T10:33:14Z</time>
      </trkpt>
      <trkpt lat="45.64644" lon="6.59024">
        <ele>1813</ele>
        <time>2023-01-29T10:33:32Z</time>
      </trkpt>
      <trkpt lat="45.64644" lon="6.59031">
        <ele>1817</ele>
        <time>2023-01-29T10:33:43Z</time>
      </trkpt>
      <trkpt lat="45.64651" lon="6.59042">
        <ele>1820</ele>
        <time>2023-01-29T10:34:02Z</time>
      </trkpt>
      <trkpt lat="45.64652" lon="6.59045">
        <ele>1821</ele>
        <time>2023-01-29T10:34:06Z</time>
      </trkpt>
      <trkpt lat="45.64647" lon="6.5905">
        <ele>1823</ele>
        <time>2023-01-29T10:34:14Z</time>
      </trkpt>
      <trkpt lat="45.64646" lon="6.59053">
        <ele>1824</ele>
        <time>2023-01-29T10:34:18Z</time>
      </trkpt>
      <trkpt lat="45.64647" lon="6.59057">
        <ele>1825</ele>
        <time>2023-01-29T10:34:24Z</time>
      </trkpt>
      <trkpt lat="45.64649" lon="6.5906">
        <ele>1826</ele>
        <time>2023-01-29T10:34:27Z</time>
      </trkpt>
      <trkpt lat="45.64653" lon="6.59064">
        <ele>1828</ele>
        <time>2023-01-29T10:34:36Z</time>
      </trkpt>
      <trkpt lat="45.64655" lon="6.59067">
        <ele>1829</ele>
        <time>2023-01-29T10:34:41Z</time>
      </trkpt>
      <trkpt lat="45.64654" lon="6.59071">
        <ele>1830</ele>
        <time>2023-01-29T10:34:45Z</time>
      </trkpt>
      <trkpt lat="45.64652" lon="6.59073">
        <ele>1831</ele>
        <time>2023-01-29T10:34:48Z</time>
      </trkpt>
      <trkpt lat="45.64649" lon="6.59075">
        <ele>1832</ele>
        <time>2023-01-29T10:34:53Z</time>
      </trkpt>
      <trkpt lat="45.64648" lon="6.59077">
        <ele>1832</ele>
        <time>2023-01-29T10:34:57Z</time>
      </trkpt>
      <trkpt lat="45.64644" lon="6.59076">
        <ele>1832</ele>
        <time>2023-01-29T10:35:02Z</time>
      </trkpt>
      <trkpt lat="45.64641" lon="6.59076">
        <ele>1831</ele>
        <time>2023-01-29T10:35:07Z</time>
      </trkpt>
      <trkpt lat="45.64639" lon="6.59076">
        <ele>1831</ele>
        <time>2023-01-29T10:35:12Z</time>
      </trkpt>
      <trkpt lat="45.64641" lon="6.59083">
        <ele>1833</ele>
        <time>2023-01-29T10:35:19Z</time>
      </trkpt>
      <trkpt lat="45.64643" lon="6.59084">
        <ele>1833</ele>
        <time>2023-01-29T10:35:23Z</time>
      </trkpt>
      <trkpt lat="45.64643" lon="6.59087">
        <ele>1834</ele>
        <time>2023-01-29T10:35:28Z</time>
      </trkpt>
      <trkpt lat="45.64645" lon="6.5909">
        <ele>1836</ele>
        <time>2023-01-29T10:35:33Z</time>
      </trkpt>
      <trkpt lat="45.64647" lon="6.59091">
        <ele>1837</ele>
        <time>2023-01-29T10:35:36Z</time>
      </trkpt>
      <trkpt lat="45.64655" lon="6.59101">
        <ele>1837</ele>
        <time>2023-01-29T10:35:55Z</time>
      </trkpt>
      <trkpt lat="45.64654" lon="6.59105">
        <ele>1838</ele>
        <time>2023-01-29T10:36:00Z</time>
      </trkpt>
      <trkpt lat="45.64652" lon="6.59108">
        <ele>1840</ele>
        <time>2023-01-29T10:36:05Z</time>
      </trkpt>
      <trkpt lat="45.6465" lon="6.59111">
        <ele>1842</ele>
        <time>2023-01-29T10:36:10Z</time>
      </trkpt>
      <trkpt lat="45.64646" lon="6.59116">
        <ele>1843</ele>
        <time>2023-01-29T10:36:18Z</time>
      </trkpt>
      <trkpt lat="45.64639" lon="6.59116">
        <ele>1842</ele>
        <time>2023-01-29T10:36:32Z</time>
      </trkpt>
      <trkpt lat="45.64642" lon="6.59117">
        <ele>1842</ele>
        <time>2023-01-29T10:36:42Z</time>
      </trkpt>
      <trkpt lat="45.64645" lon="6.59124">
        <ele>1843</ele>
        <time>2023-01-29T10:36:53Z</time>
      </trkpt>
      <trkpt lat="45.64646" lon="6.59127">
        <ele>1843</ele>
        <time>2023-01-29T10:36:56Z</time>
      </trkpt>
      <trkpt lat="45.64649" lon="6.59128">
        <ele>1843</ele>
        <time>2023-01-29T10:37:00Z</time>
      </trkpt>
      <trkpt lat="45.64651" lon="6.59128">
        <ele>1843</ele>
        <time>2023-01-29T10:37:06Z</time>
      </trkpt>
      <trkpt lat="45.64655" lon="6.59129">
        <ele>1844</ele>
        <time>2023-01-29T10:37:13Z</time>
      </trkpt>
      <trkpt lat="45.64656" lon="6.59131">
        <ele>1843</ele>
        <time>2023-01-29T10:37:23Z</time>
      </trkpt>
      <trkpt lat="45.64654" lon="6.59132">
        <ele>1843</ele>
        <time>2023-01-29T10:37:27Z</time>
      </trkpt>
      <trkpt lat="45.64649" lon="6.59137">
        <ele>1845</ele>
        <time>2023-01-29T10:37:36Z</time>
      </trkpt>
      <trkpt lat="45.64647" lon="6.5914">
        <ele>1846</ele>
        <time>2023-01-29T10:37:41Z</time>
      </trkpt>
      <trkpt lat="45.64644" lon="6.59142">
        <ele>1847</ele>
        <time>2023-01-29T10:37:46Z</time>
      </trkpt>
      <trkpt lat="45.64643" lon="6.59145">
        <ele>1850</ele>
        <time>2023-01-29T10:38:02Z</time>
      </trkpt>
      <trkpt lat="45.64646" lon="6.59146">
        <ele>1851</ele>
        <time>2023-01-29T10:38:05Z</time>
      </trkpt>
      <trkpt lat="45.64648" lon="6.59148">
        <ele>1851</ele>
        <time>2023-01-29T10:38:11Z</time>
      </trkpt>
      <trkpt lat="45.6465" lon="6.59152">
        <ele>1852</ele>
        <time>2023-01-29T10:38:19Z</time>
      </trkpt>
      <trkpt lat="45.64649" lon="6.59156">
        <ele>1852</ele>
        <time>2023-01-29T10:38:26Z</time>
      </trkpt>
      <trkpt lat="45.6465" lon="6.59159">
        <ele>1853</ele>
        <time>2023-01-29T10:38:31Z</time>
      </trkpt>
      <trkpt lat="45.64647" lon="6.59161">
        <ele>1854</ele>
        <time>2023-01-29T10:38:36Z</time>
      </trkpt>
      <trkpt lat="45.64644" lon="6.59162">
        <ele>1855</ele>
        <time>2023-01-29T10:38:43Z</time>
      </trkpt>
      <trkpt lat="45.64642" lon="6.59162">
        <ele>1856</ele>
        <time>2023-01-29T10:38:49Z</time>
      </trkpt>
      <trkpt lat="45.6464" lon="6.59162">
        <ele>1859</ele>
        <time>2023-01-29T10:39:00Z</time>
      </trkpt>
      <trkpt lat="45.64642" lon="6.59164">
        <ele>1859</ele>
        <time>2023-01-29T10:39:05Z</time>
      </trkpt>
      <trkpt lat="45.64644" lon="6.59168">
        <ele>1859</ele>
        <time>2023-01-29T10:39:09Z</time>
      </trkpt>
      <trkpt lat="45.64643" lon="6.59172">
        <ele>1860</ele>
        <time>2023-01-29T10:39:13Z</time>
      </trkpt>
      <trkpt lat="45.64645" lon="6.59179">
        <ele>1860</ele>
        <time>2023-01-29T10:39:24Z</time>
      </trkpt>
      <trkpt lat="45.64649" lon="6.59186">
        <ele>1860</ele>
        <time>2023-01-29T10:39:33Z</time>
      </trkpt>
      <trkpt lat="45.64651" lon="6.59188">
        <ele>1861</ele>
        <time>2023-01-29T10:39:38Z</time>
      </trkpt>
      <trkpt lat="45.64654" lon="6.59191">
        <ele>1862</ele>
        <time>2023-01-29T10:39:42Z</time>
      </trkpt>
      <trkpt lat="45.64651" lon="6.59193">
        <ele>1864</ele>
        <time>2023-01-29T10:39:50Z</time>
      </trkpt>
      <trkpt lat="45.64649" lon="6.59194">
        <ele>1865</ele>
        <time>2023-01-29T10:39:55Z</time>
      </trkpt>
      <trkpt lat="45.64647" lon="6.59197">
        <ele>1866</ele>
        <time>2023-01-29T10:39:58Z</time>
      </trkpt>
      <trkpt lat="45.64644" lon="6.59198">
        <ele>1867</ele>
        <time>2023-01-29T10:40:02Z</time>
      </trkpt>
      <trkpt lat="45.64642" lon="6.59198">
        <ele>1868</ele>
        <time>2023-01-29T10:40:05Z</time>
      </trkpt>
      <trkpt lat="45.64639" lon="6.59199">
        <ele>1869</ele>
        <time>2023-01-29T10:40:12Z</time>
      </trkpt>
      <trkpt lat="45.64637" lon="6.59201">
        <ele>1869</ele>
        <time>2023-01-29T10:40:16Z</time>
      </trkpt>
      <trkpt lat="45.64641" lon="6.59206">
        <ele>1869</ele>
        <time>2023-01-29T10:40:34Z</time>
      </trkpt>
      <trkpt lat="45.64644" lon="6.59208">
        <ele>1870</ele>
        <time>2023-01-29T10:40:41Z</time>
      </trkpt>
      <trkpt lat="45.64645" lon="6.59212">
        <ele>1871</ele>
        <time>2023-01-29T10:40:45Z</time>
      </trkpt>
      <trkpt lat="45.64646" lon="6.59215">
        <ele>1873</ele>
        <time>2023-01-29T10:40:51Z</time>
      </trkpt>
      <trkpt lat="45.64647" lon="6.59218">
        <ele>1874</ele>
        <time>2023-01-29T10:40:56Z</time>
      </trkpt>
      <trkpt lat="45.64645" lon="6.59221">
        <ele>1875</ele>
        <time>2023-01-29T10:41:02Z</time>
      </trkpt>
      <trkpt lat="45.64644" lon="6.59225">
        <ele>1875</ele>
        <time>2023-01-29T10:41:08Z</time>
      </trkpt>
      <trkpt lat="45.64644" lon="6.59229">
        <ele>1876</ele>
        <time>2023-01-29T10:41:14Z</time>
      </trkpt>
      <trkpt lat="45.64645" lon="6.59232">
        <ele>1877</ele>
        <time>2023-01-29T10:41:19Z</time>
      </trkpt>
      <trkpt lat="45.64645" lon="6.59236">
        <ele>1879</ele>
        <time>2023-01-29T10:41:24Z</time>
      </trkpt>
      <trkpt lat="45.64651" lon="6.59244">
        <ele>1882</ele>
        <time>2023-01-29T10:41:35Z</time>
      </trkpt>
      <trkpt lat="45.64651" lon="6.59247">
        <ele>1882</ele>
        <time>2023-01-29T10:41:39Z</time>
      </trkpt>
      <trkpt lat="45.64653" lon="6.5925">
        <ele>1882</ele>
        <time>2023-01-29T10:41:43Z</time>
      </trkpt>
      <trkpt lat="45.64654" lon="6.59255">
        <ele>1883</ele>
        <time>2023-01-29T10:41:51Z</time>
      </trkpt>
      <trkpt lat="45.64651" lon="6.59257">
        <ele>1883</ele>
        <time>2023-01-29T10:41:54Z</time>
      </trkpt>
      <trkpt lat="45.64649" lon="6.59256">
        <ele>1884</ele>
        <time>2023-01-29T10:42:02Z</time>
      </trkpt>
      <trkpt lat="45.64644" lon="6.59256">
        <ele>1884</ele>
        <time>2023-01-29T10:42:11Z</time>
      </trkpt>
      <trkpt lat="45.64642" lon="6.59254">
        <ele>1885</ele>
        <time>2023-01-29T10:42:17Z</time>
      </trkpt>
      <trkpt lat="45.64638" lon="6.59251">
        <ele>1886</ele>
        <time>2023-01-29T10:42:26Z</time>
      </trkpt>
      <trkpt lat="45.64631" lon="6.59247">
        <ele>1885</ele>
        <time>2023-01-29T10:42:36Z</time>
      </trkpt>
      <trkpt lat="45.64628" lon="6.59243">
        <ele>1886</ele>
        <time>2023-01-29T10:42:59Z</time>
      </trkpt>
      <trkpt lat="45.64621" lon="6.59239">
        <ele>1887</ele>
        <time>2023-01-29T10:43:10Z</time>
      </trkpt>
      <trkpt lat="45.64619" lon="6.59238">
        <ele>1888</ele>
        <time>2023-01-29T10:43:14Z</time>
      </trkpt>
      <trkpt lat="45.64616" lon="6.59238">
        <ele>1888</ele>
        <time>2023-01-29T10:43:18Z</time>
      </trkpt>
      <trkpt lat="45.64614" lon="6.59236">
        <ele>1888</ele>
        <time>2023-01-29T10:43:26Z</time>
      </trkpt>
      <trkpt lat="45.64612" lon="6.59232">
        <ele>1888</ele>
        <time>2023-01-29T10:43:31Z</time>
      </trkpt>
      <trkpt lat="45.6461" lon="6.5923">
        <ele>1888</ele>
        <time>2023-01-29T10:43:35Z</time>
      </trkpt>
      <trkpt lat="45.64607" lon="6.5923">
        <ele>1889</ele>
        <time>2023-01-29T10:43:39Z</time>
      </trkpt>
      <trkpt lat="45.64605" lon="6.5923">
        <ele>1890</ele>
        <time>2023-01-29T10:43:43Z</time>
      </trkpt>
      <trkpt lat="45.64603" lon="6.59232">
        <ele>1890</ele>
        <time>2023-01-29T10:43:46Z</time>
      </trkpt>
      <trkpt lat="45.64602" lon="6.59236">
        <ele>1892</ele>
        <time>2023-01-29T10:43:51Z</time>
      </trkpt>
      <trkpt lat="45.64605" lon="6.59238">
        <ele>1894</ele>
        <time>2023-01-29T10:43:58Z</time>
      </trkpt>
      <trkpt lat="45.6461" lon="6.59256">
        <ele>1898</ele>
        <time>2023-01-29T10:44:20Z</time>
      </trkpt>
      <trkpt lat="45.64611" lon="6.59259">
        <ele>1899</ele>
        <time>2023-01-29T10:44:25Z</time>
      </trkpt>
      <trkpt lat="45.6461" lon="6.59263">
        <ele>1901</ele>
        <time>2023-01-29T10:44:29Z</time>
      </trkpt>
      <trkpt lat="45.64617" lon="6.59277">
        <ele>1903</ele>
        <time>2023-01-29T10:44:49Z</time>
      </trkpt>
      <trkpt lat="45.64617" lon="6.5928">
        <ele>1904</ele>
        <time>2023-01-29T10:44:54Z</time>
      </trkpt>
      <trkpt lat="45.64615" lon="6.59283">
        <ele>1904</ele>
        <time>2023-01-29T10:44:57Z</time>
      </trkpt>
      <trkpt lat="45.64612" lon="6.59285">
        <ele>1905</ele>
        <time>2023-01-29T10:45:04Z</time>
      </trkpt>
      <trkpt lat="45.64613" lon="6.59292">
        <ele>1908</ele>
        <time>2023-01-29T10:45:25Z</time>
      </trkpt>
      <trkpt lat="45.64615" lon="6.59294">
        <ele>1908</ele>
        <time>2023-01-29T10:45:30Z</time>
      </trkpt>
      <trkpt lat="45.64616" lon="6.59298">
        <ele>1910</ele>
        <time>2023-01-29T10:45:35Z</time>
      </trkpt>
      <trkpt lat="45.64614" lon="6.593">
        <ele>1910</ele>
        <time>2023-01-29T10:45:40Z</time>
      </trkpt>
      <trkpt lat="45.64602" lon="6.59297">
        <ele>1911</ele>
        <time>2023-01-29T10:46:05Z</time>
      </trkpt>
      <trkpt lat="45.64601" lon="6.59294">
        <ele>1912</ele>
        <time>2023-01-29T10:46:09Z</time>
      </trkpt>
      <trkpt lat="45.64596" lon="6.59293">
        <ele>1912</ele>
        <time>2023-01-29T10:46:18Z</time>
      </trkpt>
      <trkpt lat="45.64595" lon="6.59291">
        <ele>1913</ele>
        <time>2023-01-29T10:46:22Z</time>
      </trkpt>
      <trkpt lat="45.64593" lon="6.59288">
        <ele>1914</ele>
        <time>2023-01-29T10:46:27Z</time>
      </trkpt>
      <trkpt lat="45.64587" lon="6.59281">
        <ele>1914</ele>
        <time>2023-01-29T10:46:38Z</time>
      </trkpt>
      <trkpt lat="45.64582" lon="6.59273">
        <ele>1915</ele>
        <time>2023-01-29T10:46:50Z</time>
      </trkpt>
      <trkpt lat="45.64581" lon="6.5927">
        <ele>1916</ele>
        <time>2023-01-29T10:46:54Z</time>
      </trkpt>
      <trkpt lat="45.64578" lon="6.59268">
        <ele>1916</ele>
        <time>2023-01-29T10:46:58Z</time>
      </trkpt>
      <trkpt lat="45.64576" lon="6.59267">
        <ele>1917</ele>
        <time>2023-01-29T10:47:04Z</time>
      </trkpt>
      <trkpt lat="45.64571" lon="6.59266">
        <ele>1918</ele>
        <time>2023-01-29T10:47:13Z</time>
      </trkpt>
      <trkpt lat="45.64569" lon="6.59265">
        <ele>1919</ele>
        <time>2023-01-29T10:47:18Z</time>
      </trkpt>
      <trkpt lat="45.64561" lon="6.59258">
        <ele>1920</ele>
        <time>2023-01-29T10:47:34Z</time>
      </trkpt>
      <trkpt lat="45.64557" lon="6.59254">
        <ele>1922</ele>
        <time>2023-01-29T10:47:43Z</time>
      </trkpt>
      <trkpt lat="45.64552" lon="6.59248">
        <ele>1924</ele>
        <time>2023-01-29T10:47:55Z</time>
      </trkpt>
      <trkpt lat="45.64551" lon="6.59251">
        <ele>1924</ele>
        <time>2023-01-29T10:48:03Z</time>
      </trkpt>
      <trkpt lat="45.64549" lon="6.59253">
        <ele>1927</ele>
        <time>2023-01-29T10:48:12Z</time>
      </trkpt>
      <trkpt lat="45.64548" lon="6.5925">
        <ele>1928</ele>
        <time>2023-01-29T10:48:23Z</time>
      </trkpt>
      <trkpt lat="45.64545" lon="6.59249">
        <ele>1929</ele>
        <time>2023-01-29T10:48:27Z</time>
      </trkpt>
      <trkpt lat="45.64541" lon="6.59247">
        <ele>1931</ele>
        <time>2023-01-29T10:48:37Z</time>
      </trkpt>
      <trkpt lat="45.6454" lon="6.59244">
        <ele>1932</ele>
        <time>2023-01-29T10:48:40Z</time>
      </trkpt>
      <trkpt lat="45.64533" lon="6.59242">
        <ele>1934</ele>
        <time>2023-01-29T10:48:50Z</time>
      </trkpt>
      <trkpt lat="45.6453" lon="6.59242">
        <ele>1935</ele>
        <time>2023-01-29T10:48:53Z</time>
      </trkpt>
      <trkpt lat="45.64527" lon="6.59241">
        <ele>1935</ele>
        <time>2023-01-29T10:48:59Z</time>
      </trkpt>
      <trkpt lat="45.64525" lon="6.59238">
        <ele>1935</ele>
        <time>2023-01-29T10:49:04Z</time>
      </trkpt>
      <trkpt lat="45.64522" lon="6.59238">
        <ele>1935</ele>
        <time>2023-01-29T10:49:10Z</time>
      </trkpt>
      <trkpt lat="45.6452" lon="6.59235">
        <ele>1935</ele>
        <time>2023-01-29T10:49:14Z</time>
      </trkpt>
      <trkpt lat="45.64512" lon="6.59231">
        <ele>1937</ele>
        <time>2023-01-29T10:49:25Z</time>
      </trkpt>
      <trkpt lat="45.6451" lon="6.59232">
        <ele>1938</ele>
        <time>2023-01-29T10:49:33Z</time>
      </trkpt>
      <trkpt lat="45.64508" lon="6.59235">
        <ele>1940</ele>
        <time>2023-01-29T10:49:39Z</time>
      </trkpt>
      <trkpt lat="45.64505" lon="6.59237">
        <ele>1941</ele>
        <time>2023-01-29T10:49:45Z</time>
      </trkpt>
      <trkpt lat="45.64503" lon="6.59235">
        <ele>1940</ele>
        <time>2023-01-29T10:49:50Z</time>
      </trkpt>
      <trkpt lat="45.64501" lon="6.59233">
        <ele>1940</ele>
        <time>2023-01-29T10:49:54Z</time>
      </trkpt>
      <trkpt lat="45.64499" lon="6.59232">
        <ele>1941</ele>
        <time>2023-01-29T10:49:59Z</time>
      </trkpt>
      <trkpt lat="45.64496" lon="6.59234">
        <ele>1943</ele>
        <time>2023-01-29T10:50:03Z</time>
      </trkpt>
      <trkpt lat="45.64485" lon="6.59234">
        <ele>1947</ele>
        <time>2023-01-29T10:50:24Z</time>
      </trkpt>
      <trkpt lat="45.64483" lon="6.59237">
        <ele>1947</ele>
        <time>2023-01-29T10:50:29Z</time>
      </trkpt>
      <trkpt lat="45.6448" lon="6.59238">
        <ele>1948</ele>
        <time>2023-01-29T10:50:33Z</time>
      </trkpt>
      <trkpt lat="45.64478" lon="6.59237">
        <ele>1948</ele>
        <time>2023-01-29T10:50:37Z</time>
      </trkpt>
      <trkpt lat="45.64475" lon="6.59237">
        <ele>1948</ele>
        <time>2023-01-29T10:50:41Z</time>
      </trkpt>
      <trkpt lat="45.64471" lon="6.59239">
        <ele>1950</ele>
        <time>2023-01-29T10:50:49Z</time>
      </trkpt>
      <trkpt lat="45.64469" lon="6.59242">
        <ele>1950</ele>
        <time>2023-01-29T10:50:54Z</time>
      </trkpt>
      <trkpt lat="45.64466" lon="6.59244">
        <ele>1951</ele>
        <time>2023-01-29T10:50:59Z</time>
      </trkpt>
      <trkpt lat="45.64464" lon="6.59245">
        <ele>1952</ele>
        <time>2023-01-29T10:51:03Z</time>
      </trkpt>
      <trkpt lat="45.64462" lon="6.59246">
        <ele>1952</ele>
        <time>2023-01-29T10:51:07Z</time>
      </trkpt>
      <trkpt lat="45.6446" lon="6.59248">
        <ele>1954</ele>
        <time>2023-01-29T10:51:13Z</time>
      </trkpt>
      <trkpt lat="45.6445" lon="6.5925">
        <ele>1957</ele>
        <time>2023-01-29T10:51:31Z</time>
      </trkpt>
      <trkpt lat="45.64433" lon="6.59259">
        <ele>1960</ele>
        <time>2023-01-29T10:52:04Z</time>
      </trkpt>
      <trkpt lat="45.64427" lon="6.59262">
        <ele>1961</ele>
        <time>2023-01-29T10:52:15Z</time>
      </trkpt>
      <trkpt lat="45.64429" lon="6.59264">
        <ele>1962</ele>
        <time>2023-01-29T10:52:35Z</time>
      </trkpt>
      <trkpt lat="45.64428" lon="6.59267">
        <ele>1962</ele>
        <time>2023-01-29T10:52:40Z</time>
      </trkpt>
      <trkpt lat="45.64425" lon="6.59268">
        <ele>1964</ele>
        <time>2023-01-29T10:52:53Z</time>
      </trkpt>
      <trkpt lat="45.64419" lon="6.59276">
        <ele>1968</ele>
        <time>2023-01-29T10:53:06Z</time>
      </trkpt>
      <trkpt lat="45.64417" lon="6.59277">
        <ele>1968</ele>
        <time>2023-01-29T10:53:10Z</time>
      </trkpt>
      <trkpt lat="45.64415" lon="6.59279">
        <ele>1968</ele>
        <time>2023-01-29T10:53:13Z</time>
      </trkpt>
      <trkpt lat="45.64411" lon="6.59285">
        <ele>1969</ele>
        <time>2023-01-29T10:53:22Z</time>
      </trkpt>
      <trkpt lat="45.64407" lon="6.59289">
        <ele>1971</ele>
        <time>2023-01-29T10:53:32Z</time>
      </trkpt>
      <trkpt lat="45.64402" lon="6.59296">
        <ele>1975</ele>
        <time>2023-01-29T10:53:48Z</time>
      </trkpt>
      <trkpt lat="45.64398" lon="6.59307">
        <ele>1980</ele>
        <time>2023-01-29T10:54:03Z</time>
      </trkpt>
      <trkpt lat="45.64396" lon="6.5931">
        <ele>1981</ele>
        <time>2023-01-29T10:54:08Z</time>
      </trkpt>
      <trkpt lat="45.64395" lon="6.59313">
        <ele>1982</ele>
        <time>2023-01-29T10:54:13Z</time>
      </trkpt>
      <trkpt lat="45.64396" lon="6.59321">
        <ele>1981</ele>
        <time>2023-01-29T10:54:23Z</time>
      </trkpt>
      <trkpt lat="45.64397" lon="6.59324">
        <ele>1982</ele>
        <time>2023-01-29T10:54:28Z</time>
      </trkpt>
      <trkpt lat="45.64397" lon="6.5933">
        <ele>1983</ele>
        <time>2023-01-29T10:54:37Z</time>
      </trkpt>
      <trkpt lat="45.64403" lon="6.59343">
        <ele>1985</ele>
        <time>2023-01-29T10:54:54Z</time>
      </trkpt>
      <trkpt lat="45.64407" lon="6.59348">
        <ele>1986</ele>
        <time>2023-01-29T10:55:02Z</time>
      </trkpt>
      <trkpt lat="45.64422" lon="6.5935">
        <ele>1988</ele>
        <time>2023-01-29T10:55:36Z</time>
      </trkpt>
      <trkpt lat="45.6443" lon="6.59355">
        <ele>1991</ele>
        <time>2023-01-29T10:55:50Z</time>
      </trkpt>
      <trkpt lat="45.64438" lon="6.59365">
        <ele>1995</ele>
        <time>2023-01-29T10:56:09Z</time>
      </trkpt>
      <trkpt lat="45.6444" lon="6.59366">
        <ele>1996</ele>
        <time>2023-01-29T10:56:13Z</time>
      </trkpt>
      <trkpt lat="45.64441" lon="6.59366">
        <ele>1998</ele>
        <time>2023-01-29T11:07:12Z</time>
      </trkpt>
      <trkpt lat="45.64443" lon="6.59366">
        <ele>1998</ele>
        <time>2023-01-29T11:09:32Z</time>
      </trkpt>
      <trkpt lat="45.64444" lon="6.59369">
        <ele>1997</ele>
        <time>2023-01-29T11:09:36Z</time>
      </trkpt>
      <trkpt lat="45.64444" lon="6.59372">
        <ele>1997</ele>
        <time>2023-01-29T11:09:53Z</time>
      </trkpt>
      <trkpt lat="45.64443" lon="6.59375">
        <ele>1998</ele>
        <time>2023-01-29T11:09:57Z</time>
      </trkpt>
      <trkpt lat="45.64445" lon="6.59376">
        <ele>1998</ele>
        <time>2023-01-29T11:10:01Z</time>
      </trkpt>
      <trkpt lat="45.64446" lon="6.59379">
        <ele>2000</ele>
        <time>2023-01-29T11:10:05Z</time>
      </trkpt>
      <trkpt lat="45.64445" lon="6.59382">
        <ele>2000</ele>
        <time>2023-01-29T11:10:09Z</time>
      </trkpt>
      <trkpt lat="45.64439" lon="6.59394">
        <ele>2003</ele>
        <time>2023-01-29T11:10:25Z</time>
      </trkpt>
      <trkpt lat="45.64431" lon="6.59414">
        <ele>2006</ele>
        <time>2023-01-29T11:10:57Z</time>
      </trkpt>
      <trkpt lat="45.64429" lon="6.59421">
        <ele>2007</ele>
        <time>2023-01-29T11:11:05Z</time>
      </trkpt>
      <trkpt lat="45.64427" lon="6.59424">
        <ele>2007</ele>
        <time>2023-01-29T11:11:09Z</time>
      </trkpt>
      <trkpt lat="45.64425" lon="6.59428">
        <ele>2008</ele>
        <time>2023-01-29T11:11:16Z</time>
      </trkpt>
      <trkpt lat="45.64423" lon="6.59432">
        <ele>2010</ele>
        <time>2023-01-29T11:11:23Z</time>
      </trkpt>
      <trkpt lat="45.64422" lon="6.59436">
        <ele>2010</ele>
        <time>2023-01-29T11:11:29Z</time>
      </trkpt>
      <trkpt lat="45.6442" lon="6.59438">
        <ele>2011</ele>
        <time>2023-01-29T11:11:32Z</time>
      </trkpt>
      <trkpt lat="45.64417" lon="6.59445">
        <ele>2015</ele>
        <time>2023-01-29T11:11:43Z</time>
      </trkpt>
      <trkpt lat="45.64417" lon="6.59448">
        <ele>2015</ele>
        <time>2023-01-29T11:11:48Z</time>
      </trkpt>
      <trkpt lat="45.64432" lon="6.59447">
        <ele>2012</ele>
        <time>2023-01-29T11:12:13Z</time>
      </trkpt>
      <trkpt lat="45.64434" lon="6.59448">
        <ele>2013</ele>
        <time>2023-01-29T11:12:17Z</time>
      </trkpt>
      <trkpt lat="45.64437" lon="6.59448">
        <ele>2013</ele>
        <time>2023-01-29T11:12:20Z</time>
      </trkpt>
      <trkpt lat="45.64455" lon="6.59448">
        <ele>2014</ele>
        <time>2023-01-29T11:12:47Z</time>
      </trkpt>
      <trkpt lat="45.64458" lon="6.5945">
        <ele>2013</ele>
        <time>2023-01-29T11:12:51Z</time>
      </trkpt>
      <trkpt lat="45.64459" lon="6.59452">
        <ele>2014</ele>
        <time>2023-01-29T11:12:53Z</time>
      </trkpt>
      <trkpt lat="45.64458" lon="6.59456">
        <ele>2015</ele>
        <time>2023-01-29T11:12:56Z</time>
      </trkpt>
      <trkpt lat="45.64456" lon="6.59458">
        <ele>2015</ele>
        <time>2023-01-29T11:12:59Z</time>
      </trkpt>
      <trkpt lat="45.64446" lon="6.59463">
        <ele>2017</ele>
        <time>2023-01-29T11:13:16Z</time>
      </trkpt>
      <trkpt lat="45.64431" lon="6.59474">
        <ele>2025</ele>
        <time>2023-01-29T11:13:43Z</time>
      </trkpt>
      <trkpt lat="45.64429" lon="6.59476">
        <ele>2026</ele>
        <time>2023-01-29T11:13:47Z</time>
      </trkpt>
      <trkpt lat="45.64426" lon="6.59478">
        <ele>2027</ele>
        <time>2023-01-29T11:13:51Z</time>
      </trkpt>
      <trkpt lat="45.64425" lon="6.5948">
        <ele>2027</ele>
        <time>2023-01-29T11:13:55Z</time>
      </trkpt>
      <trkpt lat="45.64422" lon="6.59486">
        <ele>2029</ele>
        <time>2023-01-29T11:14:03Z</time>
      </trkpt>
      <trkpt lat="45.64419" lon="6.59491">
        <ele>2029</ele>
        <time>2023-01-29T11:14:10Z</time>
      </trkpt>
      <trkpt lat="45.64419" lon="6.59494">
        <ele>2029</ele>
        <time>2023-01-29T11:14:14Z</time>
      </trkpt>
      <trkpt lat="45.64413" lon="6.59507">
        <ele>2032</ele>
        <time>2023-01-29T11:14:30Z</time>
      </trkpt>
      <trkpt lat="45.6441" lon="6.59516">
        <ele>2032</ele>
        <time>2023-01-29T11:14:38Z</time>
      </trkpt>
      <trkpt lat="45.64407" lon="6.59531">
        <ele>2033</ele>
        <time>2023-01-29T11:14:53Z</time>
      </trkpt>
      <trkpt lat="45.64404" lon="6.59536">
        <ele>2034</ele>
        <time>2023-01-29T11:14:59Z</time>
      </trkpt>
      <trkpt lat="45.64392" lon="6.59562">
        <ele>2034</ele>
        <time>2023-01-29T11:15:29Z</time>
      </trkpt>
      <trkpt lat="45.64383" lon="6.59573">
        <ele>2035</ele>
        <time>2023-01-29T11:15:44Z</time>
      </trkpt>
      <trkpt lat="45.6437" lon="6.59592">
        <ele>2038</ele>
        <time>2023-01-29T11:16:13Z</time>
      </trkpt>
      <trkpt lat="45.64365" lon="6.59606">
        <ele>2040</ele>
        <time>2023-01-29T11:16:30Z</time>
      </trkpt>
      <trkpt lat="45.64364" lon="6.59609">
        <ele>2041</ele>
        <time>2023-01-29T11:16:34Z</time>
      </trkpt>
      <trkpt lat="45.64363" lon="6.59628">
        <ele>2047</ele>
        <time>2023-01-29T11:16:58Z</time>
      </trkpt>
      <trkpt lat="45.64364" lon="6.59631">
        <ele>2047</ele>
        <time>2023-01-29T11:17:01Z</time>
      </trkpt>
      <trkpt lat="45.64364" lon="6.59633">
        <ele>2047</ele>
        <time>2023-01-29T11:17:05Z</time>
      </trkpt>
      <trkpt lat="45.64377" lon="6.59631">
        <ele>2046</ele>
        <time>2023-01-29T11:17:36Z</time>
      </trkpt>
      <trkpt lat="45.64394" lon="6.59625">
        <ele>2050</ele>
        <time>2023-01-29T11:18:09Z</time>
      </trkpt>
      <trkpt lat="45.64396" lon="6.59627">
        <ele>2050</ele>
        <time>2023-01-29T11:18:12Z</time>
      </trkpt>
      <trkpt lat="45.64406" lon="6.59628">
        <ele>2051</ele>
        <time>2023-01-29T11:18:29Z</time>
      </trkpt>
      <trkpt lat="45.64412" lon="6.59626">
        <ele>2050</ele>
        <time>2023-01-29T11:18:40Z</time>
      </trkpt>
      <trkpt lat="45.64414" lon="6.59625">
        <ele>2050</ele>
        <time>2023-01-29T11:18:44Z</time>
      </trkpt>
      <trkpt lat="45.64418" lon="6.59626">
        <ele>2051</ele>
        <time>2023-01-29T11:18:50Z</time>
      </trkpt>
      <trkpt lat="45.64437" lon="6.5963">
        <ele>2058</ele>
        <time>2023-01-29T11:19:24Z</time>
      </trkpt>
      <trkpt lat="45.64439" lon="6.59631">
        <ele>2059</ele>
        <time>2023-01-29T11:19:28Z</time>
      </trkpt>
      <trkpt lat="45.64441" lon="6.59632">
        <ele>2059</ele>
        <time>2023-01-29T11:19:31Z</time>
      </trkpt>
      <trkpt lat="45.64459" lon="6.59647">
        <ele>2063</ele>
        <time>2023-01-29T11:20:02Z</time>
      </trkpt>
      <trkpt lat="45.64461" lon="6.59648">
        <ele>2063</ele>
        <time>2023-01-29T11:20:05Z</time>
      </trkpt>
      <trkpt lat="45.64465" lon="6.59651">
        <ele>2064</ele>
        <time>2023-01-29T11:20:12Z</time>
      </trkpt>
      <trkpt lat="45.64466" lon="6.59652">
        <ele>2064</ele>
        <time>2023-01-29T11:20:15Z</time>
      </trkpt>
      <trkpt lat="45.64473" lon="6.5966">
        <ele>2065</ele>
        <time>2023-01-29T11:20:28Z</time>
      </trkpt>
      <trkpt lat="45.64476" lon="6.59665">
        <ele>2065</ele>
        <time>2023-01-29T11:20:35Z</time>
      </trkpt>
      <trkpt lat="45.64476" lon="6.59665">
        <ele>2065</ele>
        <time>2023-01-29T11:21:36Z</time>
      </trkpt>
      <trkpt lat="45.64477" lon="6.5967">
        <ele>2064</ele>
        <time>2023-01-29T11:21:41Z</time>
      </trkpt>
      <trkpt lat="45.64479" lon="6.59673">
        <ele>2066</ele>
        <time>2023-01-29T11:21:51Z</time>
      </trkpt>
      <trkpt lat="45.64477" lon="6.59674">
        <ele>2067</ele>
        <time>2023-01-29T11:21:54Z</time>
      </trkpt>
      <trkpt lat="45.64475" lon="6.59673">
        <ele>2068</ele>
        <time>2023-01-29T11:21:57Z</time>
      </trkpt>
      <trkpt lat="45.64473" lon="6.59673">
        <ele>2068</ele>
        <time>2023-01-29T11:22:00Z</time>
      </trkpt>
      <trkpt lat="45.64468" lon="6.59674">
        <ele>2069</ele>
        <time>2023-01-29T11:22:14Z</time>
      </trkpt>
      <trkpt lat="45.64462" lon="6.59676">
        <ele>2070</ele>
        <time>2023-01-29T11:22:24Z</time>
      </trkpt>
      <trkpt lat="45.6446" lon="6.59676">
        <ele>2071</ele>
        <time>2023-01-29T11:22:28Z</time>
      </trkpt>
      <trkpt lat="45.64459" lon="6.59678">
        <ele>2072</ele>
        <time>2023-01-29T11:22:31Z</time>
      </trkpt>
      <trkpt lat="45.6446" lon="6.5968">
        <ele>2072</ele>
        <time>2023-01-29T11:22:37Z</time>
      </trkpt>
      <trkpt lat="45.64463" lon="6.59685">
        <ele>2074</ele>
        <time>2023-01-29T11:22:44Z</time>
      </trkpt>
      <trkpt lat="45.64464" lon="6.59688">
        <ele>2074</ele>
        <time>2023-01-29T11:22:48Z</time>
      </trkpt>
      <trkpt lat="45.64464" lon="6.59691">
        <ele>2074</ele>
        <time>2023-01-29T11:22:52Z</time>
      </trkpt>
      <trkpt lat="45.64464" lon="6.59693">
        <ele>2075</ele>
        <time>2023-01-29T11:22:56Z</time>
      </trkpt>
      <trkpt lat="45.64464" lon="6.597">
        <ele>2075</ele>
        <time>2023-01-29T11:23:02Z</time>
      </trkpt>
      <trkpt lat="45.64465" lon="6.59704">
        <ele>2073</ele>
        <time>2023-01-29T11:23:18Z</time>
      </trkpt>
      <trkpt lat="45.64463" lon="6.59706">
        <ele>2073</ele>
        <time>2023-01-29T11:23:20Z</time>
      </trkpt>
      <trkpt lat="45.64463" lon="6.5971">
        <ele>2074</ele>
        <time>2023-01-29T11:23:23Z</time>
      </trkpt>
      <trkpt lat="45.64462" lon="6.59712">
        <ele>2074</ele>
        <time>2023-01-29T11:23:25Z</time>
      </trkpt>
      <trkpt lat="45.64462" lon="6.59715">
        <ele>2075</ele>
        <time>2023-01-29T11:23:27Z</time>
      </trkpt>
      <trkpt lat="45.64461" lon="6.59717">
        <ele>2076</ele>
        <time>2023-01-29T11:23:31Z</time>
      </trkpt>
      <trkpt lat="45.64459" lon="6.59718">
        <ele>2077</ele>
        <time>2023-01-29T11:23:35Z</time>
      </trkpt>
      <trkpt lat="45.64457" lon="6.59718">
        <ele>2078</ele>
        <time>2023-01-29T11:23:39Z</time>
      </trkpt>
      <trkpt lat="45.64455" lon="6.5972">
        <ele>2077</ele>
        <time>2023-01-29T11:23:42Z</time>
      </trkpt>
      <trkpt lat="45.64454" lon="6.59726">
        <ele>2078</ele>
        <time>2023-01-29T11:23:47Z</time>
      </trkpt>
      <trkpt lat="45.64451" lon="6.59728">
        <ele>2078</ele>
        <time>2023-01-29T11:23:52Z</time>
      </trkpt>
      <trkpt lat="45.6445" lon="6.59731">
        <ele>2079</ele>
        <time>2023-01-29T11:23:56Z</time>
      </trkpt>
      <trkpt lat="45.64448" lon="6.59733">
        <ele>2078</ele>
        <time>2023-01-29T11:23:59Z</time>
      </trkpt>
      <trkpt lat="45.64441" lon="6.59753">
        <ele>2079</ele>
        <time>2023-01-29T11:24:19Z</time>
      </trkpt>
      <trkpt lat="45.64439" lon="6.59758">
        <ele>2079</ele>
        <time>2023-01-29T11:24:24Z</time>
      </trkpt>
      <trkpt lat="45.64425" lon="6.59782">
        <ele>2082</ele>
        <time>2023-01-29T11:24:50Z</time>
      </trkpt>
      <trkpt lat="45.64424" lon="6.59784">
        <ele>2081</ele>
        <time>2023-01-29T11:24:54Z</time>
      </trkpt>
      <trkpt lat="45.64413" lon="6.59809">
        <ele>2085</ele>
        <time>2023-01-29T11:25:24Z</time>
      </trkpt>
      <trkpt lat="45.64408" lon="6.59817">
        <ele>2086</ele>
        <time>2023-01-29T11:25:37Z</time>
      </trkpt>
      <trkpt lat="45.64407" lon="6.59819">
        <ele>2086</ele>
        <time>2023-01-29T11:25:41Z</time>
      </trkpt>
      <trkpt lat="45.64401" lon="6.59836">
        <ele>2091</ele>
        <time>2023-01-29T11:26:05Z</time>
      </trkpt>
      <trkpt lat="45.644" lon="6.59839">
        <ele>2091</ele>
        <time>2023-01-29T11:26:13Z</time>
      </trkpt>
      <trkpt lat="45.64398" lon="6.59841">
        <ele>2092</ele>
        <time>2023-01-29T11:26:19Z</time>
      </trkpt>
      <trkpt lat="45.64396" lon="6.59844">
        <ele>2093</ele>
        <time>2023-01-29T11:26:22Z</time>
      </trkpt>
      <trkpt lat="45.64391" lon="6.59853">
        <ele>2092</ele>
        <time>2023-01-29T11:26:33Z</time>
      </trkpt>
      <trkpt lat="45.6439" lon="6.59857">
        <ele>2092</ele>
        <time>2023-01-29T11:26:36Z</time>
      </trkpt>
      <trkpt lat="45.6439" lon="6.59861">
        <ele>2092</ele>
        <time>2023-01-29T11:26:39Z</time>
      </trkpt>
      <trkpt lat="45.64391" lon="6.59863">
        <ele>2091</ele>
        <time>2023-01-29T11:26:47Z</time>
      </trkpt>
      <trkpt lat="45.64391" lon="6.59866">
        <ele>2092</ele>
        <time>2023-01-29T11:26:49Z</time>
      </trkpt>
      <trkpt lat="45.64392" lon="6.59869">
        <ele>2093</ele>
        <time>2023-01-29T11:26:55Z</time>
      </trkpt>
      <trkpt lat="45.64393" lon="6.59871">
        <ele>2097</ele>
        <time>2023-01-29T11:27:09Z</time>
      </trkpt>
      <trkpt lat="45.64398" lon="6.5989">
        <ele>2095</ele>
        <time>2023-01-29T11:27:19Z</time>
      </trkpt>
      <trkpt lat="45.64402" lon="6.599">
        <ele>2093</ele>
        <time>2023-01-29T11:27:25Z</time>
      </trkpt>
      <trkpt lat="45.64404" lon="6.59906">
        <ele>2092</ele>
        <time>2023-01-29T11:27:29Z</time>
      </trkpt>
      <trkpt lat="45.6441" lon="6.5992">
        <ele>2089</ele>
        <time>2023-01-29T11:27:37Z</time>
      </trkpt>
      <trkpt lat="45.64414" lon="6.59929">
        <ele>2087</ele>
        <time>2023-01-29T11:27:44Z</time>
      </trkpt>
      <trkpt lat="45.64416" lon="6.59932">
        <ele>2087</ele>
        <time>2023-01-29T11:27:47Z</time>
      </trkpt>
      <trkpt lat="45.64419" lon="6.59939">
        <ele>2086</ele>
        <time>2023-01-29T11:27:51Z</time>
      </trkpt>
      <trkpt lat="45.64421" lon="6.59944">
        <ele>2084</ele>
        <time>2023-01-29T11:27:55Z</time>
      </trkpt>
      <trkpt lat="45.6443" lon="6.59957">
        <ele>2085</ele>
        <time>2023-01-29T11:28:06Z</time>
      </trkpt>
      <trkpt lat="45.64436" lon="6.59967">
        <ele>2083</ele>
        <time>2023-01-29T11:28:16Z</time>
      </trkpt>
      <trkpt lat="45.64439" lon="6.59973">
        <ele>2083</ele>
        <time>2023-01-29T11:28:23Z</time>
      </trkpt>
      <trkpt lat="45.6444" lon="6.59974">
        <ele>2083</ele>
        <time>2023-01-29T11:28:27Z</time>
      </trkpt>
      <trkpt lat="45.64449" lon="6.59985">
        <ele>2084</ele>
        <time>2023-01-29T11:28:41Z</time>
      </trkpt>
      <trkpt lat="45.6446" lon="6.59996">
        <ele>2087</ele>
        <time>2023-01-29T11:28:57Z</time>
      </trkpt>
      <trkpt lat="45.6447" lon="6.60012">
        <ele>2091</ele>
        <time>2023-01-29T11:29:19Z</time>
      </trkpt>
      <trkpt lat="45.64475" lon="6.60018">
        <ele>2089</ele>
        <time>2023-01-29T11:29:27Z</time>
      </trkpt>
      <trkpt lat="45.64485" lon="6.60022">
        <ele>2092</ele>
        <time>2023-01-29T11:29:41Z</time>
      </trkpt>
      <trkpt lat="45.64494" lon="6.60026">
        <ele>2092</ele>
        <time>2023-01-29T11:29:54Z</time>
      </trkpt>
      <trkpt lat="45.64497" lon="6.60028">
        <ele>2093</ele>
        <time>2023-01-29T11:30:00Z</time>
      </trkpt>
      <trkpt lat="45.64499" lon="6.60031">
        <ele>2094</ele>
        <time>2023-01-29T11:30:03Z</time>
      </trkpt>
      <trkpt lat="45.64502" lon="6.60033">
        <ele>2094</ele>
        <time>2023-01-29T11:30:05Z</time>
      </trkpt>
      <trkpt lat="45.64508" lon="6.60033">
        <ele>2094</ele>
        <time>2023-01-29T11:30:13Z</time>
      </trkpt>
      <trkpt lat="45.64518" lon="6.60035">
        <ele>2095</ele>
        <time>2023-01-29T11:30:25Z</time>
      </trkpt>
      <trkpt lat="45.6452" lon="6.60036">
        <ele>2094</ele>
        <time>2023-01-29T11:30:30Z</time>
      </trkpt>
      <trkpt lat="45.64529" lon="6.6004">
        <ele>2092</ele>
        <time>2023-01-29T11:30:56Z</time>
      </trkpt>
      <trkpt lat="45.64531" lon="6.6004">
        <ele>2093</ele>
        <time>2023-01-29T11:30:59Z</time>
      </trkpt>
      <trkpt lat="45.64535" lon="6.60041">
        <ele>2093</ele>
        <time>2023-01-29T11:31:05Z</time>
      </trkpt>
      <trkpt lat="45.6454" lon="6.60041">
        <ele>2092</ele>
        <time>2023-01-29T11:31:11Z</time>
      </trkpt>
      <trkpt lat="45.64545" lon="6.60043">
        <ele>2093</ele>
        <time>2023-01-29T11:31:18Z</time>
      </trkpt>
      <trkpt lat="45.64547" lon="6.60043">
        <ele>2093</ele>
        <time>2023-01-29T11:31:20Z</time>
      </trkpt>
      <trkpt lat="45.64553" lon="6.60044">
        <ele>2094</ele>
        <time>2023-01-29T11:31:30Z</time>
      </trkpt>
      <trkpt lat="45.64565" lon="6.60042">
        <ele>2095</ele>
        <time>2023-01-29T11:31:48Z</time>
      </trkpt>
      <trkpt lat="45.6457" lon="6.60041">
        <ele>2094</ele>
        <time>2023-01-29T11:31:55Z</time>
      </trkpt>
      <trkpt lat="45.64572" lon="6.60041">
        <ele>2093</ele>
        <time>2023-01-29T11:31:58Z</time>
      </trkpt>
      <trkpt lat="45.64578" lon="6.60036">
        <ele>2095</ele>
        <time>2023-01-29T11:32:08Z</time>
      </trkpt>
      <trkpt lat="45.64587" lon="6.60035">
        <ele>2096</ele>
        <time>2023-01-29T11:32:20Z</time>
      </trkpt>
      <trkpt lat="45.64589" lon="6.60034">
        <ele>2096</ele>
        <time>2023-01-29T11:32:24Z</time>
      </trkpt>
      <trkpt lat="45.64591" lon="6.60033">
        <ele>2097</ele>
        <time>2023-01-29T11:32:27Z</time>
      </trkpt>
      <trkpt lat="45.64596" lon="6.60034">
        <ele>2097</ele>
        <time>2023-01-29T11:32:36Z</time>
      </trkpt>
      <trkpt lat="45.64617" lon="6.60055">
        <ele>2109</ele>
        <time>2023-01-29T11:33:07Z</time>
      </trkpt>
      <trkpt lat="45.64625" lon="6.60065">
        <ele>2108</ele>
        <time>2023-01-29T11:33:22Z</time>
      </trkpt>
      <trkpt lat="45.64631" lon="6.60072">
        <ele>2109</ele>
        <time>2023-01-29T11:33:33Z</time>
      </trkpt>
      <trkpt lat="45.64633" lon="6.60074">
        <ele>2110</ele>
        <time>2023-01-29T11:33:36Z</time>
      </trkpt>
      <trkpt lat="45.64657" lon="6.60094">
        <ele>2110</ele>
        <time>2023-01-29T11:34:07Z</time>
      </trkpt>
      <trkpt lat="45.6466" lon="6.60097">
        <ele>2110</ele>
        <time>2023-01-29T11:34:14Z</time>
      </trkpt>
      <trkpt lat="45.64666" lon="6.60102">
        <ele>2113</ele>
        <time>2023-01-29T11:34:26Z</time>
      </trkpt>
      <trkpt lat="45.64669" lon="6.60103">
        <ele>2114</ele>
        <time>2023-01-29T11:34:29Z</time>
      </trkpt>
      <trkpt lat="45.64674" lon="6.60106">
        <ele>2114</ele>
        <time>2023-01-29T11:34:38Z</time>
      </trkpt>
      <trkpt lat="45.64688" lon="6.60107">
        <ele>2115</ele>
        <time>2023-01-29T11:34:58Z</time>
      </trkpt>
      <trkpt lat="45.64691" lon="6.60105">
        <ele>2115</ele>
        <time>2023-01-29T11:35:02Z</time>
      </trkpt>
      <trkpt lat="45.64694" lon="6.60105">
        <ele>2115</ele>
        <time>2023-01-29T11:35:05Z</time>
      </trkpt>
      <trkpt lat="45.647" lon="6.60101">
        <ele>2115</ele>
        <time>2023-01-29T11:35:12Z</time>
      </trkpt>
      <trkpt lat="45.64703" lon="6.60099">
        <ele>2114</ele>
        <time>2023-01-29T11:35:15Z</time>
      </trkpt>
      <trkpt lat="45.64717" lon="6.60091">
        <ele>2115</ele>
        <time>2023-01-29T11:35:33Z</time>
      </trkpt>
      <trkpt lat="45.64719" lon="6.60089">
        <ele>2115</ele>
        <time>2023-01-29T11:35:36Z</time>
      </trkpt>
      <trkpt lat="45.64721" lon="6.60086">
        <ele>2115</ele>
        <time>2023-01-29T11:35:41Z</time>
      </trkpt>
      <trkpt lat="45.64722" lon="6.60084">
        <ele>2116</ele>
        <time>2023-01-29T11:35:49Z</time>
      </trkpt>
      <trkpt lat="45.64722" lon="6.60083">
        <ele>2119</ele>
        <time>2023-01-29T11:36:01Z</time>
      </trkpt>
      <trkpt lat="45.64725" lon="6.60083">
        <ele>2122</ele>
        <time>2023-01-29T11:36:05Z</time>
      </trkpt>
      <trkpt lat="45.64727" lon="6.60082">
        <ele>2123</ele>
        <time>2023-01-29T11:36:08Z</time>
      </trkpt>
      <trkpt lat="45.64729" lon="6.6008">
        <ele>2123</ele>
        <time>2023-01-29T11:36:12Z</time>
      </trkpt>
      <trkpt lat="45.64732" lon="6.60079">
        <ele>2123</ele>
        <time>2023-01-29T11:36:16Z</time>
      </trkpt>
      <trkpt lat="45.64734" lon="6.6008">
        <ele>2122</ele>
        <time>2023-01-29T11:36:21Z</time>
      </trkpt>
      <trkpt lat="45.64742" lon="6.60076">
        <ele>2123</ele>
        <time>2023-01-29T11:36:33Z</time>
      </trkpt>
      <trkpt lat="45.64746" lon="6.60074">
        <ele>2126</ele>
        <time>2023-01-29T11:36:41Z</time>
      </trkpt>
      <trkpt lat="45.64748" lon="6.60073">
        <ele>2126</ele>
        <time>2023-01-29T11:36:49Z</time>
      </trkpt>
      <trkpt lat="45.64751" lon="6.60072">
        <ele>2126</ele>
        <time>2023-01-29T11:37:28Z</time>
      </trkpt>
      <trkpt lat="45.64756" lon="6.60073">
        <ele>2127</ele>
        <time>2023-01-29T11:37:36Z</time>
      </trkpt>
      <trkpt lat="45.64758" lon="6.60073">
        <ele>2128</ele>
        <time>2023-01-29T11:37:39Z</time>
      </trkpt>
      <trkpt lat="45.64761" lon="6.60073">
        <ele>2129</ele>
        <time>2023-01-29T11:37:43Z</time>
      </trkpt>
      <trkpt lat="45.64764" lon="6.60073">
        <ele>2130</ele>
        <time>2023-01-29T11:37:48Z</time>
      </trkpt>
      <trkpt lat="45.64772" lon="6.6007">
        <ele>2134</ele>
        <time>2023-01-29T11:38:01Z</time>
      </trkpt>
      <trkpt lat="45.64778" lon="6.60063">
        <ele>2137</ele>
        <time>2023-01-29T11:38:11Z</time>
      </trkpt>
      <trkpt lat="45.64783" lon="6.60063">
        <ele>2139</ele>
        <time>2023-01-29T11:38:21Z</time>
      </trkpt>
      <trkpt lat="45.6479" lon="6.60064">
        <ele>2142</ele>
        <time>2023-01-29T11:38:33Z</time>
      </trkpt>
      <trkpt lat="45.64795" lon="6.60065">
        <ele>2142</ele>
        <time>2023-01-29T11:38:40Z</time>
      </trkpt>
      <trkpt lat="45.64803" lon="6.60061">
        <ele>2142</ele>
        <time>2023-01-29T11:38:52Z</time>
      </trkpt>
      <trkpt lat="45.64808" lon="6.6006">
        <ele>2143</ele>
        <time>2023-01-29T11:39:02Z</time>
      </trkpt>
      <trkpt lat="45.64811" lon="6.60059">
        <ele>2143</ele>
        <time>2023-01-29T11:39:07Z</time>
      </trkpt>
      <trkpt lat="45.64818" lon="6.60054">
        <ele>2145</ele>
        <time>2023-01-29T11:39:19Z</time>
      </trkpt>
      <trkpt lat="45.64825" lon="6.60053">
        <ele>2148</ele>
        <time>2023-01-29T11:39:31Z</time>
      </trkpt>
      <trkpt lat="45.64834" lon="6.60053">
        <ele>2149</ele>
        <time>2023-01-29T11:39:48Z</time>
      </trkpt>
      <trkpt lat="45.64837" lon="6.60054">
        <ele>2149</ele>
        <time>2023-01-29T11:39:52Z</time>
      </trkpt>
      <trkpt lat="45.64845" lon="6.60048">
        <ele>2150</ele>
        <time>2023-01-29T11:40:03Z</time>
      </trkpt>
      <trkpt lat="45.6485" lon="6.60047">
        <ele>2152</ele>
        <time>2023-01-29T11:40:12Z</time>
      </trkpt>
      <trkpt lat="45.64854" lon="6.60046">
        <ele>2153</ele>
        <time>2023-01-29T11:40:20Z</time>
      </trkpt>
      <trkpt lat="45.64856" lon="6.60046">
        <ele>2154</ele>
        <time>2023-01-29T11:40:23Z</time>
      </trkpt>
      <trkpt lat="45.64862" lon="6.60046">
        <ele>2155</ele>
        <time>2023-01-29T11:40:31Z</time>
      </trkpt>
      <trkpt lat="45.64864" lon="6.60046">
        <ele>2154</ele>
        <time>2023-01-29T11:40:50Z</time>
      </trkpt>
      <trkpt lat="45.64866" lon="6.60047">
        <ele>2154</ele>
        <time>2023-01-29T11:40:54Z</time>
      </trkpt>
      <trkpt lat="45.64875" lon="6.60052">
        <ele>2159</ele>
        <time>2023-01-29T11:41:11Z</time>
      </trkpt>
      <trkpt lat="45.64878" lon="6.60054">
        <ele>2158</ele>
        <time>2023-01-29T11:41:15Z</time>
      </trkpt>
      <trkpt lat="45.6488" lon="6.60056">
        <ele>2159</ele>
        <time>2023-01-29T11:41:19Z</time>
      </trkpt>
      <trkpt lat="45.64882" lon="6.60057">
        <ele>2160</ele>
        <time>2023-01-29T11:41:24Z</time>
      </trkpt>
      <trkpt lat="45.6489" lon="6.60052">
        <ele>2160</ele>
        <time>2023-01-29T11:41:37Z</time>
      </trkpt>
      <trkpt lat="45.64892" lon="6.60051">
        <ele>2161</ele>
        <time>2023-01-29T11:41:40Z</time>
      </trkpt>
      <trkpt lat="45.64896" lon="6.60048">
        <ele>2163</ele>
        <time>2023-01-29T11:41:49Z</time>
      </trkpt>
      <trkpt lat="45.64899" lon="6.60047">
        <ele>2164</ele>
        <time>2023-01-29T11:41:55Z</time>
      </trkpt>
      <trkpt lat="45.649" lon="6.60045">
        <ele>2165</ele>
        <time>2023-01-29T11:41:59Z</time>
      </trkpt>
      <trkpt lat="45.64902" lon="6.60044">
        <ele>2165</ele>
        <time>2023-01-29T11:42:03Z</time>
      </trkpt>
      <trkpt lat="45.64906" lon="6.60043">
        <ele>2165</ele>
        <time>2023-01-29T11:42:08Z</time>
      </trkpt>
      <trkpt lat="45.64916" lon="6.60043">
        <ele>2167</ele>
        <time>2023-01-29T11:42:26Z</time>
      </trkpt>
      <trkpt lat="45.64933" lon="6.60037">
        <ele>2172</ele>
        <time>2023-01-29T11:42:56Z</time>
      </trkpt>
      <trkpt lat="45.64937" lon="6.60035">
        <ele>2173</ele>
        <time>2023-01-29T11:43:04Z</time>
      </trkpt>
      <trkpt lat="45.6494" lon="6.60031">
        <ele>2174</ele>
        <time>2023-01-29T11:43:11Z</time>
      </trkpt>
      <trkpt lat="45.64942" lon="6.60028">
        <ele>2176</ele>
        <time>2023-01-29T11:43:16Z</time>
      </trkpt>
      <trkpt lat="45.64943" lon="6.60024">
        <ele>2176</ele>
        <time>2023-01-29T11:43:22Z</time>
      </trkpt>
      <trkpt lat="45.64945" lon="6.60022">
        <ele>2178</ele>
        <time>2023-01-29T11:43:26Z</time>
      </trkpt>
      <trkpt lat="45.64953" lon="6.60015">
        <ele>2180</ele>
        <time>2023-01-29T11:43:44Z</time>
      </trkpt>
      <trkpt lat="45.64954" lon="6.60013">
        <ele>2181</ele>
        <time>2023-01-29T11:43:48Z</time>
      </trkpt>
      <trkpt lat="45.6496" lon="6.60008">
        <ele>2183</ele>
        <time>2023-01-29T11:44:00Z</time>
      </trkpt>
      <trkpt lat="45.64962" lon="6.60007">
        <ele>2183</ele>
        <time>2023-01-29T11:44:05Z</time>
      </trkpt>
      <trkpt lat="45.64964" lon="6.60008">
        <ele>2183</ele>
        <time>2023-01-29T11:44:17Z</time>
      </trkpt>
      <trkpt lat="45.64964" lon="6.60011">
        <ele>2185</ele>
        <time>2023-01-29T11:44:44Z</time>
      </trkpt>
      <trkpt lat="45.64966" lon="6.60024">
        <ele>2188</ele>
        <time>2023-01-29T11:44:58Z</time>
      </trkpt>
      <trkpt lat="45.64966" lon="6.60031">
        <ele>2188</ele>
        <time>2023-01-29T11:45:05Z</time>
      </trkpt>
      <trkpt lat="45.64965" lon="6.60045">
        <ele>2189</ele>
        <time>2023-01-29T11:45:20Z</time>
      </trkpt>
      <trkpt lat="45.64967" lon="6.60052">
        <ele>2191</ele>
        <time>2023-01-29T11:45:26Z</time>
      </trkpt>
      <trkpt lat="45.64967" lon="6.60054">
        <ele>2190</ele>
        <time>2023-01-29T11:45:29Z</time>
      </trkpt>
      <trkpt lat="45.64967" lon="6.60057">
        <ele>2191</ele>
        <time>2023-01-29T11:45:32Z</time>
      </trkpt>
      <trkpt lat="45.64965" lon="6.60063">
        <ele>2191</ele>
        <time>2023-01-29T11:45:40Z</time>
      </trkpt>
      <trkpt lat="45.64965" lon="6.60065">
        <ele>2190</ele>
        <time>2023-01-29T11:46:36Z</time>
      </trkpt>
      <trkpt lat="45.64967" lon="6.60065">
        <ele>2190</ele>
        <time>2023-01-29T11:47:23Z</time>
      </trkpt>
      <trkpt lat="45.64969" lon="6.60063">
        <ele>2190</ele>
        <time>2023-01-29T11:47:26Z</time>
      </trkpt>
      <trkpt lat="45.6497" lon="6.60061">
        <ele>2192</ele>
        <time>2023-01-29T11:47:29Z</time>
      </trkpt>
      <trkpt lat="45.64971" lon="6.60059">
        <ele>2193</ele>
        <time>2023-01-29T11:47:32Z</time>
      </trkpt>
      <trkpt lat="45.64973" lon="6.60058">
        <ele>2195</ele>
        <time>2023-01-29T11:47:36Z</time>
      </trkpt>
      <trkpt lat="45.64975" lon="6.60056">
        <ele>2195</ele>
        <time>2023-01-29T11:47:40Z</time>
      </trkpt>
      <trkpt lat="45.64976" lon="6.60053">
        <ele>2196</ele>
        <time>2023-01-29T11:47:43Z</time>
      </trkpt>
      <trkpt lat="45.64977" lon="6.60052">
        <ele>2197</ele>
        <time>2023-01-29T11:47:47Z</time>
      </trkpt>
      <trkpt lat="45.64979" lon="6.60052">
        <ele>2197</ele>
        <time>2023-01-29T11:47:50Z</time>
      </trkpt>
      <trkpt lat="45.64982" lon="6.60051">
        <ele>2198</ele>
        <time>2023-01-29T11:47:54Z</time>
      </trkpt>
      <trkpt lat="45.64982" lon="6.60048">
        <ele>2198</ele>
        <time>2023-01-29T11:47:57Z</time>
      </trkpt>
      <trkpt lat="45.64984" lon="6.60046">
        <ele>2198</ele>
        <time>2023-01-29T11:48:00Z</time>
      </trkpt>
      <trkpt lat="45.64985" lon="6.60049">
        <ele>2199</ele>
        <time>2023-01-29T11:48:03Z</time>
      </trkpt>
      <trkpt lat="45.64987" lon="6.60049">
        <ele>2199</ele>
        <time>2023-01-29T11:48:07Z</time>
      </trkpt>
      <trkpt lat="45.64989" lon="6.60047">
        <ele>2199</ele>
        <time>2023-01-29T11:48:10Z</time>
      </trkpt>
      <trkpt lat="45.6499" lon="6.60045">
        <ele>2200</ele>
        <time>2023-01-29T11:48:13Z</time>
      </trkpt>
      <trkpt lat="45.64991" lon="6.60042">
        <ele>2200</ele>
        <time>2023-01-29T11:48:17Z</time>
      </trkpt>
      <trkpt lat="45.64993" lon="6.60041">
        <ele>2201</ele>
        <time>2023-01-29T11:48:20Z</time>
      </trkpt>
      <trkpt lat="45.64996" lon="6.60042">
        <ele>2201</ele>
        <time>2023-01-29T11:48:25Z</time>
      </trkpt>
      <trkpt lat="45.64998" lon="6.60044">
        <ele>2201</ele>
        <time>2023-01-29T11:48:30Z</time>
      </trkpt>
      <trkpt lat="45.65" lon="6.60046">
        <ele>2202</ele>
        <time>2023-01-29T11:48:34Z</time>
      </trkpt>
      <trkpt lat="45.64999" lon="6.60044">
        <ele>2204</ele>
        <time>2023-01-29T11:52:50Z</time>
      </trkpt>
      <trkpt lat="45.64998" lon="6.60045">
        <ele>2204</ele>
        <time>2023-01-29T11:53:12Z</time>
      </trkpt>
      <trkpt lat="45.64996" lon="6.60044">
        <ele>2204</ele>
        <time>2023-01-29T11:53:19Z</time>
      </trkpt>
      <trkpt lat="45.64996" lon="6.60042">
        <ele>2205</ele>
        <time>2023-01-29T11:53:21Z</time>
      </trkpt>
      <trkpt lat="45.64995" lon="6.60032">
        <ele>2205</ele>
        <time>2023-01-29T11:53:24Z</time>
      </trkpt>
      <trkpt lat="45.65" lon="6.59977">
        <ele>2197</ele>
        <time>2023-01-29T11:53:35Z</time>
      </trkpt>
      <trkpt lat="45.64999" lon="6.5997">
        <ele>2197</ele>
        <time>2023-01-29T11:53:37Z</time>
      </trkpt>
      <trkpt lat="45.64999" lon="6.5996">
        <ele>2195</ele>
        <time>2023-01-29T11:53:40Z</time>
      </trkpt>
      <trkpt lat="45.65007" lon="6.59943">
        <ele>2193</ele>
        <time>2023-01-29T11:53:49Z</time>
      </trkpt>
      <trkpt lat="45.65012" lon="6.59936">
        <ele>2192</ele>
        <time>2023-01-29T11:53:52Z</time>
      </trkpt>
      <trkpt lat="45.65014" lon="6.59933">
        <ele>2192</ele>
        <time>2023-01-29T11:53:53Z</time>
      </trkpt>
      <trkpt lat="45.65016" lon="6.59925">
        <ele>2191</ele>
        <time>2023-01-29T11:53:55Z</time>
      </trkpt>
      <trkpt lat="45.65017" lon="6.59916">
        <ele>2190</ele>
        <time>2023-01-29T11:53:58Z</time>
      </trkpt>
      <trkpt lat="45.65018" lon="6.59913">
        <ele>2189</ele>
        <time>2023-01-29T11:54:00Z</time>
      </trkpt>
      <trkpt lat="45.6502" lon="6.59912">
        <ele>2189</ele>
        <time>2023-01-29T11:54:03Z</time>
      </trkpt>
      <trkpt lat="45.65021" lon="6.59909">
        <ele>2188</ele>
        <time>2023-01-29T11:54:07Z</time>
      </trkpt>
      <trkpt lat="45.65042" lon="6.5986">
        <ele>2183</ele>
        <time>2023-01-29T11:54:36Z</time>
      </trkpt>
      <trkpt lat="45.65042" lon="6.59857">
        <ele>2183</ele>
        <time>2023-01-29T11:54:37Z</time>
      </trkpt>
      <trkpt lat="45.65042" lon="6.59854">
        <ele>2181</ele>
        <time>2023-01-29T11:54:40Z</time>
      </trkpt>
      <trkpt lat="45.65043" lon="6.59851">
        <ele>2181</ele>
        <time>2023-01-29T11:54:43Z</time>
      </trkpt>
      <trkpt lat="45.65044" lon="6.59843">
        <ele>2180</ele>
        <time>2023-01-29T11:54:46Z</time>
      </trkpt>
      <trkpt lat="45.65056" lon="6.59817">
        <ele>2177</ele>
        <time>2023-01-29T11:54:53Z</time>
      </trkpt>
      <trkpt lat="45.65063" lon="6.59809">
        <ele>2175</ele>
        <time>2023-01-29T11:54:55Z</time>
      </trkpt>
      <trkpt lat="45.65085" lon="6.59784">
        <ele>2167</ele>
        <time>2023-01-29T11:55:01Z</time>
      </trkpt>
      <trkpt lat="45.65112" lon="6.59766">
        <ele>2170</ele>
        <time>2023-01-29T11:55:30Z</time>
      </trkpt>
      <trkpt lat="45.65114" lon="6.59764">
        <ele>2170</ele>
        <time>2023-01-29T11:55:33Z</time>
      </trkpt>
      <trkpt lat="45.65116" lon="6.59762">
        <ele>2171</ele>
        <time>2023-01-29T11:55:36Z</time>
      </trkpt>
      <trkpt lat="45.65121" lon="6.59759">
        <ele>2174</ele>
        <time>2023-01-29T11:55:45Z</time>
      </trkpt>
      <trkpt lat="45.65128" lon="6.5975">
        <ele>2175</ele>
        <time>2023-01-29T11:55:56Z</time>
      </trkpt>
      <trkpt lat="45.6513" lon="6.59749">
        <ele>2176</ele>
        <time>2023-01-29T11:56:07Z</time>
      </trkpt>
      <trkpt lat="45.65132" lon="6.59749">
        <ele>2176</ele>
        <time>2023-01-29T11:56:11Z</time>
      </trkpt>
      <trkpt lat="45.65142" lon="6.59739">
        <ele>2178</ele>
        <time>2023-01-29T11:56:24Z</time>
      </trkpt>
      <trkpt lat="45.65148" lon="6.59734">
        <ele>2178</ele>
        <time>2023-01-29T11:56:32Z</time>
      </trkpt>
      <trkpt lat="45.65152" lon="6.59731">
        <ele>2178</ele>
        <time>2023-01-29T11:56:38Z</time>
      </trkpt>
      <trkpt lat="45.6516" lon="6.59723">
        <ele>2178</ele>
        <time>2023-01-29T11:56:49Z</time>
      </trkpt>
      <trkpt lat="45.65169" lon="6.59713">
        <ele>2179</ele>
        <time>2023-01-29T11:57:02Z</time>
      </trkpt>
      <trkpt lat="45.65173" lon="6.5971">
        <ele>2179</ele>
        <time>2023-01-29T11:57:06Z</time>
      </trkpt>
      <trkpt lat="45.65183" lon="6.59702">
        <ele>2180</ele>
        <time>2023-01-29T11:57:17Z</time>
      </trkpt>
      <trkpt lat="45.65214" lon="6.5967">
        <ele>2180</ele>
        <time>2023-01-29T11:57:48Z</time>
      </trkpt>
      <trkpt lat="45.65222" lon="6.59667">
        <ele>2180</ele>
        <time>2023-01-29T11:57:57Z</time>
      </trkpt>
      <trkpt lat="45.65226" lon="6.59663">
        <ele>2179</ele>
        <time>2023-01-29T11:58:02Z</time>
      </trkpt>
      <trkpt lat="45.65254" lon="6.59651">
        <ele>2179</ele>
        <time>2023-01-29T11:58:34Z</time>
      </trkpt>
      <trkpt lat="45.6526" lon="6.59651">
        <ele>2180</ele>
        <time>2023-01-29T11:58:41Z</time>
      </trkpt>
      <trkpt lat="45.65265" lon="6.59652">
        <ele>2180</ele>
        <time>2023-01-29T11:58:47Z</time>
      </trkpt>
      <trkpt lat="45.65267" lon="6.59654">
        <ele>2180</ele>
        <time>2023-01-29T11:58:50Z</time>
      </trkpt>
      <trkpt lat="45.65268" lon="6.59655">
        <ele>2180</ele>
        <time>2023-01-29T12:00:19Z</time>
      </trkpt>
      <trkpt lat="45.65268" lon="6.59653">
        <ele>2180</ele>
        <time>2023-01-29T12:00:53Z</time>
      </trkpt>
      <trkpt lat="45.65269" lon="6.59654">
        <ele>2181</ele>
        <time>2023-01-29T12:20:41Z</time>
      </trkpt>
      <trkpt lat="45.65267" lon="6.59655">
        <ele>2181</ele>
        <time>2023-01-29T12:20:48Z</time>
      </trkpt>
      <trkpt lat="45.65268" lon="6.59654">
        <ele>2179</ele>
        <time>2023-01-29T12:21:57Z</time>
      </trkpt>
      <trkpt lat="45.6527" lon="6.59652">
        <ele>2182</ele>
        <time>2023-01-29T12:29:31Z</time>
      </trkpt>
      <trkpt lat="45.65279" lon="6.59648">
        <ele>2182</ele>
        <time>2023-01-29T12:29:39Z</time>
      </trkpt>
      <trkpt lat="45.65281" lon="6.59647">
        <ele>2181</ele>
        <time>2023-01-29T12:29:40Z</time>
      </trkpt>
      <trkpt lat="45.65284" lon="6.59644">
        <ele>2180</ele>
        <time>2023-01-29T12:29:41Z</time>
      </trkpt>
      <trkpt lat="45.65284" lon="6.5964">
        <ele>2179</ele>
        <time>2023-01-29T12:29:42Z</time>
      </trkpt>
      <trkpt lat="45.65283" lon="6.59632">
        <ele>2178</ele>
        <time>2023-01-29T12:29:44Z</time>
      </trkpt>
      <trkpt lat="45.65281" lon="6.59629">
        <ele>2177</ele>
        <time>2023-01-29T12:29:45Z</time>
      </trkpt>
      <trkpt lat="45.6528" lon="6.59626">
        <ele>2176</ele>
        <time>2023-01-29T12:29:46Z</time>
      </trkpt>
      <trkpt lat="45.65277" lon="6.59622">
        <ele>2175</ele>
        <time>2023-01-29T12:29:48Z</time>
      </trkpt>
      <trkpt lat="45.65277" lon="6.59618">
        <ele>2175</ele>
        <time>2023-01-29T12:29:49Z</time>
      </trkpt>
      <trkpt lat="45.65279" lon="6.59614">
        <ele>2174</ele>
        <time>2023-01-29T12:29:50Z</time>
      </trkpt>
      <trkpt lat="45.65283" lon="6.5961">
        <ele>2172</ele>
        <time>2023-01-29T12:29:51Z</time>
      </trkpt>
      <trkpt lat="45.65291" lon="6.59611">
        <ele>2171</ele>
        <time>2023-01-29T12:29:53Z</time>
      </trkpt>
      <trkpt lat="45.65295" lon="6.59607">
        <ele>2170</ele>
        <time>2023-01-29T12:29:58Z</time>
      </trkpt>
      <trkpt lat="45.65298" lon="6.59609">
        <ele>2169</ele>
        <time>2023-01-29T12:30:00Z</time>
      </trkpt>
      <trkpt lat="45.65302" lon="6.59612">
        <ele>2168</ele>
        <time>2023-01-29T12:30:29Z</time>
      </trkpt>
      <trkpt lat="45.65302" lon="6.59614">
        <ele>2168</ele>
        <time>2023-01-29T12:30:30Z</time>
      </trkpt>
      <trkpt lat="45.65303" lon="6.59617">
        <ele>2167</ele>
        <time>2023-01-29T12:30:33Z</time>
      </trkpt>
      <trkpt lat="45.65305" lon="6.59619">
        <ele>2166</ele>
        <time>2023-01-29T12:30:36Z</time>
      </trkpt>
      <trkpt lat="45.65308" lon="6.59618">
        <ele>2165</ele>
        <time>2023-01-29T12:30:37Z</time>
      </trkpt>
      <trkpt lat="45.65311" lon="6.59616">
        <ele>2165</ele>
        <time>2023-01-29T12:30:38Z</time>
      </trkpt>
      <trkpt lat="45.65312" lon="6.59614">
        <ele>2164</ele>
        <time>2023-01-29T12:30:39Z</time>
      </trkpt>
      <trkpt lat="45.65324" lon="6.59604">
        <ele>2162</ele>
        <time>2023-01-29T12:30:44Z</time>
      </trkpt>
      <trkpt lat="45.65329" lon="6.59599">
        <ele>2161</ele>
        <time>2023-01-29T12:30:46Z</time>
      </trkpt>
      <trkpt lat="45.65334" lon="6.59604">
        <ele>2161</ele>
        <time>2023-01-29T12:30:50Z</time>
      </trkpt>
      <trkpt lat="45.65342" lon="6.59609">
        <ele>2158</ele>
        <time>2023-01-29T12:30:52Z</time>
      </trkpt>
      <trkpt lat="45.65344" lon="6.59615">
        <ele>2157</ele>
        <time>2023-01-29T12:30:53Z</time>
      </trkpt>
      <trkpt lat="45.65348" lon="6.59635">
        <ele>2151</ele>
        <time>2023-01-29T12:30:56Z</time>
      </trkpt>
      <trkpt lat="45.6535" lon="6.59638">
        <ele>2150</ele>
        <time>2023-01-29T12:30:57Z</time>
      </trkpt>
      <trkpt lat="45.65351" lon="6.59649">
        <ele>2146</ele>
        <time>2023-01-29T12:30:59Z</time>
      </trkpt>
      <trkpt lat="45.65356" lon="6.59653">
        <ele>2143</ele>
        <time>2023-01-29T12:31:00Z</time>
      </trkpt>
      <trkpt lat="45.65363" lon="6.5966">
        <ele>2141</ele>
        <time>2023-01-29T12:31:02Z</time>
      </trkpt>
      <trkpt lat="45.65369" lon="6.5967">
        <ele>2137</ele>
        <time>2023-01-29T12:31:04Z</time>
      </trkpt>
      <trkpt lat="45.65378" lon="6.59687">
        <ele>2130</ele>
        <time>2023-01-29T12:31:07Z</time>
      </trkpt>
      <trkpt lat="45.6538" lon="6.59693">
        <ele>2129</ele>
        <time>2023-01-29T12:31:08Z</time>
      </trkpt>
      <trkpt lat="45.65387" lon="6.59704">
        <ele>2127</ele>
        <time>2023-01-29T12:31:10Z</time>
      </trkpt>
      <trkpt lat="45.65403" lon="6.59726">
        <ele>2120</ele>
        <time>2023-01-29T12:31:15Z</time>
      </trkpt>
      <trkpt lat="45.65404" lon="6.59733">
        <ele>2119</ele>
        <time>2023-01-29T12:31:16Z</time>
      </trkpt>
      <trkpt lat="45.65406" lon="6.59739">
        <ele>2118</ele>
        <time>2023-01-29T12:31:17Z</time>
      </trkpt>
      <trkpt lat="45.6541" lon="6.59745">
        <ele>2116</ele>
        <time>2023-01-29T12:31:18Z</time>
      </trkpt>
      <trkpt lat="45.65411" lon="6.59752">
        <ele>2114</ele>
        <time>2023-01-29T12:31:19Z</time>
      </trkpt>
      <trkpt lat="45.65417" lon="6.59784">
        <ele>2108</ele>
        <time>2023-01-29T12:31:23Z</time>
      </trkpt>
      <trkpt lat="45.65417" lon="6.59788">
        <ele>2105</ele>
        <time>2023-01-29T12:35:47Z</time>
      </trkpt>
      <trkpt lat="45.65417" lon="6.59791">
        <ele>2101</ele>
        <time>2023-01-29T12:35:48Z</time>
      </trkpt>
      <trkpt lat="45.65423" lon="6.59809">
        <ele>2093</ele>
        <time>2023-01-29T12:35:51Z</time>
      </trkpt>
      <trkpt lat="45.65435" lon="6.59824">
        <ele>2084</ele>
        <time>2023-01-29T12:35:54Z</time>
      </trkpt>
      <trkpt lat="45.65444" lon="6.59836">
        <ele>2080</ele>
        <time>2023-01-29T12:35:56Z</time>
      </trkpt>
      <trkpt lat="45.65457" lon="6.59861">
        <ele>2072</ele>
        <time>2023-01-29T12:36:00Z</time>
      </trkpt>
      <trkpt lat="45.65459" lon="6.59868">
        <ele>2070</ele>
        <time>2023-01-29T12:36:01Z</time>
      </trkpt>
      <trkpt lat="45.65462" lon="6.59874">
        <ele>2068</ele>
        <time>2023-01-29T12:36:02Z</time>
      </trkpt>
      <trkpt lat="45.65465" lon="6.59882">
        <ele>2065</ele>
        <time>2023-01-29T12:36:03Z</time>
      </trkpt>
      <trkpt lat="45.65469" lon="6.5989">
        <ele>2062</ele>
        <time>2023-01-29T12:36:04Z</time>
      </trkpt>
      <trkpt lat="45.65476" lon="6.59904">
        <ele>2058</ele>
        <time>2023-01-29T12:36:06Z</time>
      </trkpt>
      <trkpt lat="45.65485" lon="6.59918">
        <ele>2056</ele>
        <time>2023-01-29T12:36:08Z</time>
      </trkpt>
      <trkpt lat="45.65489" lon="6.59924">
        <ele>2053</ele>
        <time>2023-01-29T12:36:09Z</time>
      </trkpt>
      <trkpt lat="45.65502" lon="6.59947">
        <ele>2047</ele>
        <time>2023-01-29T12:36:12Z</time>
      </trkpt>
      <trkpt lat="45.65512" lon="6.59973">
        <ele>2041</ele>
        <time>2023-01-29T12:36:15Z</time>
      </trkpt>
      <trkpt lat="45.65517" lon="6.5998">
        <ele>2039</ele>
        <time>2023-01-29T12:36:16Z</time>
      </trkpt>
      <trkpt lat="45.65533" lon="6.59987">
        <ele>2037</ele>
        <time>2023-01-29T12:36:19Z</time>
      </trkpt>
      <trkpt lat="45.65537" lon="6.59993">
        <ele>2037</ele>
        <time>2023-01-29T12:36:20Z</time>
      </trkpt>
      <trkpt lat="45.6554" lon="6.6">
        <ele>2035</ele>
        <time>2023-01-29T12:36:21Z</time>
      </trkpt>
      <trkpt lat="45.65554" lon="6.60048">
        <ele>2024</ele>
        <time>2023-01-29T12:36:27Z</time>
      </trkpt>
      <trkpt lat="45.65558" lon="6.60055">
        <ele>2022</ele>
        <time>2023-01-29T12:36:28Z</time>
      </trkpt>
      <trkpt lat="45.65562" lon="6.60064">
        <ele>2020</ele>
        <time>2023-01-29T12:36:29Z</time>
      </trkpt>
      <trkpt lat="45.65564" lon="6.60075">
        <ele>2017</ele>
        <time>2023-01-29T12:36:30Z</time>
      </trkpt>
      <trkpt lat="45.65568" lon="6.60084">
        <ele>2014</ele>
        <time>2023-01-29T12:36:31Z</time>
      </trkpt>
      <trkpt lat="45.6558" lon="6.60118">
        <ele>2009</ele>
        <time>2023-01-29T12:36:35Z</time>
      </trkpt>
      <trkpt lat="45.65584" lon="6.60123">
        <ele>2009</ele>
        <time>2023-01-29T12:36:36Z</time>
      </trkpt>
      <trkpt lat="45.65587" lon="6.60123">
        <ele>2009</ele>
        <time>2023-01-29T12:36:37Z</time>
      </trkpt>
      <trkpt lat="45.65587" lon="6.60126">
        <ele>2008</ele>
        <time>2023-01-29T12:36:42Z</time>
      </trkpt>
      <trkpt lat="45.65589" lon="6.60125">
        <ele>2007</ele>
        <time>2023-01-29T12:38:09Z</time>
      </trkpt>
      <trkpt lat="45.65593" lon="6.60155">
        <ele>2003</ele>
        <time>2023-01-29T12:38:14Z</time>
      </trkpt>
      <trkpt lat="45.65611" lon="6.6019">
        <ele>1998</ele>
        <time>2023-01-29T12:38:19Z</time>
      </trkpt>
      <trkpt lat="45.65619" lon="6.60203">
        <ele>1996</ele>
        <time>2023-01-29T12:38:22Z</time>
      </trkpt>
      <trkpt lat="45.65638" lon="6.60217">
        <ele>1992</ele>
        <time>2023-01-29T12:38:28Z</time>
      </trkpt>
      <trkpt lat="45.65649" lon="6.60215">
        <ele>1990</ele>
        <time>2023-01-29T12:38:30Z</time>
      </trkpt>
      <trkpt lat="45.65657" lon="6.60218">
        <ele>1990</ele>
        <time>2023-01-29T12:38:32Z</time>
      </trkpt>
      <trkpt lat="45.65668" lon="6.60224">
        <ele>1987</ele>
        <time>2023-01-29T12:38:35Z</time>
      </trkpt>
      <trkpt lat="45.65671" lon="6.60224">
        <ele>1986</ele>
        <time>2023-01-29T12:38:37Z</time>
      </trkpt>
      <trkpt lat="45.65673" lon="6.60223">
        <ele>1986</ele>
        <time>2023-01-29T12:38:41Z</time>
      </trkpt>
      <trkpt lat="45.65683" lon="6.60221">
        <ele>1985</ele>
        <time>2023-01-29T12:38:45Z</time>
      </trkpt>
      <trkpt lat="45.65688" lon="6.60218">
        <ele>1984</ele>
        <time>2023-01-29T12:38:47Z</time>
      </trkpt>
      <trkpt lat="45.6569" lon="6.60216">
        <ele>1983</ele>
        <time>2023-01-29T12:39:00Z</time>
      </trkpt>
      <trkpt lat="45.6569" lon="6.60211">
        <ele>1983</ele>
        <time>2023-01-29T12:40:34Z</time>
      </trkpt>
      <trkpt lat="45.65691" lon="6.60209">
        <ele>1983</ele>
        <time>2023-01-29T12:40:36Z</time>
      </trkpt>
      <trkpt lat="45.65691" lon="6.60206">
        <ele>1983</ele>
        <time>2023-01-29T12:40:38Z</time>
      </trkpt>
      <trkpt lat="45.65692" lon="6.60199">
        <ele>1983</ele>
        <time>2023-01-29T12:40:54Z</time>
      </trkpt>
      <trkpt lat="45.65691" lon="6.60195">
        <ele>1981</ele>
        <time>2023-01-29T12:41:42Z</time>
      </trkpt>
      <trkpt lat="45.65691" lon="6.60192">
        <ele>1980</ele>
        <time>2023-01-29T12:41:49Z</time>
      </trkpt>
      <trkpt lat="45.65694" lon="6.60187">
        <ele>1979</ele>
        <time>2023-01-29T12:41:51Z</time>
      </trkpt>
      <trkpt lat="45.65697" lon="6.60189">
        <ele>1978</ele>
        <time>2023-01-29T12:41:52Z</time>
      </trkpt>
      <trkpt lat="45.657" lon="6.60193">
        <ele>1976</ele>
        <time>2023-01-29T12:41:53Z</time>
      </trkpt>
      <trkpt lat="45.6571" lon="6.60194">
        <ele>1975</ele>
        <time>2023-01-29T12:41:57Z</time>
      </trkpt>
      <trkpt lat="45.65718" lon="6.60191">
        <ele>1974</ele>
        <time>2023-01-29T12:41:59Z</time>
      </trkpt>
      <trkpt lat="45.65719" lon="6.60194">
        <ele>1971</ele>
        <time>2023-01-29T12:43:17Z</time>
      </trkpt>
      <trkpt lat="45.6572" lon="6.60197">
        <ele>1967</ele>
        <time>2023-01-29T12:44:07Z</time>
      </trkpt>
      <trkpt lat="45.65725" lon="6.60202">
        <ele>1964</ele>
        <time>2023-01-29T12:44:11Z</time>
      </trkpt>
      <trkpt lat="45.65726" lon="6.60203">
        <ele>1963</ele>
        <time>2023-01-29T12:44:13Z</time>
      </trkpt>
      <trkpt lat="45.65732" lon="6.60208">
        <ele>1961</ele>
        <time>2023-01-29T12:44:19Z</time>
      </trkpt>
      <trkpt lat="45.65739" lon="6.60217">
        <ele>1958</ele>
        <time>2023-01-29T12:44:22Z</time>
      </trkpt>
      <trkpt lat="45.65757" lon="6.60231">
        <ele>1953</ele>
        <time>2023-01-29T12:44:28Z</time>
      </trkpt>
      <trkpt lat="45.65775" lon="6.60241">
        <ele>1947</ele>
        <time>2023-01-29T12:44:37Z</time>
      </trkpt>
      <trkpt lat="45.65778" lon="6.60241">
        <ele>1947</ele>
        <time>2023-01-29T12:44:40Z</time>
      </trkpt>
      <trkpt lat="45.6578" lon="6.60243">
        <ele>1946</ele>
        <time>2023-01-29T12:45:02Z</time>
      </trkpt>
      <trkpt lat="45.65779" lon="6.60248">
        <ele>1945</ele>
        <time>2023-01-29T12:45:46Z</time>
      </trkpt>
      <trkpt lat="45.65778" lon="6.60254">
        <ele>1944</ele>
        <time>2023-01-29T12:45:48Z</time>
      </trkpt>
      <trkpt lat="45.65781" lon="6.60259">
        <ele>1943</ele>
        <time>2023-01-29T12:45:50Z</time>
      </trkpt>
      <trkpt lat="45.65783" lon="6.60268">
        <ele>1941</ele>
        <time>2023-01-29T12:45:52Z</time>
      </trkpt>
      <trkpt lat="45.65785" lon="6.60273">
        <ele>1940</ele>
        <time>2023-01-29T12:45:53Z</time>
      </trkpt>
      <trkpt lat="45.65788" lon="6.60278">
        <ele>1939</ele>
        <time>2023-01-29T12:45:54Z</time>
      </trkpt>
      <trkpt lat="45.65792" lon="6.60288">
        <ele>1937</ele>
        <time>2023-01-29T12:45:57Z</time>
      </trkpt>
      <trkpt lat="45.65794" lon="6.60294">
        <ele>1936</ele>
        <time>2023-01-29T12:45:59Z</time>
      </trkpt>
      <trkpt lat="45.65797" lon="6.60291">
        <ele>1932</ele>
        <time>2023-01-29T12:46:05Z</time>
      </trkpt>
      <trkpt lat="45.65798" lon="6.60286">
        <ele>1929</ele>
        <time>2023-01-29T12:47:11Z</time>
      </trkpt>
      <trkpt lat="45.658" lon="6.60279">
        <ele>1928</ele>
        <time>2023-01-29T12:47:13Z</time>
      </trkpt>
      <trkpt lat="45.65804" lon="6.60279">
        <ele>1927</ele>
        <time>2023-01-29T12:47:15Z</time>
      </trkpt>
      <trkpt lat="45.65815" lon="6.60294">
        <ele>1923</ele>
        <time>2023-01-29T12:47:24Z</time>
      </trkpt>
      <trkpt lat="45.65821" lon="6.60335">
        <ele>1918</ele>
        <time>2023-01-29T12:47:30Z</time>
      </trkpt>
      <trkpt lat="45.65824" lon="6.60342">
        <ele>1917</ele>
        <time>2023-01-29T12:47:32Z</time>
      </trkpt>
      <trkpt lat="45.65826" lon="6.60344">
        <ele>1917</ele>
        <time>2023-01-29T12:47:33Z</time>
      </trkpt>
      <trkpt lat="45.65847" lon="6.60343">
        <ele>1915</ele>
        <time>2023-01-29T12:48:08Z</time>
      </trkpt>
      <trkpt lat="45.65844" lon="6.60341">
        <ele>1913</ele>
        <time>2023-01-29T12:48:33Z</time>
      </trkpt>
      <trkpt lat="45.65841" lon="6.6034">
        <ele>1913</ele>
        <time>2023-01-29T12:48:42Z</time>
      </trkpt>
      <trkpt lat="45.65836" lon="6.60338">
        <ele>1914</ele>
        <time>2023-01-29T12:48:52Z</time>
      </trkpt>
      <trkpt lat="45.65835" lon="6.60335">
        <ele>1914</ele>
        <time>2023-01-29T12:48:58Z</time>
      </trkpt>
      <trkpt lat="45.65837" lon="6.60332">
        <ele>1915</ele>
        <time>2023-01-29T12:49:04Z</time>
      </trkpt>
      <trkpt lat="45.6584" lon="6.6033">
        <ele>1917</ele>
        <time>2023-01-29T12:49:09Z</time>
      </trkpt>
      <trkpt lat="45.65842" lon="6.60324">
        <ele>1919</ele>
        <time>2023-01-29T12:49:17Z</time>
      </trkpt>
      <trkpt lat="45.65844" lon="6.6032">
        <ele>1919</ele>
        <time>2023-01-29T12:49:19Z</time>
      </trkpt>
      <trkpt lat="45.65846" lon="6.60317">
        <ele>1919</ele>
        <time>2023-01-29T12:49:20Z</time>
      </trkpt>
      <trkpt lat="45.65848" lon="6.60317">
        <ele>1918</ele>
        <time>2023-01-29T12:49:23Z</time>
      </trkpt>
      <trkpt lat="45.65848" lon="6.6032">
        <ele>1918</ele>
        <time>2023-01-29T12:49:28Z</time>
      </trkpt>
      <trkpt lat="45.6585" lon="6.60323">
        <ele>1918</ele>
        <time>2023-01-29T12:49:34Z</time>
      </trkpt>
      <trkpt lat="45.65852" lon="6.60325">
        <ele>1918</ele>
        <time>2023-01-29T12:49:36Z</time>
      </trkpt>
      <trkpt lat="45.65854" lon="6.60325">
        <ele>1917</ele>
        <time>2023-01-29T12:49:39Z</time>
      </trkpt>
      <trkpt lat="45.65861" lon="6.60329">
        <ele>1916</ele>
        <time>2023-01-29T12:49:44Z</time>
      </trkpt>
      <trkpt lat="45.6587" lon="6.60328">
        <ele>1917</ele>
        <time>2023-01-29T12:50:07Z</time>
      </trkpt>
      <trkpt lat="45.65872" lon="6.60326">
        <ele>1916</ele>
        <time>2023-01-29T12:50:10Z</time>
      </trkpt>
      <trkpt lat="45.65878" lon="6.60323">
        <ele>1916</ele>
        <time>2023-01-29T12:50:19Z</time>
      </trkpt>
      <trkpt lat="45.6588" lon="6.60323">
        <ele>1916</ele>
        <time>2023-01-29T12:50:21Z</time>
      </trkpt>
      <trkpt lat="45.65884" lon="6.60325">
        <ele>1915</ele>
        <time>2023-01-29T12:50:30Z</time>
      </trkpt>
      <trkpt lat="45.65887" lon="6.60325">
        <ele>1915</ele>
        <time>2023-01-29T12:50:35Z</time>
      </trkpt>
      <trkpt lat="45.65889" lon="6.60324">
        <ele>1915</ele>
        <time>2023-01-29T12:50:40Z</time>
      </trkpt>
      <trkpt lat="45.6589" lon="6.60322">
        <ele>1915</ele>
        <time>2023-01-29T12:50:43Z</time>
      </trkpt>
      <trkpt lat="45.65892" lon="6.60324">
        <ele>1915</ele>
        <time>2023-01-29T12:52:25Z</time>
      </trkpt>
      <trkpt lat="45.65895" lon="6.6032">
        <ele>1913</ele>
        <time>2023-01-29T12:52:28Z</time>
      </trkpt>
      <trkpt lat="45.65899" lon="6.6032">
        <ele>1912</ele>
        <time>2023-01-29T12:52:29Z</time>
      </trkpt>
      <trkpt lat="45.65904" lon="6.60323">
        <ele>1910</ele>
        <time>2023-01-29T12:52:30Z</time>
      </trkpt>
      <trkpt lat="45.65925" lon="6.60331">
        <ele>1908</ele>
        <time>2023-01-29T12:52:34Z</time>
      </trkpt>
      <trkpt lat="45.65929" lon="6.60335">
        <ele>1907</ele>
        <time>2023-01-29T12:52:35Z</time>
      </trkpt>
      <trkpt lat="45.65932" lon="6.60336">
        <ele>1906</ele>
        <time>2023-01-29T12:52:37Z</time>
      </trkpt>
      <trkpt lat="45.65934" lon="6.60338">
        <ele>1907</ele>
        <time>2023-01-29T12:52:56Z</time>
      </trkpt>
      <trkpt lat="45.65938" lon="6.60335">
        <ele>1904</ele>
        <time>2023-01-29T12:52:58Z</time>
      </trkpt>
      <trkpt lat="45.65939" lon="6.60335">
        <ele>1902</ele>
        <time>2023-01-29T12:53:30Z</time>
      </trkpt>
      <trkpt lat="45.65942" lon="6.60341">
        <ele>1900</ele>
        <time>2023-01-29T12:53:34Z</time>
      </trkpt>
      <trkpt lat="45.65946" lon="6.60344">
        <ele>1899</ele>
        <time>2023-01-29T12:53:40Z</time>
      </trkpt>
      <trkpt lat="45.65945" lon="6.6035">
        <ele>1898</ele>
        <time>2023-01-29T12:53:42Z</time>
      </trkpt>
      <trkpt lat="45.65951" lon="6.60353">
        <ele>1895</ele>
        <time>2023-01-29T12:53:52Z</time>
      </trkpt>
      <trkpt lat="45.65952" lon="6.60357">
        <ele>1894</ele>
        <time>2023-01-29T12:53:54Z</time>
      </trkpt>
      <trkpt lat="45.65954" lon="6.6036">
        <ele>1891</ele>
        <time>2023-01-29T12:54:00Z</time>
      </trkpt>
      <trkpt lat="45.65955" lon="6.60363">
        <ele>1890</ele>
        <time>2023-01-29T12:54:01Z</time>
      </trkpt>
      <trkpt lat="45.65958" lon="6.60364">
        <ele>1888</ele>
        <time>2023-01-29T12:54:06Z</time>
      </trkpt>
      <trkpt lat="45.65959" lon="6.6036">
        <ele>1887</ele>
        <time>2023-01-29T12:54:10Z</time>
      </trkpt>
      <trkpt lat="45.65963" lon="6.60352">
        <ele>1885</ele>
        <time>2023-01-29T12:54:15Z</time>
      </trkpt>
      <trkpt lat="45.65965" lon="6.6035">
        <ele>1885</ele>
        <time>2023-01-29T12:54:24Z</time>
      </trkpt>
      <trkpt lat="45.65969" lon="6.60355">
        <ele>1883</ele>
        <time>2023-01-29T12:54:26Z</time>
      </trkpt>
      <trkpt lat="45.65971" lon="6.60356">
        <ele>1881</ele>
        <time>2023-01-29T12:54:37Z</time>
      </trkpt>
      <trkpt lat="45.65972" lon="6.60363">
        <ele>1877</ele>
        <time>2023-01-29T12:54:46Z</time>
      </trkpt>
      <trkpt lat="45.65974" lon="6.60365">
        <ele>1875</ele>
        <time>2023-01-29T12:55:06Z</time>
      </trkpt>
      <trkpt lat="45.65973" lon="6.60364">
        <ele>1868</ele>
        <time>2023-01-29T12:57:44Z</time>
      </trkpt>
      <trkpt lat="45.65971" lon="6.60363">
        <ele>1868</ele>
        <time>2023-01-29T12:58:24Z</time>
      </trkpt>
      <trkpt lat="45.65969" lon="6.6036">
        <ele>1867</ele>
        <time>2023-01-29T12:58:35Z</time>
      </trkpt>
      <trkpt lat="45.65967" lon="6.60359">
        <ele>1866</ele>
        <time>2023-01-29T12:58:43Z</time>
      </trkpt>
      <trkpt lat="45.65966" lon="6.60356">
        <ele>1868</ele>
        <time>2023-01-29T12:59:13Z</time>
      </trkpt>
      <trkpt lat="45.65965" lon="6.60353">
        <ele>1870</ele>
        <time>2023-01-29T12:59:21Z</time>
      </trkpt>
      <trkpt lat="45.65964" lon="6.60351">
        <ele>1871</ele>
        <time>2023-01-29T12:59:25Z</time>
      </trkpt>
      <trkpt lat="45.65963" lon="6.60349">
        <ele>1874</ele>
        <time>2023-01-29T12:59:51Z</time>
      </trkpt>
      <trkpt lat="45.65962" lon="6.60346">
        <ele>1875</ele>
        <time>2023-01-29T12:59:59Z</time>
      </trkpt>
      <trkpt lat="45.6596" lon="6.60344">
        <ele>1875</ele>
        <time>2023-01-29T13:00:12Z</time>
      </trkpt>
      <trkpt lat="45.65957" lon="6.6034">
        <ele>1874</ele>
        <time>2023-01-29T13:00:21Z</time>
      </trkpt>
      <trkpt lat="45.65955" lon="6.60339">
        <ele>1874</ele>
        <time>2023-01-29T13:00:28Z</time>
      </trkpt>
      <trkpt lat="45.65954" lon="6.60336">
        <ele>1873</ele>
        <time>2023-01-29T13:00:42Z</time>
      </trkpt>
      <trkpt lat="45.65954" lon="6.60332">
        <ele>1872</ele>
        <time>2023-01-29T13:01:14Z</time>
      </trkpt>
      <trkpt lat="45.65959" lon="6.60332">
        <ele>1871</ele>
        <time>2023-01-29T13:01:16Z</time>
      </trkpt>
      <trkpt lat="45.65968" lon="6.60334">
        <ele>1866</ele>
        <time>2023-01-29T13:01:21Z</time>
      </trkpt>
      <trkpt lat="45.65973" lon="6.60327">
        <ele>1862</ele>
        <time>2023-01-29T13:01:23Z</time>
      </trkpt>
      <trkpt lat="45.65979" lon="6.60327">
        <ele>1861</ele>
        <time>2023-01-29T13:01:25Z</time>
      </trkpt>
      <trkpt lat="45.65981" lon="6.6033">
        <ele>1860</ele>
        <time>2023-01-29T13:01:26Z</time>
      </trkpt>
      <trkpt lat="45.65984" lon="6.60333">
        <ele>1860</ele>
        <time>2023-01-29T13:01:27Z</time>
      </trkpt>
      <trkpt lat="45.65988" lon="6.60333">
        <ele>1857</ele>
        <time>2023-01-29T13:01:48Z</time>
      </trkpt>
      <trkpt lat="45.65995" lon="6.6034">
        <ele>1855</ele>
        <time>2023-01-29T13:01:52Z</time>
      </trkpt>
      <trkpt lat="45.65999" lon="6.60343">
        <ele>1854</ele>
        <time>2023-01-29T13:01:58Z</time>
      </trkpt>
      <trkpt lat="45.66004" lon="6.60346">
        <ele>1853</ele>
        <time>2023-01-29T13:02:07Z</time>
      </trkpt>
      <trkpt lat="45.66005" lon="6.6035">
        <ele>1851</ele>
        <time>2023-01-29T13:02:18Z</time>
      </trkpt>
      <trkpt lat="45.66004" lon="6.60352">
        <ele>1850</ele>
        <time>2023-01-29T13:02:20Z</time>
      </trkpt>
      <trkpt lat="45.66003" lon="6.60359">
        <ele>1849</ele>
        <time>2023-01-29T13:02:32Z</time>
      </trkpt>
      <trkpt lat="45.6601" lon="6.60368">
        <ele>1845</ele>
        <time>2023-01-29T13:02:35Z</time>
      </trkpt>
      <trkpt lat="45.66012" lon="6.60368">
        <ele>1843</ele>
        <time>2023-01-29T13:02:37Z</time>
      </trkpt>
      <trkpt lat="45.66013" lon="6.60365">
        <ele>1841</ele>
        <time>2023-01-29T13:02:53Z</time>
      </trkpt>
      <trkpt lat="45.66014" lon="6.60365">
        <ele>1837</ele>
        <time>2023-01-29T13:07:27Z</time>
      </trkpt>
      <trkpt lat="45.66014" lon="6.6037">
        <ele>1835</ele>
        <time>2023-01-29T13:08:09Z</time>
      </trkpt>
      <trkpt lat="45.66015" lon="6.60373">
        <ele>1833</ele>
        <time>2023-01-29T13:08:22Z</time>
      </trkpt>
      <trkpt lat="45.66016" lon="6.60375">
        <ele>1833</ele>
        <time>2023-01-29T13:08:25Z</time>
      </trkpt>
      <trkpt lat="45.66016" lon="6.60375">
        <ele>1836</ele>
        <time>2023-01-29T13:08:48Z</time>
      </trkpt>
      <trkpt lat="45.66018" lon="6.60365">
        <ele>1835</ele>
        <time>2023-01-29T13:09:03Z</time>
      </trkpt>
      <trkpt lat="45.6602" lon="6.60368">
        <ele>1835</ele>
        <time>2023-01-29T13:09:13Z</time>
      </trkpt>
      <trkpt lat="45.66021" lon="6.6037">
        <ele>1836</ele>
        <time>2023-01-29T13:09:19Z</time>
      </trkpt>
      <trkpt lat="45.66022" lon="6.60373">
        <ele>1836</ele>
        <time>2023-01-29T13:09:22Z</time>
      </trkpt>
      <trkpt lat="45.66022" lon="6.60376">
        <ele>1836</ele>
        <time>2023-01-29T13:09:27Z</time>
      </trkpt>
      <trkpt lat="45.66025" lon="6.60382">
        <ele>1837</ele>
        <time>2023-01-29T13:09:33Z</time>
      </trkpt>
      <trkpt lat="45.66024" lon="6.60382">
        <ele>1837</ele>
        <time>2023-01-29T13:10:28Z</time>
      </trkpt>
      <trkpt lat="45.66023" lon="6.60379">
        <ele>1837</ele>
        <time>2023-01-29T13:10:34Z</time>
      </trkpt>
      <trkpt lat="45.66025" lon="6.60372">
        <ele>1836</ele>
        <time>2023-01-29T13:10:56Z</time>
      </trkpt>
      <trkpt lat="45.66025" lon="6.60366">
        <ele>1835</ele>
        <time>2023-01-29T13:11:04Z</time>
      </trkpt>
      <trkpt lat="45.66025" lon="6.60363">
        <ele>1835</ele>
        <time>2023-01-29T13:11:07Z</time>
      </trkpt>
      <trkpt lat="45.66023" lon="6.60361">
        <ele>1835</ele>
        <time>2023-01-29T13:11:10Z</time>
      </trkpt>
      <trkpt lat="45.66023" lon="6.60357">
        <ele>1834</ele>
        <time>2023-01-29T13:11:13Z</time>
      </trkpt>
      <trkpt lat="45.66023" lon="6.60354">
        <ele>1835</ele>
        <time>2023-01-29T13:11:16Z</time>
      </trkpt>
      <trkpt lat="45.66023" lon="6.6035">
        <ele>1834</ele>
        <time>2023-01-29T13:11:20Z</time>
      </trkpt>
      <trkpt lat="45.66026" lon="6.6035">
        <ele>1834</ele>
        <time>2023-01-29T13:11:23Z</time>
      </trkpt>
      <trkpt lat="45.66032" lon="6.60355">
        <ele>1840</ele>
        <time>2023-01-29T13:11:35Z</time>
      </trkpt>
      <trkpt lat="45.66031" lon="6.60359">
        <ele>1842</ele>
        <time>2023-01-29T13:11:41Z</time>
      </trkpt>
      <trkpt lat="45.66031" lon="6.60362">
        <ele>1843</ele>
        <time>2023-01-29T13:11:44Z</time>
      </trkpt>
      <trkpt lat="45.66031" lon="6.60366">
        <ele>1845</ele>
        <time>2023-01-29T13:11:49Z</time>
      </trkpt>
      <trkpt lat="45.66032" lon="6.60368">
        <ele>1846</ele>
        <time>2023-01-29T13:11:52Z</time>
      </trkpt>
      <trkpt lat="45.66035" lon="6.60371">
        <ele>1844</ele>
        <time>2023-01-29T13:15:07Z</time>
      </trkpt>
      <trkpt lat="45.66036" lon="6.60374">
        <ele>1843</ele>
        <time>2023-01-29T13:16:55Z</time>
      </trkpt>
      <trkpt lat="45.66036" lon="6.60374">
        <ele>1843</ele>
        <time>2023-01-29T13:30:28Z</time>
      </trkpt>
      <trkpt lat="45.66036" lon="6.60373">
        <ele>1843</ele>
        <time>2023-01-29T13:31:12Z</time>
      </trkpt>
      <trkpt lat="45.66037" lon="6.60374">
        <ele>1842</ele>
        <time>2023-01-29T13:35:38Z</time>
      </trkpt>
      <trkpt lat="45.66039" lon="6.60375">
        <ele>1842</ele>
        <time>2023-01-29T13:36:49Z</time>
      </trkpt>
      <trkpt lat="45.6604" lon="6.60378">
        <ele>1841</ele>
        <time>2023-01-29T13:37:02Z</time>
      </trkpt>
      <trkpt lat="45.66041" lon="6.6038">
        <ele>1840</ele>
        <time>2023-01-29T13:38:10Z</time>
      </trkpt>
      <trkpt lat="45.66043" lon="6.60383">
        <ele>1840</ele>
        <time>2023-01-29T13:38:24Z</time>
      </trkpt>
      <trkpt lat="45.66047" lon="6.60387">
        <ele>1840</ele>
        <time>2023-01-29T13:38:32Z</time>
      </trkpt>
      <trkpt lat="45.66049" lon="6.60388">
        <ele>1841</ele>
        <time>2023-01-29T13:38:38Z</time>
      </trkpt>
      <trkpt lat="45.6605" lon="6.60385">
        <ele>1842</ele>
        <time>2023-01-29T13:38:43Z</time>
      </trkpt>
      <trkpt lat="45.66051" lon="6.60381">
        <ele>1842</ele>
        <time>2023-01-29T13:38:47Z</time>
      </trkpt>
      <trkpt lat="45.66051" lon="6.60367">
        <ele>1843</ele>
        <time>2023-01-29T13:39:00Z</time>
      </trkpt>
      <trkpt lat="45.66051" lon="6.60364">
        <ele>1843</ele>
        <time>2023-01-29T13:39:03Z</time>
      </trkpt>
      <trkpt lat="45.66053" lon="6.60358">
        <ele>1845</ele>
        <time>2023-01-29T13:39:10Z</time>
      </trkpt>
      <trkpt lat="45.6606" lon="6.6035">
        <ele>1846</ele>
        <time>2023-01-29T13:39:18Z</time>
      </trkpt>
      <trkpt lat="45.66062" lon="6.60347">
        <ele>1846</ele>
        <time>2023-01-29T13:39:23Z</time>
      </trkpt>
      <trkpt lat="45.66062" lon="6.60344">
        <ele>1847</ele>
        <time>2023-01-29T13:39:28Z</time>
      </trkpt>
      <trkpt lat="45.66066" lon="6.6034">
        <ele>1848</ele>
        <time>2023-01-29T13:39:35Z</time>
      </trkpt>
      <trkpt lat="45.66079" lon="6.60334">
        <ele>1849</ele>
        <time>2023-01-29T13:39:54Z</time>
      </trkpt>
      <trkpt lat="45.66087" lon="6.60331">
        <ele>1853</ele>
        <time>2023-01-29T13:40:04Z</time>
      </trkpt>
      <trkpt lat="45.66091" lon="6.60327">
        <ele>1853</ele>
        <time>2023-01-29T13:40:11Z</time>
      </trkpt>
      <trkpt lat="45.66093" lon="6.6032">
        <ele>1854</ele>
        <time>2023-01-29T13:40:19Z</time>
      </trkpt>
      <trkpt lat="45.66095" lon="6.60318">
        <ele>1855</ele>
        <time>2023-01-29T13:40:23Z</time>
      </trkpt>
      <trkpt lat="45.66097" lon="6.60317">
        <ele>1855</ele>
        <time>2023-01-29T13:40:26Z</time>
      </trkpt>
      <trkpt lat="45.66097" lon="6.60314">
        <ele>1854</ele>
        <time>2023-01-29T13:40:31Z</time>
      </trkpt>
      <trkpt lat="45.66094" lon="6.60309">
        <ele>1855</ele>
        <time>2023-01-29T13:40:37Z</time>
      </trkpt>
      <trkpt lat="45.66094" lon="6.60303">
        <ele>1855</ele>
        <time>2023-01-29T13:40:42Z</time>
      </trkpt>
      <trkpt lat="45.66095" lon="6.60296">
        <ele>1855</ele>
        <time>2023-01-29T13:40:50Z</time>
      </trkpt>
      <trkpt lat="45.66099" lon="6.60284">
        <ele>1861</ele>
        <time>2023-01-29T13:41:07Z</time>
      </trkpt>
      <trkpt lat="45.66101" lon="6.60267">
        <ele>1861</ele>
        <time>2023-01-29T13:41:25Z</time>
      </trkpt>
      <trkpt lat="45.66105" lon="6.6027">
        <ele>1863</ele>
        <time>2023-01-29T13:41:32Z</time>
      </trkpt>
      <trkpt lat="45.66107" lon="6.6027">
        <ele>1863</ele>
        <time>2023-01-29T13:41:35Z</time>
      </trkpt>
      <trkpt lat="45.66119" lon="6.60276">
        <ele>1866</ele>
        <time>2023-01-29T13:41:57Z</time>
      </trkpt>
      <trkpt lat="45.66123" lon="6.60277">
        <ele>1867</ele>
        <time>2023-01-29T13:42:03Z</time>
      </trkpt>
      <trkpt lat="45.66136" lon="6.60281">
        <ele>1871</ele>
        <time>2023-01-29T13:42:23Z</time>
      </trkpt>
      <trkpt lat="45.66138" lon="6.60282">
        <ele>1871</ele>
        <time>2023-01-29T13:42:27Z</time>
      </trkpt>
      <trkpt lat="45.66151" lon="6.60285">
        <ele>1873</ele>
        <time>2023-01-29T13:42:55Z</time>
      </trkpt>
      <trkpt lat="45.66155" lon="6.60284">
        <ele>1874</ele>
        <time>2023-01-29T13:43:03Z</time>
      </trkpt>
      <trkpt lat="45.66157" lon="6.60284">
        <ele>1874</ele>
        <time>2023-01-29T13:43:07Z</time>
      </trkpt>
      <trkpt lat="45.66157" lon="6.60281">
        <ele>1875</ele>
        <time>2023-01-29T13:43:12Z</time>
      </trkpt>
      <trkpt lat="45.66155" lon="6.60278">
        <ele>1875</ele>
        <time>2023-01-29T13:43:15Z</time>
      </trkpt>
      <trkpt lat="45.66155" lon="6.60275">
        <ele>1876</ele>
        <time>2023-01-29T13:43:19Z</time>
      </trkpt>
      <trkpt lat="45.66154" lon="6.60273">
        <ele>1876</ele>
        <time>2023-01-29T13:43:22Z</time>
      </trkpt>
      <trkpt lat="45.66154" lon="6.60266">
        <ele>1876</ele>
        <time>2023-01-29T13:43:29Z</time>
      </trkpt>
      <trkpt lat="45.66154" lon="6.60262">
        <ele>1877</ele>
        <time>2023-01-29T13:43:32Z</time>
      </trkpt>
      <trkpt lat="45.66156" lon="6.60237">
        <ele>1882</ele>
        <time>2023-01-29T13:44:01Z</time>
      </trkpt>
      <trkpt lat="45.66158" lon="6.60231">
        <ele>1883</ele>
        <time>2023-01-29T13:44:09Z</time>
      </trkpt>
      <trkpt lat="45.6616" lon="6.60229">
        <ele>1884</ele>
        <time>2023-01-29T13:44:13Z</time>
      </trkpt>
      <trkpt lat="45.66163" lon="6.60219">
        <ele>1886</ele>
        <time>2023-01-29T13:44:25Z</time>
      </trkpt>
      <trkpt lat="45.66163" lon="6.60216">
        <ele>1886</ele>
        <time>2023-01-29T13:44:28Z</time>
      </trkpt>
      <trkpt lat="45.66166" lon="6.60215">
        <ele>1886</ele>
        <time>2023-01-29T13:44:32Z</time>
      </trkpt>
      <trkpt lat="45.66168" lon="6.60217">
        <ele>1886</ele>
        <time>2023-01-29T13:44:35Z</time>
      </trkpt>
      <trkpt lat="45.66172" lon="6.6022">
        <ele>1888</ele>
        <time>2023-01-29T13:44:42Z</time>
      </trkpt>
      <trkpt lat="45.66182" lon="6.6022">
        <ele>1890</ele>
        <time>2023-01-29T13:44:58Z</time>
      </trkpt>
      <trkpt lat="45.66184" lon="6.6022">
        <ele>1890</ele>
        <time>2023-01-29T13:45:02Z</time>
      </trkpt>
      <trkpt lat="45.66187" lon="6.60218">
        <ele>1891</ele>
        <time>2023-01-29T13:45:06Z</time>
      </trkpt>
      <trkpt lat="45.66189" lon="6.60216">
        <ele>1890</ele>
        <time>2023-01-29T13:45:09Z</time>
      </trkpt>
      <trkpt lat="45.66191" lon="6.60214">
        <ele>1891</ele>
        <time>2023-01-29T13:45:12Z</time>
      </trkpt>
      <trkpt lat="45.66202" lon="6.60209">
        <ele>1892</ele>
        <time>2023-01-29T13:45:24Z</time>
      </trkpt>
      <trkpt lat="45.66205" lon="6.60208">
        <ele>1893</ele>
        <time>2023-01-29T13:45:28Z</time>
      </trkpt>
      <trkpt lat="45.66208" lon="6.60207">
        <ele>1893</ele>
        <time>2023-01-29T13:45:31Z</time>
      </trkpt>
      <trkpt lat="45.66216" lon="6.60208">
        <ele>1894</ele>
        <time>2023-01-29T13:45:43Z</time>
      </trkpt>
      <trkpt lat="45.66218" lon="6.60207">
        <ele>1894</ele>
        <time>2023-01-29T13:45:47Z</time>
      </trkpt>
      <trkpt lat="45.6622" lon="6.60204">
        <ele>1895</ele>
        <time>2023-01-29T13:45:51Z</time>
      </trkpt>
      <trkpt lat="45.66222" lon="6.60203">
        <ele>1896</ele>
        <time>2023-01-29T13:45:56Z</time>
      </trkpt>
      <trkpt lat="45.66234" lon="6.60207">
        <ele>1898</ele>
        <time>2023-01-29T13:46:13Z</time>
      </trkpt>
      <trkpt lat="45.66236" lon="6.6021">
        <ele>1898</ele>
        <time>2023-01-29T13:46:17Z</time>
      </trkpt>
      <trkpt lat="45.66241" lon="6.60213">
        <ele>1898</ele>
        <time>2023-01-29T13:46:26Z</time>
      </trkpt>
      <trkpt lat="45.66246" lon="6.60217">
        <ele>1899</ele>
        <time>2023-01-29T13:46:32Z</time>
      </trkpt>
      <trkpt lat="45.6625" lon="6.6022">
        <ele>1900</ele>
        <time>2023-01-29T13:46:41Z</time>
      </trkpt>
      <trkpt lat="45.66253" lon="6.60221">
        <ele>1900</ele>
        <time>2023-01-29T13:46:45Z</time>
      </trkpt>
      <trkpt lat="45.66263" lon="6.60216">
        <ele>1904</ele>
        <time>2023-01-29T13:47:03Z</time>
      </trkpt>
      <trkpt lat="45.66265" lon="6.60214">
        <ele>1905</ele>
        <time>2023-01-29T13:47:07Z</time>
      </trkpt>
      <trkpt lat="45.66266" lon="6.60211">
        <ele>1905</ele>
        <time>2023-01-29T13:47:12Z</time>
      </trkpt>
      <trkpt lat="45.66267" lon="6.60208">
        <ele>1905</ele>
        <time>2023-01-29T13:47:16Z</time>
      </trkpt>
      <trkpt lat="45.66268" lon="6.60204">
        <ele>1905</ele>
        <time>2023-01-29T13:47:21Z</time>
      </trkpt>
      <trkpt lat="45.66267" lon="6.60201">
        <ele>1906</ele>
        <time>2023-01-29T13:47:24Z</time>
      </trkpt>
      <trkpt lat="45.66267" lon="6.60198">
        <ele>1907</ele>
        <time>2023-01-29T13:47:27Z</time>
      </trkpt>
      <trkpt lat="45.66265" lon="6.60195">
        <ele>1908</ele>
        <time>2023-01-29T13:47:30Z</time>
      </trkpt>
      <trkpt lat="45.66265" lon="6.60192">
        <ele>1907</ele>
        <time>2023-01-29T13:47:33Z</time>
      </trkpt>
      <trkpt lat="45.66264" lon="6.60189">
        <ele>1907</ele>
        <time>2023-01-29T13:47:39Z</time>
      </trkpt>
      <trkpt lat="45.66263" lon="6.60186">
        <ele>1908</ele>
        <time>2023-01-29T13:47:42Z</time>
      </trkpt>
      <trkpt lat="45.66262" lon="6.60184">
        <ele>1908</ele>
        <time>2023-01-29T13:47:46Z</time>
      </trkpt>
      <trkpt lat="45.6626" lon="6.60182">
        <ele>1909</ele>
        <time>2023-01-29T13:47:50Z</time>
      </trkpt>
      <trkpt lat="45.66259" lon="6.60179">
        <ele>1910</ele>
        <time>2023-01-29T13:47:53Z</time>
      </trkpt>
      <trkpt lat="45.66258" lon="6.60177">
        <ele>1910</ele>
        <time>2023-01-29T13:47:57Z</time>
      </trkpt>
      <trkpt lat="45.66259" lon="6.60174">
        <ele>1910</ele>
        <time>2023-01-29T13:48:03Z</time>
      </trkpt>
      <trkpt lat="45.66259" lon="6.6017">
        <ele>1911</ele>
        <time>2023-01-29T13:48:07Z</time>
      </trkpt>
      <trkpt lat="45.66259" lon="6.60167">
        <ele>1912</ele>
        <time>2023-01-29T13:48:11Z</time>
      </trkpt>
      <trkpt lat="45.66261" lon="6.60161">
        <ele>1913</ele>
        <time>2023-01-29T13:48:21Z</time>
      </trkpt>
      <trkpt lat="45.6626" lon="6.60153">
        <ele>1914</ele>
        <time>2023-01-29T13:48:29Z</time>
      </trkpt>
      <trkpt lat="45.6626" lon="6.60149">
        <ele>1915</ele>
        <time>2023-01-29T13:48:32Z</time>
      </trkpt>
      <trkpt lat="45.66259" lon="6.60146">
        <ele>1916</ele>
        <time>2023-01-29T13:48:36Z</time>
      </trkpt>
      <trkpt lat="45.66259" lon="6.60144">
        <ele>1916</ele>
        <time>2023-01-29T13:48:39Z</time>
      </trkpt>
      <trkpt lat="45.66256" lon="6.60131">
        <ele>1919</ele>
        <time>2023-01-29T13:48:53Z</time>
      </trkpt>
      <trkpt lat="45.66256" lon="6.60128">
        <ele>1919</ele>
        <time>2023-01-29T13:48:56Z</time>
      </trkpt>
      <trkpt lat="45.66255" lon="6.60125">
        <ele>1920</ele>
        <time>2023-01-29T13:49:00Z</time>
      </trkpt>
      <trkpt lat="45.66254" lon="6.60123">
        <ele>1920</ele>
        <time>2023-01-29T13:49:02Z</time>
      </trkpt>
      <trkpt lat="45.66249" lon="6.60096">
        <ele>1923</ele>
        <time>2023-01-29T13:49:32Z</time>
      </trkpt>
      <trkpt lat="45.66246" lon="6.60086">
        <ele>1924</ele>
        <time>2023-01-29T13:49:42Z</time>
      </trkpt>
      <trkpt lat="45.66247" lon="6.60083">
        <ele>1925</ele>
        <time>2023-01-29T13:49:45Z</time>
      </trkpt>
      <trkpt lat="45.66251" lon="6.60062">
        <ele>1925</ele>
        <time>2023-01-29T13:50:02Z</time>
      </trkpt>
      <trkpt lat="45.66251" lon="6.60058">
        <ele>1925</ele>
        <time>2023-01-29T13:50:06Z</time>
      </trkpt>
      <trkpt lat="45.6625" lon="6.60055">
        <ele>1925</ele>
        <time>2023-01-29T13:50:10Z</time>
      </trkpt>
      <trkpt lat="45.66251" lon="6.60047">
        <ele>1926</ele>
        <time>2023-01-29T13:50:19Z</time>
      </trkpt>
      <trkpt lat="45.66251" lon="6.60044">
        <ele>1925</ele>
        <time>2023-01-29T13:50:23Z</time>
      </trkpt>
      <trkpt lat="45.66253" lon="6.6004">
        <ele>1926</ele>
        <time>2023-01-29T13:50:27Z</time>
      </trkpt>
      <trkpt lat="45.66257" lon="6.60035">
        <ele>1927</ele>
        <time>2023-01-29T13:50:37Z</time>
      </trkpt>
      <trkpt lat="45.6626" lon="6.60032">
        <ele>1928</ele>
        <time>2023-01-29T13:50:41Z</time>
      </trkpt>
      <trkpt lat="45.66269" lon="6.60023">
        <ele>1929</ele>
        <time>2023-01-29T13:50:55Z</time>
      </trkpt>
      <trkpt lat="45.66273" lon="6.60019">
        <ele>1930</ele>
        <time>2023-01-29T13:51:01Z</time>
      </trkpt>
      <trkpt lat="45.66295" lon="6.60001">
        <ele>1934</ele>
        <time>2023-01-29T13:51:32Z</time>
      </trkpt>
      <trkpt lat="45.66306" lon="6.5999">
        <ele>1934</ele>
        <time>2023-01-29T13:51:52Z</time>
      </trkpt>
      <trkpt lat="45.66309" lon="6.59988">
        <ele>1934</ele>
        <time>2023-01-29T13:51:55Z</time>
      </trkpt>
      <trkpt lat="45.66324" lon="6.5997">
        <ele>1942</ele>
        <time>2023-01-29T13:52:27Z</time>
      </trkpt>
      <trkpt lat="45.66334" lon="6.5996">
        <ele>1942</ele>
        <time>2023-01-29T13:52:44Z</time>
      </trkpt>
      <trkpt lat="45.66338" lon="6.59954">
        <ele>1943</ele>
        <time>2023-01-29T13:52:53Z</time>
      </trkpt>
      <trkpt lat="45.66341" lon="6.59953">
        <ele>1943</ele>
        <time>2023-01-29T13:52:59Z</time>
      </trkpt>
      <trkpt lat="45.66344" lon="6.59951">
        <ele>1944</ele>
        <time>2023-01-29T13:53:03Z</time>
      </trkpt>
      <trkpt lat="45.66344" lon="6.59948">
        <ele>1945</ele>
        <time>2023-01-29T13:53:10Z</time>
      </trkpt>
      <trkpt lat="45.66343" lon="6.59944">
        <ele>1947</ele>
        <time>2023-01-29T13:53:13Z</time>
      </trkpt>
      <trkpt lat="45.66341" lon="6.59942">
        <ele>1947</ele>
        <time>2023-01-29T13:53:16Z</time>
      </trkpt>
      <trkpt lat="45.66341" lon="6.59939">
        <ele>1948</ele>
        <time>2023-01-29T13:53:18Z</time>
      </trkpt>
      <trkpt lat="45.66339" lon="6.59933">
        <ele>1948</ele>
        <time>2023-01-29T13:53:25Z</time>
      </trkpt>
      <trkpt lat="45.66339" lon="6.59927">
        <ele>1949</ele>
        <time>2023-01-29T13:53:35Z</time>
      </trkpt>
      <trkpt lat="45.66339" lon="6.59923">
        <ele>1950</ele>
        <time>2023-01-29T13:53:39Z</time>
      </trkpt>
      <trkpt lat="45.66337" lon="6.59922">
        <ele>1950</ele>
        <time>2023-01-29T13:53:42Z</time>
      </trkpt>
      <trkpt lat="45.66333" lon="6.59917">
        <ele>1952</ele>
        <time>2023-01-29T13:53:50Z</time>
      </trkpt>
      <trkpt lat="45.66329" lon="6.5991">
        <ele>1952</ele>
        <time>2023-01-29T13:54:01Z</time>
      </trkpt>
      <trkpt lat="45.66325" lon="6.59893">
        <ele>1954</ele>
        <time>2023-01-29T13:54:18Z</time>
      </trkpt>
      <trkpt lat="45.66325" lon="6.59891">
        <ele>1954</ele>
        <time>2023-01-29T13:54:21Z</time>
      </trkpt>
      <trkpt lat="45.66324" lon="6.59884">
        <ele>1956</ele>
        <time>2023-01-29T13:54:30Z</time>
      </trkpt>
      <trkpt lat="45.66325" lon="6.59881">
        <ele>1956</ele>
        <time>2023-01-29T13:54:35Z</time>
      </trkpt>
      <trkpt lat="45.66329" lon="6.59877">
        <ele>1959</ele>
        <time>2023-01-29T13:54:42Z</time>
      </trkpt>
      <trkpt lat="45.66331" lon="6.59875">
        <ele>1960</ele>
        <time>2023-01-29T13:54:45Z</time>
      </trkpt>
      <trkpt lat="45.66333" lon="6.59873">
        <ele>1960</ele>
        <time>2023-01-29T13:54:49Z</time>
      </trkpt>
      <trkpt lat="45.66336" lon="6.59871">
        <ele>1960</ele>
        <time>2023-01-29T13:54:53Z</time>
      </trkpt>
      <trkpt lat="45.66344" lon="6.59866">
        <ele>1960</ele>
        <time>2023-01-29T13:55:05Z</time>
      </trkpt>
      <trkpt lat="45.66358" lon="6.59865">
        <ele>1964</ele>
        <time>2023-01-29T13:55:30Z</time>
      </trkpt>
      <trkpt lat="45.6636" lon="6.59864">
        <ele>1964</ele>
        <time>2023-01-29T13:55:35Z</time>
      </trkpt>
      <trkpt lat="45.66359" lon="6.5986">
        <ele>1965</ele>
        <time>2023-01-29T13:55:39Z</time>
      </trkpt>
      <trkpt lat="45.66358" lon="6.59857">
        <ele>1966</ele>
        <time>2023-01-29T13:55:42Z</time>
      </trkpt>
      <trkpt lat="45.66358" lon="6.59854">
        <ele>1966</ele>
        <time>2023-01-29T13:55:45Z</time>
      </trkpt>
      <trkpt lat="45.66356" lon="6.59852">
        <ele>1966</ele>
        <time>2023-01-29T13:55:47Z</time>
      </trkpt>
      <trkpt lat="45.66355" lon="6.59849">
        <ele>1966</ele>
        <time>2023-01-29T13:55:52Z</time>
      </trkpt>
      <trkpt lat="45.66355" lon="6.59846">
        <ele>1966</ele>
        <time>2023-01-29T13:55:55Z</time>
      </trkpt>
      <trkpt lat="45.66354" lon="6.59843">
        <ele>1968</ele>
        <time>2023-01-29T13:55:59Z</time>
      </trkpt>
      <trkpt lat="45.66353" lon="6.59837">
        <ele>1970</ele>
        <time>2023-01-29T13:56:06Z</time>
      </trkpt>
      <trkpt lat="45.66353" lon="6.59835">
        <ele>1970</ele>
        <time>2023-01-29T13:56:08Z</time>
      </trkpt>
      <trkpt lat="45.66352" lon="6.59832">
        <ele>1971</ele>
        <time>2023-01-29T13:56:13Z</time>
      </trkpt>
      <trkpt lat="45.6635" lon="6.59827">
        <ele>1973</ele>
        <time>2023-01-29T13:56:20Z</time>
      </trkpt>
      <trkpt lat="45.6635" lon="6.59824">
        <ele>1974</ele>
        <time>2023-01-29T13:56:24Z</time>
      </trkpt>
      <trkpt lat="45.6635" lon="6.59821">
        <ele>1975</ele>
        <time>2023-01-29T13:56:27Z</time>
      </trkpt>
      <trkpt lat="45.66352" lon="6.59819">
        <ele>1975</ele>
        <time>2023-01-29T13:56:31Z</time>
      </trkpt>
      <trkpt lat="45.66366" lon="6.59817">
        <ele>1977</ele>
        <time>2023-01-29T13:56:56Z</time>
      </trkpt>
      <trkpt lat="45.66369" lon="6.59818">
        <ele>1978</ele>
        <time>2023-01-29T13:57:01Z</time>
      </trkpt>
      <trkpt lat="45.66371" lon="6.59819">
        <ele>1979</ele>
        <time>2023-01-29T13:57:06Z</time>
      </trkpt>
      <trkpt lat="45.66374" lon="6.5982">
        <ele>1980</ele>
        <time>2023-01-29T13:57:09Z</time>
      </trkpt>
      <trkpt lat="45.66379" lon="6.59819">
        <ele>1980</ele>
        <time>2023-01-29T13:57:16Z</time>
      </trkpt>
      <trkpt lat="45.66397" lon="6.59802">
        <ele>1984</ele>
        <time>2023-01-29T13:57:47Z</time>
      </trkpt>
      <trkpt lat="45.664" lon="6.59802">
        <ele>1985</ele>
        <time>2023-01-29T13:57:52Z</time>
      </trkpt>
      <trkpt lat="45.66418" lon="6.59787">
        <ele>1987</ele>
        <time>2023-01-29T13:58:20Z</time>
      </trkpt>
      <trkpt lat="45.66423" lon="6.59788">
        <ele>1988</ele>
        <time>2023-01-29T13:58:27Z</time>
      </trkpt>
      <trkpt lat="45.66425" lon="6.59786">
        <ele>1988</ele>
        <time>2023-01-29T13:58:31Z</time>
      </trkpt>
      <trkpt lat="45.66428" lon="6.59784">
        <ele>1988</ele>
        <time>2023-01-29T13:58:36Z</time>
      </trkpt>
      <trkpt lat="45.66433" lon="6.59781">
        <ele>1989</ele>
        <time>2023-01-29T13:58:43Z</time>
      </trkpt>
      <trkpt lat="45.66438" lon="6.59782">
        <ele>1991</ele>
        <time>2023-01-29T13:58:50Z</time>
      </trkpt>
      <trkpt lat="45.6644" lon="6.59783">
        <ele>1993</ele>
        <time>2023-01-29T13:58:58Z</time>
      </trkpt>
      <trkpt lat="45.66443" lon="6.59781">
        <ele>1993</ele>
        <time>2023-01-29T13:59:05Z</time>
      </trkpt>
      <trkpt lat="45.66448" lon="6.59777">
        <ele>1994</ele>
        <time>2023-01-29T13:59:13Z</time>
      </trkpt>
      <trkpt lat="45.6645" lon="6.59775">
        <ele>1994</ele>
        <time>2023-01-29T13:59:17Z</time>
      </trkpt>
      <trkpt lat="45.66453" lon="6.59773">
        <ele>1994</ele>
        <time>2023-01-29T13:59:21Z</time>
      </trkpt>
      <trkpt lat="45.66455" lon="6.59767">
        <ele>1996</ele>
        <time>2023-01-29T13:59:30Z</time>
      </trkpt>
      <trkpt lat="45.66455" lon="6.59764">
        <ele>1996</ele>
        <time>2023-01-29T13:59:34Z</time>
      </trkpt>
      <trkpt lat="45.66457" lon="6.5976">
        <ele>1996</ele>
        <time>2023-01-29T13:59:39Z</time>
      </trkpt>
      <trkpt lat="45.66458" lon="6.59757">
        <ele>1997</ele>
        <time>2023-01-29T13:59:43Z</time>
      </trkpt>
      <trkpt lat="45.66456" lon="6.59754">
        <ele>1998</ele>
        <time>2023-01-29T13:59:46Z</time>
      </trkpt>
      <trkpt lat="45.66455" lon="6.59751">
        <ele>1999</ele>
        <time>2023-01-29T13:59:49Z</time>
      </trkpt>
      <trkpt lat="45.66455" lon="6.59748">
        <ele>1997</ele>
        <time>2023-01-29T14:02:52Z</time>
      </trkpt>
      <trkpt lat="45.66454" lon="6.59749">
        <ele>2000</ele>
        <time>2023-01-29T14:03:43Z</time>
      </trkpt>
      <trkpt lat="45.66452" lon="6.59746">
        <ele>2001</ele>
        <time>2023-01-29T14:05:10Z</time>
      </trkpt>
      <trkpt lat="45.66452" lon="6.59743">
        <ele>2002</ele>
        <time>2023-01-29T14:05:15Z</time>
      </trkpt>
      <trkpt lat="45.66452" lon="6.59738">
        <ele>2002</ele>
        <time>2023-01-29T14:05:23Z</time>
      </trkpt>
      <trkpt lat="45.66451" lon="6.59735">
        <ele>2002</ele>
        <time>2023-01-29T14:05:26Z</time>
      </trkpt>
      <trkpt lat="45.66451" lon="6.59732">
        <ele>2003</ele>
        <time>2023-01-29T14:05:29Z</time>
      </trkpt>
      <trkpt lat="45.66449" lon="6.59729">
        <ele>2003</ele>
        <time>2023-01-29T14:05:32Z</time>
      </trkpt>
      <trkpt lat="45.66448" lon="6.59727">
        <ele>2004</ele>
        <time>2023-01-29T14:05:34Z</time>
      </trkpt>
      <trkpt lat="45.66448" lon="6.59724">
        <ele>2004</ele>
        <time>2023-01-29T14:05:37Z</time>
      </trkpt>
      <trkpt lat="45.66449" lon="6.59721">
        <ele>2005</ele>
        <time>2023-01-29T14:05:41Z</time>
      </trkpt>
      <trkpt lat="45.66453" lon="6.59717">
        <ele>2005</ele>
        <time>2023-01-29T14:05:51Z</time>
      </trkpt>
      <trkpt lat="45.66456" lon="6.59714">
        <ele>2005</ele>
        <time>2023-01-29T14:05:58Z</time>
      </trkpt>
      <trkpt lat="45.66458" lon="6.59712">
        <ele>2004</ele>
        <time>2023-01-29T14:06:03Z</time>
      </trkpt>
      <trkpt lat="45.66459" lon="6.59709">
        <ele>2004</ele>
        <time>2023-01-29T14:06:07Z</time>
      </trkpt>
      <trkpt lat="45.66455" lon="6.59703">
        <ele>2007</ele>
        <time>2023-01-29T14:06:15Z</time>
      </trkpt>
      <trkpt lat="45.66453" lon="6.59699">
        <ele>2010</ele>
        <time>2023-01-29T14:06:22Z</time>
      </trkpt>
      <trkpt lat="45.66451" lon="6.59697">
        <ele>2012</ele>
        <time>2023-01-29T14:06:25Z</time>
      </trkpt>
      <trkpt lat="45.66451" lon="6.59695">
        <ele>2013</ele>
        <time>2023-01-29T14:06:28Z</time>
      </trkpt>
      <trkpt lat="45.66449" lon="6.59692">
        <ele>2016</ele>
        <time>2023-01-29T14:06:31Z</time>
      </trkpt>
      <trkpt lat="45.66448" lon="6.59689">
        <ele>2016</ele>
        <time>2023-01-29T14:06:35Z</time>
      </trkpt>
      <trkpt lat="45.66448" lon="6.59681">
        <ele>2015</ele>
        <time>2023-01-29T14:06:41Z</time>
      </trkpt>
      <trkpt lat="45.66445" lon="6.59674">
        <ele>2015</ele>
        <time>2023-01-29T14:06:47Z</time>
      </trkpt>
      <trkpt lat="45.66442" lon="6.59671">
        <ele>2016</ele>
        <time>2023-01-29T14:06:54Z</time>
      </trkpt>
      <trkpt lat="45.66441" lon="6.59667">
        <ele>2017</ele>
        <time>2023-01-29T14:06:58Z</time>
      </trkpt>
      <trkpt lat="45.66441" lon="6.59665">
        <ele>2018</ele>
        <time>2023-01-29T14:07:01Z</time>
      </trkpt>
      <trkpt lat="45.66441" lon="6.59662">
        <ele>2018</ele>
        <time>2023-01-29T14:07:04Z</time>
      </trkpt>
      <trkpt lat="45.66442" lon="6.59659">
        <ele>2019</ele>
        <time>2023-01-29T14:07:08Z</time>
      </trkpt>
      <trkpt lat="45.66444" lon="6.59657">
        <ele>2019</ele>
        <time>2023-01-29T14:07:13Z</time>
      </trkpt>
      <trkpt lat="45.66444" lon="6.59654">
        <ele>2019</ele>
        <time>2023-01-29T14:07:16Z</time>
      </trkpt>
      <trkpt lat="45.6644" lon="6.59645">
        <ele>2022</ele>
        <time>2023-01-29T14:07:29Z</time>
      </trkpt>
      <trkpt lat="45.66439" lon="6.59643">
        <ele>2023</ele>
        <time>2023-01-29T14:07:31Z</time>
      </trkpt>
      <trkpt lat="45.66438" lon="6.5964">
        <ele>2024</ele>
        <time>2023-01-29T14:07:34Z</time>
      </trkpt>
      <trkpt lat="45.66437" lon="6.59637">
        <ele>2024</ele>
        <time>2023-01-29T14:07:37Z</time>
      </trkpt>
      <trkpt lat="45.66435" lon="6.59635">
        <ele>2025</ele>
        <time>2023-01-29T14:07:41Z</time>
      </trkpt>
      <trkpt lat="45.66434" lon="6.59633">
        <ele>2026</ele>
        <time>2023-01-29T14:07:44Z</time>
      </trkpt>
      <trkpt lat="45.66433" lon="6.59632">
        <ele>2026</ele>
        <time>2023-01-29T14:07:47Z</time>
      </trkpt>
      <trkpt lat="45.66431" lon="6.5963">
        <ele>2027</ele>
        <time>2023-01-29T14:07:50Z</time>
      </trkpt>
      <trkpt lat="45.66429" lon="6.59629">
        <ele>2028</ele>
        <time>2023-01-29T14:07:54Z</time>
      </trkpt>
      <trkpt lat="45.66425" lon="6.59624">
        <ele>2030</ele>
        <time>2023-01-29T14:08:02Z</time>
      </trkpt>
      <trkpt lat="45.66424" lon="6.59622">
        <ele>2030</ele>
        <time>2023-01-29T14:08:05Z</time>
      </trkpt>
      <trkpt lat="45.66425" lon="6.59619">
        <ele>2030</ele>
        <time>2023-01-29T14:08:10Z</time>
      </trkpt>
      <trkpt lat="45.66428" lon="6.59614">
        <ele>2029</ele>
        <time>2023-01-29T14:08:23Z</time>
      </trkpt>
      <trkpt lat="45.66427" lon="6.59612">
        <ele>2030</ele>
        <time>2023-01-29T14:08:26Z</time>
      </trkpt>
      <trkpt lat="45.66425" lon="6.59611">
        <ele>2031</ele>
        <time>2023-01-29T14:08:29Z</time>
      </trkpt>
      <trkpt lat="45.66424" lon="6.59609">
        <ele>2032</ele>
        <time>2023-01-29T14:08:32Z</time>
      </trkpt>
      <trkpt lat="45.66414" lon="6.59593">
        <ele>2036</ele>
        <time>2023-01-29T14:08:53Z</time>
      </trkpt>
      <trkpt lat="45.66413" lon="6.5959">
        <ele>2037</ele>
        <time>2023-01-29T14:08:56Z</time>
      </trkpt>
      <trkpt lat="45.66411" lon="6.59589">
        <ele>2038</ele>
        <time>2023-01-29T14:08:58Z</time>
      </trkpt>
      <trkpt lat="45.6641" lon="6.59588">
        <ele>2039</ele>
        <time>2023-01-29T14:09:01Z</time>
      </trkpt>
      <trkpt lat="45.66408" lon="6.59586">
        <ele>2039</ele>
        <time>2023-01-29T14:09:04Z</time>
      </trkpt>
      <trkpt lat="45.66401" lon="6.59583">
        <ele>2040</ele>
        <time>2023-01-29T14:09:12Z</time>
      </trkpt>
      <trkpt lat="45.664" lon="6.5958">
        <ele>2040</ele>
        <time>2023-01-29T14:09:22Z</time>
      </trkpt>
      <trkpt lat="45.66398" lon="6.59578">
        <ele>2040</ele>
        <time>2023-01-29T14:09:25Z</time>
      </trkpt>
      <trkpt lat="45.66391" lon="6.59573">
        <ele>2040</ele>
        <time>2023-01-29T14:09:33Z</time>
      </trkpt>
      <trkpt lat="45.66385" lon="6.59571">
        <ele>2040</ele>
        <time>2023-01-29T14:09:40Z</time>
      </trkpt>
      <trkpt lat="45.66368" lon="6.59573">
        <ele>2044</ele>
        <time>2023-01-29T14:09:59Z</time>
      </trkpt>
      <trkpt lat="45.66364" lon="6.59575">
        <ele>2045</ele>
        <time>2023-01-29T14:10:06Z</time>
      </trkpt>
      <trkpt lat="45.66357" lon="6.59583">
        <ele>2045</ele>
        <time>2023-01-29T14:10:18Z</time>
      </trkpt>
      <trkpt lat="45.66356" lon="6.59583">
        <ele>2046</ele>
        <time>2023-01-29T14:10:21Z</time>
      </trkpt>
      <trkpt lat="45.66354" lon="6.59583">
        <ele>2046</ele>
        <time>2023-01-29T14:10:24Z</time>
      </trkpt>
      <trkpt lat="45.66347" lon="6.59584">
        <ele>2047</ele>
        <time>2023-01-29T14:10:32Z</time>
      </trkpt>
      <trkpt lat="45.66344" lon="6.59583">
        <ele>2048</ele>
        <time>2023-01-29T14:10:36Z</time>
      </trkpt>
      <trkpt lat="45.66343" lon="6.5958">
        <ele>2048</ele>
        <time>2023-01-29T14:10:41Z</time>
      </trkpt>
      <trkpt lat="45.66342" lon="6.59578">
        <ele>2049</ele>
        <time>2023-01-29T14:10:45Z</time>
      </trkpt>
      <trkpt lat="45.66341" lon="6.59575">
        <ele>2049</ele>
        <time>2023-01-29T14:10:50Z</time>
      </trkpt>
      <trkpt lat="45.6634" lon="6.59573">
        <ele>2049</ele>
        <time>2023-01-29T14:10:56Z</time>
      </trkpt>
      <trkpt lat="45.66339" lon="6.59568">
        <ele>2049</ele>
        <time>2023-01-29T14:11:02Z</time>
      </trkpt>
      <trkpt lat="45.66337" lon="6.59566">
        <ele>2049</ele>
        <time>2023-01-29T14:11:05Z</time>
      </trkpt>
      <trkpt lat="45.66337" lon="6.59563">
        <ele>2049</ele>
        <time>2023-01-29T14:11:07Z</time>
      </trkpt>
      <trkpt lat="45.66333" lon="6.59554">
        <ele>2050</ele>
        <time>2023-01-29T14:11:16Z</time>
      </trkpt>
      <trkpt lat="45.66333" lon="6.59552">
        <ele>2050</ele>
        <time>2023-01-29T14:11:19Z</time>
      </trkpt>
      <trkpt lat="45.66332" lon="6.5955">
        <ele>2052</ele>
        <time>2023-01-29T14:11:21Z</time>
      </trkpt>
      <trkpt lat="45.66331" lon="6.59547">
        <ele>2051</ele>
        <time>2023-01-29T14:11:24Z</time>
      </trkpt>
      <trkpt lat="45.66318" lon="6.59524">
        <ele>2055</ele>
        <time>2023-01-29T14:11:53Z</time>
      </trkpt>
      <trkpt lat="45.66317" lon="6.59522">
        <ele>2056</ele>
        <time>2023-01-29T14:11:55Z</time>
      </trkpt>
      <trkpt lat="45.66317" lon="6.59519">
        <ele>2057</ele>
        <time>2023-01-29T14:11:58Z</time>
      </trkpt>
      <trkpt lat="45.66316" lon="6.59517">
        <ele>2057</ele>
        <time>2023-01-29T14:12:01Z</time>
      </trkpt>
      <trkpt lat="45.66315" lon="6.59514">
        <ele>2057</ele>
        <time>2023-01-29T14:12:04Z</time>
      </trkpt>
      <trkpt lat="45.66314" lon="6.59509">
        <ele>2056</ele>
        <time>2023-01-29T14:12:09Z</time>
      </trkpt>
      <trkpt lat="45.66315" lon="6.59506">
        <ele>2056</ele>
        <time>2023-01-29T14:12:13Z</time>
      </trkpt>
      <trkpt lat="45.66316" lon="6.59502">
        <ele>2058</ele>
        <time>2023-01-29T14:12:19Z</time>
      </trkpt>
      <trkpt lat="45.66317" lon="6.595">
        <ele>2058</ele>
        <time>2023-01-29T14:12:22Z</time>
      </trkpt>
      <trkpt lat="45.66324" lon="6.595">
        <ele>2058</ele>
        <time>2023-01-29T14:12:33Z</time>
      </trkpt>
      <trkpt lat="45.66327" lon="6.59501">
        <ele>2058</ele>
        <time>2023-01-29T14:12:37Z</time>
      </trkpt>
      <trkpt lat="45.66327" lon="6.59499">
        <ele>2059</ele>
        <time>2023-01-29T14:13:17Z</time>
      </trkpt>
      <trkpt lat="45.66328" lon="6.59499">
        <ele>2063</ele>
        <time>2023-01-29T14:17:46Z</time>
      </trkpt>
      <trkpt lat="45.66327" lon="6.59499">
        <ele>2064</ele>
        <time>2023-01-29T14:21:23Z</time>
      </trkpt>
      <trkpt lat="45.66326" lon="6.59497">
        <ele>2065</ele>
        <time>2023-01-29T14:22:43Z</time>
      </trkpt>
      <trkpt lat="45.66324" lon="6.59495">
        <ele>2066</ele>
        <time>2023-01-29T14:27:11Z</time>
      </trkpt>
      <trkpt lat="45.6632" lon="6.59488">
        <ele>2065</ele>
        <time>2023-01-29T14:27:13Z</time>
      </trkpt>
      <trkpt lat="45.66316" lon="6.59484">
        <ele>2064</ele>
        <time>2023-01-29T14:27:14Z</time>
      </trkpt>
      <trkpt lat="45.66308" lon="6.59474">
        <ele>2064</ele>
        <time>2023-01-29T14:27:16Z</time>
      </trkpt>
      <trkpt lat="45.66303" lon="6.5947">
        <ele>2063</ele>
        <time>2023-01-29T14:27:17Z</time>
      </trkpt>
      <trkpt lat="45.66291" lon="6.59464">
        <ele>2061</ele>
        <time>2023-01-29T14:27:19Z</time>
      </trkpt>
      <trkpt lat="45.66287" lon="6.59459">
        <ele>2061</ele>
        <time>2023-01-29T14:27:20Z</time>
      </trkpt>
      <trkpt lat="45.66285" lon="6.59452">
        <ele>2061</ele>
        <time>2023-01-29T14:27:21Z</time>
      </trkpt>
      <trkpt lat="45.66284" lon="6.59446">
        <ele>2062</ele>
        <time>2023-01-29T14:27:22Z</time>
      </trkpt>
      <trkpt lat="45.66285" lon="6.59442">
        <ele>2062</ele>
        <time>2023-01-29T14:27:23Z</time>
      </trkpt>
      <trkpt lat="45.66286" lon="6.59439">
        <ele>2062</ele>
        <time>2023-01-29T14:27:24Z</time>
      </trkpt>
      <trkpt lat="45.66295" lon="6.59429">
        <ele>2058</ele>
        <time>2023-01-29T14:27:30Z</time>
      </trkpt>
      <trkpt lat="45.66332" lon="6.5941">
        <ele>2049</ele>
        <time>2023-01-29T14:27:39Z</time>
      </trkpt>
      <trkpt lat="45.66336" lon="6.59414">
        <ele>2044</ele>
        <time>2023-01-29T14:27:49Z</time>
      </trkpt>
      <trkpt lat="45.6637" lon="6.59431">
        <ele>2037</ele>
        <time>2023-01-29T14:28:01Z</time>
      </trkpt>
      <trkpt lat="45.66376" lon="6.59431">
        <ele>2036</ele>
        <time>2023-01-29T14:28:03Z</time>
      </trkpt>
      <trkpt lat="45.66383" lon="6.5943">
        <ele>2034</ele>
        <time>2023-01-29T14:28:05Z</time>
      </trkpt>
      <trkpt lat="45.66386" lon="6.59431">
        <ele>2034</ele>
        <time>2023-01-29T14:28:06Z</time>
      </trkpt>
      <trkpt lat="45.6639" lon="6.59434">
        <ele>2032</ele>
        <time>2023-01-29T14:28:08Z</time>
      </trkpt>
      <trkpt lat="45.66398" lon="6.59432">
        <ele>2031</ele>
        <time>2023-01-29T14:28:10Z</time>
      </trkpt>
      <trkpt lat="45.66398" lon="6.59429">
        <ele>2028</ele>
        <time>2023-01-29T14:28:23Z</time>
      </trkpt>
      <trkpt lat="45.66396" lon="6.59428">
        <ele>2027</ele>
        <time>2023-01-29T14:28:28Z</time>
      </trkpt>
      <trkpt lat="45.66392" lon="6.59425">
        <ele>2025</ele>
        <time>2023-01-29T14:28:30Z</time>
      </trkpt>
      <trkpt lat="45.66392" lon="6.59421">
        <ele>2025</ele>
        <time>2023-01-29T14:28:31Z</time>
      </trkpt>
      <trkpt lat="45.66397" lon="6.59413">
        <ele>2022</ele>
        <time>2023-01-29T14:28:37Z</time>
      </trkpt>
      <trkpt lat="45.66401" lon="6.59412">
        <ele>2021</ele>
        <time>2023-01-29T14:28:39Z</time>
      </trkpt>
      <trkpt lat="45.66384" lon="6.59395">
        <ele>2016</ele>
        <time>2023-01-29T14:28:49Z</time>
      </trkpt>
      <trkpt lat="45.66389" lon="6.59392">
        <ele>2016</ele>
        <time>2023-01-29T14:28:53Z</time>
      </trkpt>
      <trkpt lat="45.66393" lon="6.59392">
        <ele>2015</ele>
        <time>2023-01-29T14:28:54Z</time>
      </trkpt>
      <trkpt lat="45.66396" lon="6.59388">
        <ele>2014</ele>
        <time>2023-01-29T14:28:56Z</time>
      </trkpt>
      <trkpt lat="45.66398" lon="6.59384">
        <ele>2013</ele>
        <time>2023-01-29T14:28:58Z</time>
      </trkpt>
      <trkpt lat="45.66396" lon="6.59377">
        <ele>2012</ele>
        <time>2023-01-29T14:29:00Z</time>
      </trkpt>
      <trkpt lat="45.66396" lon="6.59374">
        <ele>2010</ele>
        <time>2023-01-29T14:29:04Z</time>
      </trkpt>
      <trkpt lat="45.66398" lon="6.59373">
        <ele>2008</ele>
        <time>2023-01-29T14:29:06Z</time>
      </trkpt>
      <trkpt lat="45.66394" lon="6.59369">
        <ele>2004</ele>
        <time>2023-01-29T14:29:09Z</time>
      </trkpt>
      <trkpt lat="45.66384" lon="6.59365">
        <ele>2002</ele>
        <time>2023-01-29T14:29:12Z</time>
      </trkpt>
      <trkpt lat="45.66381" lon="6.59361">
        <ele>2002</ele>
        <time>2023-01-29T14:29:13Z</time>
      </trkpt>
      <trkpt lat="45.66377" lon="6.59348">
        <ele>2001</ele>
        <time>2023-01-29T14:29:15Z</time>
      </trkpt>
      <trkpt lat="45.66372" lon="6.59341">
        <ele>2001</ele>
        <time>2023-01-29T14:29:17Z</time>
      </trkpt>
      <trkpt lat="45.6637" lon="6.59337">
        <ele>2000</ele>
        <time>2023-01-29T14:29:18Z</time>
      </trkpt>
      <trkpt lat="45.66367" lon="6.59335">
        <ele>2000</ele>
        <time>2023-01-29T14:29:21Z</time>
      </trkpt>
      <trkpt lat="45.66366" lon="6.59332">
        <ele>1999</ele>
        <time>2023-01-29T14:29:23Z</time>
      </trkpt>
      <trkpt lat="45.66363" lon="6.59325">
        <ele>1998</ele>
        <time>2023-01-29T14:29:27Z</time>
      </trkpt>
      <trkpt lat="45.66364" lon="6.59323">
        <ele>1998</ele>
        <time>2023-01-29T14:30:34Z</time>
      </trkpt>
      <trkpt lat="45.66371" lon="6.59325">
        <ele>1995</ele>
        <time>2023-01-29T14:30:37Z</time>
      </trkpt>
      <trkpt lat="45.66374" lon="6.59322">
        <ele>1994</ele>
        <time>2023-01-29T14:30:38Z</time>
      </trkpt>
      <trkpt lat="45.66382" lon="6.59319">
        <ele>1993</ele>
        <time>2023-01-29T14:30:40Z</time>
      </trkpt>
      <trkpt lat="45.66387" lon="6.59311">
        <ele>1991</ele>
        <time>2023-01-29T14:30:42Z</time>
      </trkpt>
      <trkpt lat="45.6639" lon="6.59302">
        <ele>1990</ele>
        <time>2023-01-29T14:30:44Z</time>
      </trkpt>
      <trkpt lat="45.66392" lon="6.59299">
        <ele>1990</ele>
        <time>2023-01-29T14:30:45Z</time>
      </trkpt>
      <trkpt lat="45.66395" lon="6.59292">
        <ele>1989</ele>
        <time>2023-01-29T14:30:47Z</time>
      </trkpt>
      <trkpt lat="45.66393" lon="6.59277">
        <ele>1988</ele>
        <time>2023-01-29T14:30:51Z</time>
      </trkpt>
      <trkpt lat="45.66396" lon="6.59271">
        <ele>1986</ele>
        <time>2023-01-29T14:30:52Z</time>
      </trkpt>
      <trkpt lat="45.66396" lon="6.59267">
        <ele>1985</ele>
        <time>2023-01-29T14:30:53Z</time>
      </trkpt>
      <trkpt lat="45.66393" lon="6.59263">
        <ele>1982</ele>
        <time>2023-01-29T14:30:55Z</time>
      </trkpt>
      <trkpt lat="45.6639" lon="6.59261">
        <ele>1980</ele>
        <time>2023-01-29T14:30:59Z</time>
      </trkpt>
      <trkpt lat="45.66396" lon="6.59259">
        <ele>1978</ele>
        <time>2023-01-29T14:31:02Z</time>
      </trkpt>
      <trkpt lat="45.66408" lon="6.59264">
        <ele>1971</ele>
        <time>2023-01-29T14:31:05Z</time>
      </trkpt>
      <trkpt lat="45.66415" lon="6.59271">
        <ele>1968</ele>
        <time>2023-01-29T14:31:07Z</time>
      </trkpt>
      <trkpt lat="45.66421" lon="6.59281">
        <ele>1966</ele>
        <time>2023-01-29T14:31:10Z</time>
      </trkpt>
      <trkpt lat="45.66424" lon="6.5928">
        <ele>1965</ele>
        <time>2023-01-29T14:31:11Z</time>
      </trkpt>
      <trkpt lat="45.66432" lon="6.59276">
        <ele>1964</ele>
        <time>2023-01-29T14:31:13Z</time>
      </trkpt>
      <trkpt lat="45.6645" lon="6.59279">
        <ele>1961</ele>
        <time>2023-01-29T14:31:19Z</time>
      </trkpt>
      <trkpt lat="45.66452" lon="6.59279">
        <ele>1959</ele>
        <time>2023-01-29T14:31:21Z</time>
      </trkpt>
      <trkpt lat="45.66454" lon="6.59269">
        <ele>1955</ele>
        <time>2023-01-29T14:31:24Z</time>
      </trkpt>
      <trkpt lat="45.66457" lon="6.59268">
        <ele>1954</ele>
        <time>2023-01-29T14:31:25Z</time>
      </trkpt>
      <trkpt lat="45.66455" lon="6.59262">
        <ele>1953</ele>
        <time>2023-01-29T14:31:28Z</time>
      </trkpt>
      <trkpt lat="45.66452" lon="6.59259">
        <ele>1951</ele>
        <time>2023-01-29T14:31:30Z</time>
      </trkpt>
      <trkpt lat="45.66447" lon="6.59256">
        <ele>1950</ele>
        <time>2023-01-29T14:31:32Z</time>
      </trkpt>
      <trkpt lat="45.66443" lon="6.5925">
        <ele>1949</ele>
        <time>2023-01-29T14:31:34Z</time>
      </trkpt>
      <trkpt lat="45.66443" lon="6.59246">
        <ele>1945</ele>
        <time>2023-01-29T14:31:42Z</time>
      </trkpt>
      <trkpt lat="45.66446" lon="6.59244">
        <ele>1944</ele>
        <time>2023-01-29T14:31:43Z</time>
      </trkpt>
      <trkpt lat="45.66451" lon="6.59245">
        <ele>1943</ele>
        <time>2023-01-29T14:31:45Z</time>
      </trkpt>
      <trkpt lat="45.66453" lon="6.59244">
        <ele>1941</ele>
        <time>2023-01-29T14:31:48Z</time>
      </trkpt>
      <trkpt lat="45.66452" lon="6.59241">
        <ele>1940</ele>
        <time>2023-01-29T14:31:50Z</time>
      </trkpt>
      <trkpt lat="45.66445" lon="6.59235">
        <ele>1939</ele>
        <time>2023-01-29T14:31:54Z</time>
      </trkpt>
      <trkpt lat="45.66438" lon="6.59235">
        <ele>1937</ele>
        <time>2023-01-29T14:32:00Z</time>
      </trkpt>
      <trkpt lat="45.66432" lon="6.59225">
        <ele>1936</ele>
        <time>2023-01-29T14:32:03Z</time>
      </trkpt>
      <trkpt lat="45.66429" lon="6.5921">
        <ele>1935</ele>
        <time>2023-01-29T14:32:06Z</time>
      </trkpt>
      <trkpt lat="45.66425" lon="6.59203">
        <ele>1935</ele>
        <time>2023-01-29T14:32:08Z</time>
      </trkpt>
      <trkpt lat="45.66421" lon="6.59201">
        <ele>1935</ele>
        <time>2023-01-29T14:32:09Z</time>
      </trkpt>
      <trkpt lat="45.66417" lon="6.592">
        <ele>1933</ele>
        <time>2023-01-29T14:32:13Z</time>
      </trkpt>
      <trkpt lat="45.66414" lon="6.59193">
        <ele>1932</ele>
        <time>2023-01-29T14:32:24Z</time>
      </trkpt>
      <trkpt lat="45.66414" lon="6.59187">
        <ele>1932</ele>
        <time>2023-01-29T14:32:26Z</time>
      </trkpt>
      <trkpt lat="45.66418" lon="6.59185">
        <ele>1931</ele>
        <time>2023-01-29T14:32:28Z</time>
      </trkpt>
      <trkpt lat="45.66421" lon="6.5918">
        <ele>1929</ele>
        <time>2023-01-29T14:32:31Z</time>
      </trkpt>
      <trkpt lat="45.66423" lon="6.59179">
        <ele>1925</ele>
        <time>2023-01-29T14:32:36Z</time>
      </trkpt>
      <trkpt lat="45.66425" lon="6.59179">
        <ele>1920</ele>
        <time>2023-01-29T14:34:58Z</time>
      </trkpt>
      <trkpt lat="45.66424" lon="6.59174">
        <ele>1918</ele>
        <time>2023-01-29T14:35:03Z</time>
      </trkpt>
      <trkpt lat="45.66428" lon="6.59169">
        <ele>1916</ele>
        <time>2023-01-29T14:35:05Z</time>
      </trkpt>
      <trkpt lat="45.66431" lon="6.59168">
        <ele>1915</ele>
        <time>2023-01-29T14:35:06Z</time>
      </trkpt>
      <trkpt lat="45.66436" lon="6.59156">
        <ele>1913</ele>
        <time>2023-01-29T14:35:11Z</time>
      </trkpt>
      <trkpt lat="45.66437" lon="6.59148">
        <ele>1912</ele>
        <time>2023-01-29T14:35:13Z</time>
      </trkpt>
      <trkpt lat="45.6644" lon="6.59146">
        <ele>1911</ele>
        <time>2023-01-29T14:35:14Z</time>
      </trkpt>
      <trkpt lat="45.66445" lon="6.59147">
        <ele>1910</ele>
        <time>2023-01-29T14:35:15Z</time>
      </trkpt>
      <trkpt lat="45.66451" lon="6.59153">
        <ele>1908</ele>
        <time>2023-01-29T14:35:17Z</time>
      </trkpt>
      <trkpt lat="45.66452" lon="6.59146">
        <ele>1907</ele>
        <time>2023-01-29T14:35:19Z</time>
      </trkpt>
      <trkpt lat="45.6645" lon="6.59141">
        <ele>1905</ele>
        <time>2023-01-29T14:35:20Z</time>
      </trkpt>
      <trkpt lat="45.66449" lon="6.59135">
        <ele>1904</ele>
        <time>2023-01-29T14:35:21Z</time>
      </trkpt>
      <trkpt lat="45.66438" lon="6.59116">
        <ele>1901</ele>
        <time>2023-01-29T14:35:25Z</time>
      </trkpt>
      <trkpt lat="45.66437" lon="6.5911">
        <ele>1900</ele>
        <time>2023-01-29T14:35:26Z</time>
      </trkpt>
      <trkpt lat="45.66437" lon="6.59106">
        <ele>1899</ele>
        <time>2023-01-29T14:35:28Z</time>
      </trkpt>
      <trkpt lat="45.66436" lon="6.59104">
        <ele>1895</ele>
        <time>2023-01-29T14:35:30Z</time>
      </trkpt>
      <trkpt lat="45.66435" lon="6.59105">
        <ele>1890</ele>
        <time>2023-01-29T14:36:16Z</time>
      </trkpt>
      <trkpt lat="45.66432" lon="6.59105">
        <ele>1889</ele>
        <time>2023-01-29T14:36:20Z</time>
      </trkpt>
      <trkpt lat="45.66396" lon="6.59068">
        <ele>1883</ele>
        <time>2023-01-29T14:36:36Z</time>
      </trkpt>
      <trkpt lat="45.66398" lon="6.59066">
        <ele>1883</ele>
        <time>2023-01-29T14:36:39Z</time>
      </trkpt>
      <trkpt lat="45.66402" lon="6.59065">
        <ele>1882</ele>
        <time>2023-01-29T14:36:40Z</time>
      </trkpt>
      <trkpt lat="45.66413" lon="6.5906">
        <ele>1880</ele>
        <time>2023-01-29T14:36:43Z</time>
      </trkpt>
      <trkpt lat="45.66435" lon="6.59055">
        <ele>1876</ele>
        <time>2023-01-29T14:36:48Z</time>
      </trkpt>
      <trkpt lat="45.66465" lon="6.59061">
        <ele>1868</ele>
        <time>2023-01-29T14:36:56Z</time>
      </trkpt>
      <trkpt lat="45.66473" lon="6.59065">
        <ele>1866</ele>
        <time>2023-01-29T14:36:59Z</time>
      </trkpt>
      <trkpt lat="45.66475" lon="6.59064">
        <ele>1866</ele>
        <time>2023-01-29T14:37:00Z</time>
      </trkpt>
      <trkpt lat="45.66476" lon="6.5906">
        <ele>1865</ele>
        <time>2023-01-29T14:37:01Z</time>
      </trkpt>
      <trkpt lat="45.66473" lon="6.5905">
        <ele>1865</ele>
        <time>2023-01-29T14:37:03Z</time>
      </trkpt>
      <trkpt lat="45.66461" lon="6.59029">
        <ele>1862</ele>
        <time>2023-01-29T14:37:08Z</time>
      </trkpt>
      <trkpt lat="45.66452" lon="6.59022">
        <ele>1861</ele>
        <time>2023-01-29T14:37:11Z</time>
      </trkpt>
      <trkpt lat="45.66449" lon="6.59019">
        <ele>1860</ele>
        <time>2023-01-29T14:37:12Z</time>
      </trkpt>
      <trkpt lat="45.66433" lon="6.58996">
        <ele>1856</ele>
        <time>2023-01-29T14:37:18Z</time>
      </trkpt>
      <trkpt lat="45.66429" lon="6.58995">
        <ele>1856</ele>
        <time>2023-01-29T14:37:19Z</time>
      </trkpt>
      <trkpt lat="45.66423" lon="6.58986">
        <ele>1854</ele>
        <time>2023-01-29T14:37:21Z</time>
      </trkpt>
      <trkpt lat="45.66415" lon="6.58985">
        <ele>1850</ele>
        <time>2023-01-29T14:37:25Z</time>
      </trkpt>
      <trkpt lat="45.66405" lon="6.58985">
        <ele>1846</ele>
        <time>2023-01-29T14:37:28Z</time>
      </trkpt>
      <trkpt lat="45.66393" lon="6.58981">
        <ele>1844</ele>
        <time>2023-01-29T14:37:31Z</time>
      </trkpt>
      <trkpt lat="45.66388" lon="6.58982">
        <ele>1843</ele>
        <time>2023-01-29T14:37:32Z</time>
      </trkpt>
      <trkpt lat="45.66357" lon="6.58969">
        <ele>1840</ele>
        <time>2023-01-29T14:37:41Z</time>
      </trkpt>
      <trkpt lat="45.66359" lon="6.58965">
        <ele>1835</ele>
        <time>2023-01-29T14:37:47Z</time>
      </trkpt>
      <trkpt lat="45.6637" lon="6.5896">
        <ele>1832</ele>
        <time>2023-01-29T14:37:50Z</time>
      </trkpt>
      <trkpt lat="45.66406" lon="6.58949">
        <ele>1827</ele>
        <time>2023-01-29T14:37:58Z</time>
      </trkpt>
      <trkpt lat="45.66415" lon="6.58943">
        <ele>1826</ele>
        <time>2023-01-29T14:38:00Z</time>
      </trkpt>
      <trkpt lat="45.66425" lon="6.58932">
        <ele>1824</ele>
        <time>2023-01-29T14:38:03Z</time>
      </trkpt>
      <trkpt lat="45.66424" lon="6.58935">
        <ele>1822</ele>
        <time>2023-01-29T14:38:09Z</time>
      </trkpt>
      <trkpt lat="45.66422" lon="6.58936">
        <ele>1822</ele>
        <time>2023-01-29T14:38:11Z</time>
      </trkpt>
      <trkpt lat="45.66419" lon="6.58935">
        <ele>1821</ele>
        <time>2023-01-29T14:38:15Z</time>
      </trkpt>
      <trkpt lat="45.66408" lon="6.58931">
        <ele>1819</ele>
        <time>2023-01-29T14:38:20Z</time>
      </trkpt>
      <trkpt lat="45.66401" lon="6.58925">
        <ele>1819</ele>
        <time>2023-01-29T14:38:22Z</time>
      </trkpt>
      <trkpt lat="45.66387" lon="6.58918">
        <ele>1817</ele>
        <time>2023-01-29T14:38:26Z</time>
      </trkpt>
      <trkpt lat="45.66384" lon="6.58915">
        <ele>1817</ele>
        <time>2023-01-29T14:38:27Z</time>
      </trkpt>
      <trkpt lat="45.66377" lon="6.58912">
        <ele>1816</ele>
        <time>2023-01-29T14:38:29Z</time>
      </trkpt>
      <trkpt lat="45.66366" lon="6.58911">
        <ele>1815</ele>
        <time>2023-01-29T14:38:32Z</time>
      </trkpt>
      <trkpt lat="45.66363" lon="6.58913">
        <ele>1814</ele>
        <time>2023-01-29T14:38:33Z</time>
      </trkpt>
      <trkpt lat="45.66358" lon="6.58913">
        <ele>1813</ele>
        <time>2023-01-29T14:38:34Z</time>
      </trkpt>
      <trkpt lat="45.66353" lon="6.58911">
        <ele>1812</ele>
        <time>2023-01-29T14:38:35Z</time>
      </trkpt>
      <trkpt lat="45.66342" lon="6.58901">
        <ele>1811</ele>
        <time>2023-01-29T14:38:38Z</time>
      </trkpt>
      <trkpt lat="45.66319" lon="6.589">
        <ele>1807</ele>
        <time>2023-01-29T14:38:44Z</time>
      </trkpt>
      <trkpt lat="45.66284" lon="6.58907">
        <ele>1804</ele>
        <time>2023-01-29T14:38:51Z</time>
      </trkpt>
      <trkpt lat="45.6628" lon="6.58906">
        <ele>1804</ele>
        <time>2023-01-29T14:38:53Z</time>
      </trkpt>
      <trkpt lat="45.66277" lon="6.58904">
        <ele>1801</ele>
        <time>2023-01-29T14:39:02Z</time>
      </trkpt>
      <trkpt lat="45.66274" lon="6.58905">
        <ele>1800</ele>
        <time>2023-01-29T14:39:04Z</time>
      </trkpt>
      <trkpt lat="45.66271" lon="6.58904">
        <ele>1799</ele>
        <time>2023-01-29T14:39:07Z</time>
      </trkpt>
      <trkpt lat="45.6627" lon="6.589">
        <ele>1799</ele>
        <time>2023-01-29T14:39:08Z</time>
      </trkpt>
      <trkpt lat="45.66272" lon="6.58894">
        <ele>1798</ele>
        <time>2023-01-29T14:39:09Z</time>
      </trkpt>
      <trkpt lat="45.66276" lon="6.58888">
        <ele>1796</ele>
        <time>2023-01-29T14:39:11Z</time>
      </trkpt>
      <trkpt lat="45.66274" lon="6.5888">
        <ele>1795</ele>
        <time>2023-01-29T14:39:13Z</time>
      </trkpt>
      <trkpt lat="45.66275" lon="6.58874">
        <ele>1794</ele>
        <time>2023-01-29T14:39:14Z</time>
      </trkpt>
      <trkpt lat="45.66279" lon="6.58871">
        <ele>1794</ele>
        <time>2023-01-29T14:39:15Z</time>
      </trkpt>
      <trkpt lat="45.66276" lon="6.58864">
        <ele>1793</ele>
        <time>2023-01-29T14:39:17Z</time>
      </trkpt>
      <trkpt lat="45.66273" lon="6.58861">
        <ele>1792</ele>
        <time>2023-01-29T14:39:18Z</time>
      </trkpt>
      <trkpt lat="45.66269" lon="6.58857">
        <ele>1791</ele>
        <time>2023-01-29T14:39:20Z</time>
      </trkpt>
      <trkpt lat="45.6627" lon="6.58852">
        <ele>1790</ele>
        <time>2023-01-29T14:39:21Z</time>
      </trkpt>
      <trkpt lat="45.66274" lon="6.5885">
        <ele>1789</ele>
        <time>2023-01-29T14:39:22Z</time>
      </trkpt>
      <trkpt lat="45.6628" lon="6.58844">
        <ele>1788</ele>
        <time>2023-01-29T14:39:24Z</time>
      </trkpt>
      <trkpt lat="45.66287" lon="6.58839">
        <ele>1787</ele>
        <time>2023-01-29T14:39:26Z</time>
      </trkpt>
      <trkpt lat="45.66308" lon="6.58813">
        <ele>1774</ele>
        <time>2023-01-29T14:39:47Z</time>
      </trkpt>
      <trkpt lat="45.66311" lon="6.58809">
        <ele>1772</ele>
        <time>2023-01-29T14:39:48Z</time>
      </trkpt>
      <trkpt lat="45.66312" lon="6.58802">
        <ele>1770</ele>
        <time>2023-01-29T14:39:49Z</time>
      </trkpt>
      <trkpt lat="45.66315" lon="6.58796">
        <ele>1768</ele>
        <time>2023-01-29T14:39:50Z</time>
      </trkpt>
      <trkpt lat="45.66317" lon="6.58789">
        <ele>1766</ele>
        <time>2023-01-29T14:39:51Z</time>
      </trkpt>
      <trkpt lat="45.66321" lon="6.58782">
        <ele>1764</ele>
        <time>2023-01-29T14:39:52Z</time>
      </trkpt>
      <trkpt lat="45.66325" lon="6.58775">
        <ele>1761</ele>
        <time>2023-01-29T14:39:53Z</time>
      </trkpt>
      <trkpt lat="45.66334" lon="6.58763">
        <ele>1757</ele>
        <time>2023-01-29T14:39:55Z</time>
      </trkpt>
      <trkpt lat="45.66338" lon="6.58756">
        <ele>1755</ele>
        <time>2023-01-29T14:39:56Z</time>
      </trkpt>
      <trkpt lat="45.66341" lon="6.5875">
        <ele>1753</ele>
        <time>2023-01-29T14:39:57Z</time>
      </trkpt>
      <trkpt lat="45.66344" lon="6.58744">
        <ele>1751</ele>
        <time>2023-01-29T14:39:58Z</time>
      </trkpt>
      <trkpt lat="45.66347" lon="6.58737">
        <ele>1749</ele>
        <time>2023-01-29T14:39:59Z</time>
      </trkpt>
      <trkpt lat="45.66349" lon="6.5873">
        <ele>1747</ele>
        <time>2023-01-29T14:40:00Z</time>
      </trkpt>
      <trkpt lat="45.6635" lon="6.58722">
        <ele>1745</ele>
        <time>2023-01-29T14:40:01Z</time>
      </trkpt>
      <trkpt lat="45.66352" lon="6.58715">
        <ele>1742</ele>
        <time>2023-01-29T14:40:02Z</time>
      </trkpt>
      <trkpt lat="45.66379" lon="6.58659">
        <ele>1730</ele>
        <time>2023-01-29T14:40:10Z</time>
      </trkpt>
      <trkpt lat="45.66437" lon="6.58599">
        <ele>1710</ele>
        <time>2023-01-29T14:40:21Z</time>
      </trkpt>
      <trkpt lat="45.66445" lon="6.58593">
        <ele>1704</ele>
        <time>2023-01-29T14:40:26Z</time>
      </trkpt>
      <trkpt lat="45.66443" lon="6.58595">
        <ele>1698</ele>
        <time>2023-01-29T14:40:54Z</time>
      </trkpt>
      <trkpt lat="45.66443" lon="6.58598">
        <ele>1695</ele>
        <time>2023-01-29T14:43:20Z</time>
      </trkpt>
      <trkpt lat="45.66444" lon="6.58599">
        <ele>1694</ele>
        <time>2023-01-29T14:45:12Z</time>
      </trkpt>
      <trkpt lat="45.66447" lon="6.58597">
        <ele>1688</ele>
        <time>2023-01-29T14:45:45Z</time>
      </trkpt>
      <trkpt lat="45.66468" lon="6.58586">
        <ele>1683</ele>
        <time>2023-01-29T14:45:52Z</time>
      </trkpt>
      <trkpt lat="45.66506" lon="6.58552">
        <ele>1678</ele>
        <time>2023-01-29T14:46:01Z</time>
      </trkpt>
      <trkpt lat="45.66517" lon="6.58535">
        <ele>1678</ele>
        <time>2023-01-29T14:46:05Z</time>
      </trkpt>
      <trkpt lat="45.66528" lon="6.58526">
        <ele>1677</ele>
        <time>2023-01-29T14:46:09Z</time>
      </trkpt>
      <trkpt lat="45.66547" lon="6.58514">
        <ele>1673</ele>
        <time>2023-01-29T14:46:13Z</time>
      </trkpt>
      <trkpt lat="45.6656" lon="6.58502">
        <ele>1671</ele>
        <time>2023-01-29T14:46:17Z</time>
      </trkpt>
      <trkpt lat="45.66567" lon="6.58499">
        <ele>1669</ele>
        <time>2023-01-29T14:46:19Z</time>
      </trkpt>
      <trkpt lat="45.66584" lon="6.58484">
        <ele>1665</ele>
        <time>2023-01-29T14:46:25Z</time>
      </trkpt>
      <trkpt lat="45.66624" lon="6.58471">
        <ele>1659</ele>
        <time>2023-01-29T14:46:36Z</time>
      </trkpt>
      <trkpt lat="45.66639" lon="6.58472">
        <ele>1656</ele>
        <time>2023-01-29T14:46:40Z</time>
      </trkpt>
      <trkpt lat="45.66642" lon="6.58469">
        <ele>1655</ele>
        <time>2023-01-29T14:46:41Z</time>
      </trkpt>
      <trkpt lat="45.66657" lon="6.58445">
        <ele>1652</ele>
        <time>2023-01-29T14:46:48Z</time>
      </trkpt>
      <trkpt lat="45.66658" lon="6.58442">
        <ele>1649</ele>
        <time>2023-01-29T14:48:06Z</time>
      </trkpt>
      <trkpt lat="45.66657" lon="6.58437">
        <ele>1648</ele>
        <time>2023-01-29T14:48:07Z</time>
      </trkpt>
      <trkpt lat="45.66655" lon="6.58433">
        <ele>1647</ele>
        <time>2023-01-29T14:48:08Z</time>
      </trkpt>
      <trkpt lat="45.66644" lon="6.58425">
        <ele>1644</ele>
        <time>2023-01-29T14:48:12Z</time>
      </trkpt>
      <trkpt lat="45.66634" lon="6.58425">
        <ele>1643</ele>
        <time>2023-01-29T14:48:17Z</time>
      </trkpt>
      <trkpt lat="45.66628" lon="6.58423">
        <ele>1643</ele>
        <time>2023-01-29T14:48:22Z</time>
      </trkpt>
      <trkpt lat="45.66624" lon="6.58418">
        <ele>1643</ele>
        <time>2023-01-29T14:48:24Z</time>
      </trkpt>
      <trkpt lat="45.66626" lon="6.58412">
        <ele>1642</ele>
        <time>2023-01-29T14:48:26Z</time>
      </trkpt>
      <trkpt lat="45.66627" lon="6.58407">
        <ele>1642</ele>
        <time>2023-01-29T14:48:28Z</time>
      </trkpt>
      <trkpt lat="45.66623" lon="6.58403">
        <ele>1641</ele>
        <time>2023-01-29T14:48:31Z</time>
      </trkpt>
      <trkpt lat="45.66621" lon="6.58397">
        <ele>1640</ele>
        <time>2023-01-29T14:48:33Z</time>
      </trkpt>
      <trkpt lat="45.66625" lon="6.58393">
        <ele>1639</ele>
        <time>2023-01-29T14:48:35Z</time>
      </trkpt>
      <trkpt lat="45.66628" lon="6.5839">
        <ele>1637</ele>
        <time>2023-01-29T14:48:37Z</time>
      </trkpt>
      <trkpt lat="45.66624" lon="6.58388">
        <ele>1634</ele>
        <time>2023-01-29T14:48:43Z</time>
      </trkpt>
      <trkpt lat="45.66627" lon="6.58383">
        <ele>1633</ele>
        <time>2023-01-29T14:48:46Z</time>
      </trkpt>
      <trkpt lat="45.6663" lon="6.58382">
        <ele>1630</ele>
        <time>2023-01-29T14:48:48Z</time>
      </trkpt>
      <trkpt lat="45.66633" lon="6.5838">
        <ele>1627</ele>
        <time>2023-01-29T14:48:51Z</time>
      </trkpt>
      <trkpt lat="45.66637" lon="6.58379">
        <ele>1626</ele>
        <time>2023-01-29T14:48:53Z</time>
      </trkpt>
      <trkpt lat="45.66653" lon="6.58383">
        <ele>1624</ele>
        <time>2023-01-29T14:48:58Z</time>
      </trkpt>
      <trkpt lat="45.66662" lon="6.58381">
        <ele>1623</ele>
        <time>2023-01-29T14:49:00Z</time>
      </trkpt>
      <trkpt lat="45.66669" lon="6.58382">
        <ele>1622</ele>
        <time>2023-01-29T14:49:04Z</time>
      </trkpt>
      <trkpt lat="45.66683" lon="6.58372">
        <ele>1620</ele>
        <time>2023-01-29T14:49:11Z</time>
      </trkpt>
      <trkpt lat="45.66688" lon="6.58368">
        <ele>1618</ele>
        <time>2023-01-29T14:49:13Z</time>
      </trkpt>
      <trkpt lat="45.66692" lon="6.5836">
        <ele>1616</ele>
        <time>2023-01-29T14:49:16Z</time>
      </trkpt>
      <trkpt lat="45.667" lon="6.58352">
        <ele>1613</ele>
        <time>2023-01-29T14:49:19Z</time>
      </trkpt>
      <trkpt lat="45.66714" lon="6.58343">
        <ele>1608</ele>
        <time>2023-01-29T14:49:25Z</time>
      </trkpt>
      <trkpt lat="45.66717" lon="6.58336">
        <ele>1606</ele>
        <time>2023-01-29T14:49:27Z</time>
      </trkpt>
      <trkpt lat="45.66739" lon="6.58332">
        <ele>1600</ele>
        <time>2023-01-29T14:49:33Z</time>
      </trkpt>
      <trkpt lat="45.66737" lon="6.58336">
        <ele>1599</ele>
        <time>2023-01-29T14:49:35Z</time>
      </trkpt>
      <trkpt lat="45.66739" lon="6.5834">
        <ele>1594</ele>
        <time>2023-01-29T14:51:25Z</time>
      </trkpt>
      <trkpt lat="45.66737" lon="6.58343">
        <ele>1594</ele>
        <time>2023-01-29T14:51:38Z</time>
      </trkpt>
      <trkpt lat="45.66736" lon="6.5834">
        <ele>1593</ele>
        <time>2023-01-29T14:51:54Z</time>
      </trkpt>
      <trkpt lat="45.66736" lon="6.58336">
        <ele>1592</ele>
        <time>2023-01-29T14:52:12Z</time>
      </trkpt>
      <trkpt lat="45.66742" lon="6.58336">
        <ele>1592</ele>
        <time>2023-01-29T14:52:20Z</time>
      </trkpt>
      <trkpt lat="45.66745" lon="6.58334">
        <ele>1594</ele>
        <time>2023-01-29T14:52:26Z</time>
      </trkpt>
      <trkpt lat="45.66748" lon="6.5833">
        <ele>1595</ele>
        <time>2023-01-29T14:53:14Z</time>
      </trkpt>
      <trkpt lat="45.66766" lon="6.58334">
        <ele>1589</ele>
        <time>2023-01-29T14:53:22Z</time>
      </trkpt>
      <trkpt lat="45.66783" lon="6.58331">
        <ele>1587</ele>
        <time>2023-01-29T14:53:27Z</time>
      </trkpt>
      <trkpt lat="45.66801" lon="6.58335">
        <ele>1584</ele>
        <time>2023-01-29T14:53:31Z</time>
      </trkpt>
      <trkpt lat="45.66806" lon="6.58334">
        <ele>1583</ele>
        <time>2023-01-29T14:53:32Z</time>
      </trkpt>
      <trkpt lat="45.6681" lon="6.58331">
        <ele>1582</ele>
        <time>2023-01-29T14:53:33Z</time>
      </trkpt>
      <trkpt lat="45.6683" lon="6.58313">
        <ele>1577</ele>
        <time>2023-01-29T14:53:38Z</time>
      </trkpt>
      <trkpt lat="45.6684" lon="6.58294">
        <ele>1573</ele>
        <time>2023-01-29T14:53:41Z</time>
      </trkpt>
      <trkpt lat="45.66842" lon="6.58282">
        <ele>1571</ele>
        <time>2023-01-29T14:53:43Z</time>
      </trkpt>
      <trkpt lat="45.66841" lon="6.58286">
        <ele>1568</ele>
        <time>2023-01-29T14:53:47Z</time>
      </trkpt>
      <trkpt lat="45.66838" lon="6.5829">
        <ele>1564</ele>
        <time>2023-01-29T14:53:56Z</time>
      </trkpt>
      <trkpt lat="45.66836" lon="6.58291">
        <ele>1563</ele>
        <time>2023-01-29T14:54:00Z</time>
      </trkpt>
      <trkpt lat="45.66833" lon="6.58291">
        <ele>1563</ele>
        <time>2023-01-29T14:54:02Z</time>
      </trkpt>
      <trkpt lat="45.66786" lon="6.58253">
        <ele>1558</ele>
        <time>2023-01-29T14:54:16Z</time>
      </trkpt>
      <trkpt lat="45.66779" lon="6.58242">
        <ele>1557</ele>
        <time>2023-01-29T14:54:18Z</time>
      </trkpt>
      <trkpt lat="45.66759" lon="6.58183">
        <ele>1549</ele>
        <time>2023-01-29T14:54:28Z</time>
      </trkpt>
      <trkpt lat="45.66744" lon="6.58162">
        <ele>1547</ele>
        <time>2023-01-29T14:54:32Z</time>
      </trkpt>
      <trkpt lat="45.6674" lon="6.58151">
        <ele>1546</ele>
        <time>2023-01-29T14:54:34Z</time>
      </trkpt>
      <trkpt lat="45.66738" lon="6.5815">
        <ele>1543</ele>
        <time>2023-01-29T14:54:41Z</time>
      </trkpt>
      <trkpt lat="45.66738" lon="6.58144">
        <ele>1542</ele>
        <time>2023-01-29T14:54:43Z</time>
      </trkpt>
      <trkpt lat="45.66737" lon="6.58147">
        <ele>1541</ele>
        <time>2023-01-29T14:54:47Z</time>
      </trkpt>
      <trkpt lat="45.66736" lon="6.58143">
        <ele>1539</ele>
        <time>2023-01-29T14:54:54Z</time>
      </trkpt>
      <trkpt lat="45.66732" lon="6.58137">
        <ele>1538</ele>
        <time>2023-01-29T14:54:56Z</time>
      </trkpt>
      <trkpt lat="45.66723" lon="6.58126">
        <ele>1536</ele>
        <time>2023-01-29T14:54:59Z</time>
      </trkpt>
      <trkpt lat="45.66723" lon="6.5812">
        <ele>1536</ele>
        <time>2023-01-29T14:55:00Z</time>
      </trkpt>
      <trkpt lat="45.66725" lon="6.58116">
        <ele>1535</ele>
        <time>2023-01-29T14:55:01Z</time>
      </trkpt>
      <trkpt lat="45.66726" lon="6.58111">
        <ele>1534</ele>
        <time>2023-01-29T14:55:02Z</time>
      </trkpt>
      <trkpt lat="45.66721" lon="6.58106">
        <ele>1533</ele>
        <time>2023-01-29T14:55:04Z</time>
      </trkpt>
      <trkpt lat="45.6672" lon="6.58102">
        <ele>1532</ele>
        <time>2023-01-29T14:55:05Z</time>
      </trkpt>
      <trkpt lat="45.66721" lon="6.58096">
        <ele>1532</ele>
        <time>2023-01-29T14:55:07Z</time>
      </trkpt>
      <trkpt lat="45.66723" lon="6.58096">
        <ele>1531</ele>
        <time>2023-01-29T14:55:16Z</time>
      </trkpt>
      <trkpt lat="45.66722" lon="6.58093">
        <ele>1531</ele>
        <time>2023-01-29T14:57:00Z</time>
      </trkpt>
      <trkpt lat="45.6672" lon="6.58089">
        <ele>1531</ele>
        <time>2023-01-29T14:57:10Z</time>
      </trkpt>
      <trkpt lat="45.6672" lon="6.58085">
        <ele>1530</ele>
        <time>2023-01-29T14:57:15Z</time>
      </trkpt>
      <trkpt lat="45.66746" lon="6.58075">
        <ele>1526</ele>
        <time>2023-01-29T14:57:25Z</time>
      </trkpt>
      <trkpt lat="45.6675" lon="6.58076">
        <ele>1525</ele>
        <time>2023-01-29T14:57:27Z</time>
      </trkpt>
      <trkpt lat="45.66771" lon="6.58079">
        <ele>1523</ele>
        <time>2023-01-29T14:57:32Z</time>
      </trkpt>
      <trkpt lat="45.66782" lon="6.58084">
        <ele>1521</ele>
        <time>2023-01-29T14:57:36Z</time>
      </trkpt>
      <trkpt lat="45.66795" lon="6.58086">
        <ele>1520</ele>
        <time>2023-01-29T14:57:40Z</time>
      </trkpt>
      <trkpt lat="45.66799" lon="6.58085">
        <ele>1518</ele>
        <time>2023-01-29T14:57:41Z</time>
      </trkpt>
      <trkpt lat="45.66802" lon="6.5808">
        <ele>1517</ele>
        <time>2023-01-29T14:57:42Z</time>
      </trkpt>
      <trkpt lat="45.66826" lon="6.58043">
        <ele>1509</ele>
        <time>2023-01-29T14:57:48Z</time>
      </trkpt>
      <trkpt lat="45.66828" lon="6.58044">
        <ele>1507</ele>
        <time>2023-01-29T14:57:54Z</time>
      </trkpt>
      <trkpt lat="45.66831" lon="6.58044">
        <ele>1506</ele>
        <time>2023-01-29T14:57:58Z</time>
      </trkpt>
      <trkpt lat="45.66833" lon="6.58045">
        <ele>1504</ele>
        <time>2023-01-29T14:58:03Z</time>
      </trkpt>
      <trkpt lat="45.66835" lon="6.58046">
        <ele>1504</ele>
        <time>2023-01-29T14:58:20Z</time>
      </trkpt>
      <trkpt lat="45.66837" lon="6.58047">
        <ele>1503</ele>
        <time>2023-01-29T14:58:22Z</time>
      </trkpt>
      <trkpt lat="45.66888" lon="6.58074">
        <ele>1498</ele>
        <time>2023-01-29T14:58:38Z</time>
      </trkpt>
      <trkpt lat="45.66893" lon="6.58078">
        <ele>1497</ele>
        <time>2023-01-29T14:58:40Z</time>
      </trkpt>
      <trkpt lat="45.66896" lon="6.58085">
        <ele>1497</ele>
        <time>2023-01-29T14:58:42Z</time>
      </trkpt>
      <trkpt lat="45.66908" lon="6.58097">
        <ele>1496</ele>
        <time>2023-01-29T14:58:45Z</time>
      </trkpt>
      <trkpt lat="45.66926" lon="6.58122">
        <ele>1494</ele>
        <time>2023-01-29T14:58:49Z</time>
      </trkpt>
      <trkpt lat="45.6693" lon="6.58124">
        <ele>1493</ele>
        <time>2023-01-29T14:58:50Z</time>
      </trkpt>
      <trkpt lat="45.66934" lon="6.58123">
        <ele>1493</ele>
        <time>2023-01-29T14:58:53Z</time>
      </trkpt>
      <trkpt lat="45.66944" lon="6.58127">
        <ele>1493</ele>
        <time>2023-01-29T14:58:57Z</time>
      </trkpt>
      <trkpt lat="45.66958" lon="6.5813">
        <ele>1493</ele>
        <time>2023-01-29T14:59:15Z</time>
      </trkpt>
      <trkpt lat="45.66963" lon="6.58129">
        <ele>1492</ele>
        <time>2023-01-29T14:59:18Z</time>
      </trkpt>
      <trkpt lat="45.66967" lon="6.58127">
        <ele>1491</ele>
        <time>2023-01-29T14:59:20Z</time>
      </trkpt>
      <trkpt lat="45.66971" lon="6.58124">
        <ele>1489</ele>
        <time>2023-01-29T14:59:24Z</time>
      </trkpt>
      <trkpt lat="45.66969" lon="6.58123">
        <ele>1486</ele>
        <time>2023-01-29T14:59:59Z</time>
      </trkpt>
      <trkpt lat="45.66965" lon="6.58121">
        <ele>1484</ele>
        <time>2023-01-29T15:00:12Z</time>
      </trkpt>
      <trkpt lat="45.66961" lon="6.5812">
        <ele>1484</ele>
        <time>2023-01-29T15:00:22Z</time>
      </trkpt>
      <trkpt lat="45.66958" lon="6.58118">
        <ele>1482</ele>
        <time>2023-01-29T15:00:25Z</time>
      </trkpt>
      <trkpt lat="45.66956" lon="6.58113">
        <ele>1480</ele>
        <time>2023-01-29T15:00:32Z</time>
      </trkpt>
      <trkpt lat="45.66954" lon="6.58109">
        <ele>1480</ele>
        <time>2023-01-29T15:00:38Z</time>
      </trkpt>
      <trkpt lat="45.66949" lon="6.58101">
        <ele>1478</ele>
        <time>2023-01-29T15:00:50Z</time>
      </trkpt>
      <trkpt lat="45.66948" lon="6.58097">
        <ele>1478</ele>
        <time>2023-01-29T15:01:00Z</time>
      </trkpt>
      <trkpt lat="45.66951" lon="6.58087">
        <ele>1477</ele>
        <time>2023-01-29T15:01:03Z</time>
      </trkpt>
      <trkpt lat="45.66949" lon="6.58081">
        <ele>1475</ele>
        <time>2023-01-29T15:01:06Z</time>
      </trkpt>
      <trkpt lat="45.66948" lon="6.58077">
        <ele>1473</ele>
        <time>2023-01-29T15:01:29Z</time>
      </trkpt>
      <trkpt lat="45.66951" lon="6.58073">
        <ele>1471</ele>
        <time>2023-01-29T15:01:32Z</time>
      </trkpt>
      <trkpt lat="45.66955" lon="6.58072">
        <ele>1468</ele>
        <time>2023-01-29T15:01:52Z</time>
      </trkpt>
      <trkpt lat="45.66959" lon="6.58075">
        <ele>1466</ele>
        <time>2023-01-29T15:01:56Z</time>
      </trkpt>
      <trkpt lat="45.66964" lon="6.58075">
        <ele>1465</ele>
        <time>2023-01-29T15:02:00Z</time>
      </trkpt>
      <trkpt lat="45.66963" lon="6.58075">
        <ele>1463</ele>
        <time>2023-01-29T15:02:08Z</time>
      </trkpt>
      <trkpt lat="45.6696" lon="6.58069">
        <ele>1463</ele>
        <time>2023-01-29T15:02:10Z</time>
      </trkpt>
      <trkpt lat="45.66955" lon="6.58065">
        <ele>1462</ele>
        <time>2023-01-29T15:02:13Z</time>
      </trkpt>
      <trkpt lat="45.66953" lon="6.58061">
        <ele>1459</ele>
        <time>2023-01-29T15:02:31Z</time>
      </trkpt>
      <trkpt lat="45.66954" lon="6.58056">
        <ele>1459</ele>
        <time>2023-01-29T15:02:40Z</time>
      </trkpt>
      <trkpt lat="45.66955" lon="6.5805">
        <ele>1457</ele>
        <time>2023-01-29T15:02:45Z</time>
      </trkpt>
      <trkpt lat="45.66957" lon="6.58045">
        <ele>1456</ele>
        <time>2023-01-29T15:02:47Z</time>
      </trkpt>
      <trkpt lat="45.66956" lon="6.5804">
        <ele>1453</ele>
        <time>2023-01-29T15:02:50Z</time>
      </trkpt>
      <trkpt lat="45.66954" lon="6.58036">
        <ele>1451</ele>
        <time>2023-01-29T15:02:53Z</time>
      </trkpt>
      <trkpt lat="45.66954" lon="6.58032">
        <ele>1448</ele>
        <time>2023-01-29T15:03:08Z</time>
      </trkpt>
      <trkpt lat="45.66958" lon="6.58031">
        <ele>1448</ele>
        <time>2023-01-29T15:03:11Z</time>
      </trkpt>
      <trkpt lat="45.6696" lon="6.58029">
        <ele>1446</ele>
        <time>2023-01-29T15:03:14Z</time>
      </trkpt>
      <trkpt lat="45.66962" lon="6.5802">
        <ele>1445</ele>
        <time>2023-01-29T15:03:28Z</time>
      </trkpt>
      <trkpt lat="45.66965" lon="6.58016">
        <ele>1443</ele>
        <time>2023-01-29T15:03:31Z</time>
      </trkpt>
      <trkpt lat="45.6697" lon="6.5802">
        <ele>1441</ele>
        <time>2023-01-29T15:03:35Z</time>
      </trkpt>
      <trkpt lat="45.66978" lon="6.58016">
        <ele>1439</ele>
        <time>2023-01-29T15:03:39Z</time>
      </trkpt>
      <trkpt lat="45.66983" lon="6.58011">
        <ele>1437</ele>
        <time>2023-01-29T15:03:50Z</time>
      </trkpt>
      <trkpt lat="45.66988" lon="6.58011">
        <ele>1436</ele>
        <time>2023-01-29T15:03:52Z</time>
      </trkpt>
      <trkpt lat="45.66994" lon="6.58016">
        <ele>1435</ele>
        <time>2023-01-29T15:03:54Z</time>
      </trkpt>
      <trkpt lat="45.67009" lon="6.58004">
        <ele>1432</ele>
        <time>2023-01-29T15:03:57Z</time>
      </trkpt>
      <trkpt lat="45.67014" lon="6.58002">
        <ele>1431</ele>
        <time>2023-01-29T15:03:58Z</time>
      </trkpt>
      <trkpt lat="45.6702" lon="6.58004">
        <ele>1429</ele>
        <time>2023-01-29T15:03:59Z</time>
      </trkpt>
      <trkpt lat="45.67081" lon="6.58013">
        <ele>1413</ele>
        <time>2023-01-29T15:04:09Z</time>
      </trkpt>
      <trkpt lat="45.67091" lon="6.58009">
        <ele>1410</ele>
        <time>2023-01-29T15:04:11Z</time>
      </trkpt>
      <trkpt lat="45.67099" lon="6.58002">
        <ele>1408</ele>
        <time>2023-01-29T15:04:13Z</time>
      </trkpt>
      <trkpt lat="45.67097" lon="6.58004">
        <ele>1404</ele>
        <time>2023-01-29T15:04:28Z</time>
      </trkpt>
      <trkpt lat="45.67095" lon="6.58004">
        <ele>1402</ele>
        <time>2023-01-29T15:07:44Z</time>
      </trkpt>
      <trkpt lat="45.67094" lon="6.58006">
        <ele>1405</ele>
        <time>2023-01-29T15:09:41Z</time>
      </trkpt>
      <trkpt lat="45.67093" lon="6.57996">
        <ele>1404</ele>
        <time>2023-01-29T15:09:45Z</time>
      </trkpt>
      <trkpt lat="45.67093" lon="6.57988">
        <ele>1402</ele>
        <time>2023-01-29T15:09:46Z</time>
      </trkpt>
      <trkpt lat="45.67096" lon="6.57955">
        <ele>1397</ele>
        <time>2023-01-29T15:09:50Z</time>
      </trkpt>
      <trkpt lat="45.67099" lon="6.57948">
        <ele>1396</ele>
        <time>2023-01-29T15:09:51Z</time>
      </trkpt>
      <trkpt lat="45.67105" lon="6.57943">
        <ele>1395</ele>
        <time>2023-01-29T15:09:52Z</time>
      </trkpt>
      <trkpt lat="45.6711" lon="6.57945">
        <ele>1395</ele>
        <time>2023-01-29T15:09:53Z</time>
      </trkpt>
      <trkpt lat="45.67113" lon="6.5795">
        <ele>1394</ele>
        <time>2023-01-29T15:09:54Z</time>
      </trkpt>
      <trkpt lat="45.67116" lon="6.57953">
        <ele>1394</ele>
        <time>2023-01-29T15:09:55Z</time>
      </trkpt>
      <trkpt lat="45.67131" lon="6.57962">
        <ele>1392</ele>
        <time>2023-01-29T15:09:58Z</time>
      </trkpt>
      <trkpt lat="45.67164" lon="6.58007">
        <ele>1387</ele>
        <time>2023-01-29T15:10:06Z</time>
      </trkpt>
      <trkpt lat="45.67185" lon="6.58056">
        <ele>1381</ele>
        <time>2023-01-29T15:10:15Z</time>
      </trkpt>
      <trkpt lat="45.67191" lon="6.58054">
        <ele>1380</ele>
        <time>2023-01-29T15:10:17Z</time>
      </trkpt>
      <trkpt lat="45.67209" lon="6.58068">
        <ele>1379</ele>
        <time>2023-01-29T15:10:23Z</time>
      </trkpt>
      <trkpt lat="45.67213" lon="6.58072">
        <ele>1379</ele>
        <time>2023-01-29T15:10:30Z</time>
      </trkpt>
      <trkpt lat="45.67216" lon="6.58078">
        <ele>1379</ele>
        <time>2023-01-29T15:10:32Z</time>
      </trkpt>
      <trkpt lat="45.67238" lon="6.58087">
        <ele>1376</ele>
        <time>2023-01-29T15:11:04Z</time>
      </trkpt>
      <trkpt lat="45.67236" lon="6.58085">
        <ele>1376</ele>
        <time>2023-01-29T15:11:14Z</time>
      </trkpt>
      <trkpt lat="45.67234" lon="6.58082">
        <ele>1374</ele>
        <time>2023-01-29T15:11:46Z</time>
      </trkpt>
      <trkpt lat="45.67234" lon="6.58078">
        <ele>1371</ele>
        <time>2023-01-29T15:11:57Z</time>
      </trkpt>
      <trkpt lat="45.67237" lon="6.58079">
        <ele>1370</ele>
        <time>2023-01-29T15:12:04Z</time>
      </trkpt>
      <trkpt lat="45.67241" lon="6.58078">
        <ele>1366</ele>
        <time>2023-01-29T15:12:11Z</time>
      </trkpt>
      <trkpt lat="45.67244" lon="6.58081">
        <ele>1364</ele>
        <time>2023-01-29T15:12:17Z</time>
      </trkpt>
      <trkpt lat="45.67247" lon="6.58082">
        <ele>1362</ele>
        <time>2023-01-29T15:12:21Z</time>
      </trkpt>
      <trkpt lat="45.67249" lon="6.58075">
        <ele>1361</ele>
        <time>2023-01-29T15:12:41Z</time>
      </trkpt>
      <trkpt lat="45.67251" lon="6.58071">
        <ele>1360</ele>
        <time>2023-01-29T15:12:42Z</time>
      </trkpt>
      <trkpt lat="45.67256" lon="6.58069">
        <ele>1360</ele>
        <time>2023-01-29T15:12:44Z</time>
      </trkpt>
      <trkpt lat="45.67271" lon="6.58069">
        <ele>1357</ele>
        <time>2023-01-29T15:12:48Z</time>
      </trkpt>
      <trkpt lat="45.67303" lon="6.58059">
        <ele>1350</ele>
        <time>2023-01-29T15:13:01Z</time>
      </trkpt>
      <trkpt lat="45.67309" lon="6.58058">
        <ele>1349</ele>
        <time>2023-01-29T15:13:06Z</time>
      </trkpt>
      <trkpt lat="45.67311" lon="6.5806">
        <ele>1347</ele>
        <time>2023-01-29T15:14:33Z</time>
      </trkpt>
      <trkpt lat="45.67314" lon="6.5806">
        <ele>1345</ele>
        <time>2023-01-29T15:14:34Z</time>
      </trkpt>
      <trkpt lat="45.67315" lon="6.58054">
        <ele>1344</ele>
        <time>2023-01-29T15:14:35Z</time>
      </trkpt>
      <trkpt lat="45.67315" lon="6.58046">
        <ele>1341</ele>
        <time>2023-01-29T15:14:36Z</time>
      </trkpt>
      <trkpt lat="45.67314" lon="6.58039">
        <ele>1339</ele>
        <time>2023-01-29T15:14:37Z</time>
      </trkpt>
      <trkpt lat="45.67315" lon="6.58022">
        <ele>1333</ele>
        <time>2023-01-29T15:14:39Z</time>
      </trkpt>
      <trkpt lat="45.67318" lon="6.57993">
        <ele>1322</ele>
        <time>2023-01-29T15:14:42Z</time>
      </trkpt>
      <trkpt lat="45.67323" lon="6.57985">
        <ele>1320</ele>
        <time>2023-01-29T15:14:43Z</time>
      </trkpt>
      <trkpt lat="45.67359" lon="6.5797">
        <ele>1313</ele>
        <time>2023-01-29T15:14:52Z</time>
      </trkpt>
      <trkpt lat="45.67358" lon="6.57968">
        <ele>1312</ele>
        <time>2023-01-29T15:15:01Z</time>
      </trkpt>
      <trkpt lat="45.67353" lon="6.57968">
        <ele>1311</ele>
        <time>2023-01-29T15:15:03Z</time>
      </trkpt>
      <trkpt lat="45.67349" lon="6.57967">
        <ele>1310</ele>
        <time>2023-01-29T15:15:04Z</time>
      </trkpt>
      <trkpt lat="45.67343" lon="6.57966">
        <ele>1310</ele>
        <time>2023-01-29T15:15:06Z</time>
      </trkpt>
      <trkpt lat="45.67341" lon="6.57964">
        <ele>1310</ele>
        <time>2023-01-29T15:15:08Z</time>
      </trkpt>
      <trkpt lat="45.67337" lon="6.57964">
        <ele>1310</ele>
        <time>2023-01-29T15:15:13Z</time>
      </trkpt>
      <trkpt lat="45.67317" lon="6.57966">
        <ele>1311</ele>
        <time>2023-01-29T15:15:20Z</time>
      </trkpt>
      <trkpt lat="45.67315" lon="6.57962">
        <ele>1311</ele>
        <time>2023-01-29T15:15:22Z</time>
      </trkpt>
      <trkpt lat="45.67316" lon="6.57959">
        <ele>1311</ele>
        <time>2023-01-29T15:15:23Z</time>
      </trkpt>
      <trkpt lat="45.67318" lon="6.57955">
        <ele>1311</ele>
        <time>2023-01-29T15:15:24Z</time>
      </trkpt>
      <trkpt lat="45.67325" lon="6.5795">
        <ele>1310</ele>
        <time>2023-01-29T15:15:26Z</time>
      </trkpt>
      <trkpt lat="45.67401" lon="6.5792">
        <ele>1299</ele>
        <time>2023-01-29T15:16:15Z</time>
      </trkpt>
      <trkpt lat="45.6742" lon="6.57916">
        <ele>1297</ele>
        <time>2023-01-29T15:16:20Z</time>
      </trkpt>
      <trkpt lat="45.67484" lon="6.57873">
        <ele>1287</ele>
        <time>2023-01-29T15:16:36Z</time>
      </trkpt>
      <trkpt lat="45.6749" lon="6.57873">
        <ele>1287</ele>
        <time>2023-01-29T15:16:38Z</time>
      </trkpt>
      <trkpt lat="45.67498" lon="6.57877">
        <ele>1287</ele>
        <time>2023-01-29T15:16:42Z</time>
      </trkpt>
      <trkpt lat="45.675" lon="6.57881">
        <ele>1287</ele>
        <time>2023-01-29T15:17:29Z</time>
      </trkpt>
      <trkpt lat="45.67503" lon="6.57883">
        <ele>1288</ele>
        <time>2023-01-29T15:17:32Z</time>
      </trkpt>
      <trkpt lat="45.67507" lon="6.5788">
        <ele>1288</ele>
        <time>2023-01-29T15:17:37Z</time>
      </trkpt>
      <trkpt lat="45.6751" lon="6.57878">
        <ele>1288</ele>
        <time>2023-01-29T15:17:40Z</time>
      </trkpt>
      <trkpt lat="45.67522" lon="6.5787">
        <ele>1287</ele>
        <time>2023-01-29T15:17:53Z</time>
      </trkpt>
      <trkpt lat="45.67529" lon="6.57861">
        <ele>1285</ele>
        <time>2023-01-29T15:18:01Z</time>
      </trkpt>
      <trkpt lat="45.67555" lon="6.57845">
        <ele>1283</ele>
        <time>2023-01-29T15:18:26Z</time>
      </trkpt>
      <trkpt lat="45.67569" lon="6.57844">
        <ele>1282</ele>
        <time>2023-01-29T15:18:38Z</time>
      </trkpt>
      <trkpt lat="45.67574" lon="6.57841">
        <ele>1281</ele>
        <time>2023-01-29T15:18:43Z</time>
      </trkpt>
      <trkpt lat="45.6758" lon="6.57838">
        <ele>1282</ele>
        <time>2023-01-29T15:18:50Z</time>
      </trkpt>
      <trkpt lat="45.67596" lon="6.57834">
        <ele>1281</ele>
        <time>2023-01-29T15:19:03Z</time>
      </trkpt>
      <trkpt lat="45.67599" lon="6.57832">
        <ele>1279</ele>
        <time>2023-01-29T15:19:06Z</time>
      </trkpt>
      <trkpt lat="45.67623" lon="6.57825">
        <ele>1275</ele>
        <time>2023-01-29T15:19:24Z</time>
      </trkpt>
      <trkpt lat="45.67628" lon="6.57825">
        <ele>1274</ele>
        <time>2023-01-29T15:19:29Z</time>
      </trkpt>
      <trkpt lat="45.67632" lon="6.57823">
        <ele>1273</ele>
        <time>2023-01-29T15:19:32Z</time>
      </trkpt>
      <trkpt lat="45.67636" lon="6.57822">
        <ele>1273</ele>
        <time>2023-01-29T15:19:35Z</time>
      </trkpt>
      <trkpt lat="45.67649" lon="6.57817">
        <ele>1271</ele>
        <time>2023-01-29T15:19:48Z</time>
      </trkpt>
      <trkpt lat="45.67678" lon="6.5781">
        <ele>1267</ele>
        <time>2023-01-29T15:20:12Z</time>
      </trkpt>
      <trkpt lat="45.67717" lon="6.57804">
        <ele>1262</ele>
        <time>2023-01-29T15:20:42Z</time>
      </trkpt>
      <trkpt lat="45.67723" lon="6.57805">
        <ele>1262</ele>
        <time>2023-01-29T15:20:46Z</time>
      </trkpt>
      <trkpt lat="45.67759" lon="6.57804">
        <ele>1261</ele>
        <time>2023-01-29T15:21:16Z</time>
      </trkpt>
      <trkpt lat="45.67797" lon="6.57804">
        <ele>1255</ele>
        <time>2023-01-29T15:21:48Z</time>
      </trkpt>
      <trkpt lat="45.67833" lon="6.57809">
        <ele>1250</ele>
        <time>2023-01-29T15:22:17Z</time>
      </trkpt>
      <trkpt lat="45.67837" lon="6.57813">
        <ele>1251</ele>
        <time>2023-01-29T15:22:25Z</time>
      </trkpt>
      <trkpt lat="45.67846" lon="6.57819">
        <ele>1251</ele>
        <time>2023-01-29T15:22:35Z</time>
      </trkpt>
      <trkpt lat="45.6785" lon="6.57825">
        <ele>1251</ele>
        <time>2023-01-29T15:22:44Z</time>
      </trkpt>
      <trkpt lat="45.67852" lon="6.57826">
        <ele>1252</ele>
        <time>2023-01-29T15:23:16Z</time>
      </trkpt>
      <trkpt lat="45.67855" lon="6.57826">
        <ele>1251</ele>
        <time>2023-01-29T15:23:19Z</time>
      </trkpt>
    </trkseg>
  </trk>
</gpx>